[[{"header":{"parameterUnit":"m.s-1","parameterCategory":1,"la1":30.6,"la2":28.766,"lo1":-90.7593,"lo2":-88.6598,"dy":0.0162,"dx":0.0183,"nx":116,"ny":114,"refTime":"2024-05-20T00:00:00:Z","depth":0,"parameterNumber":2,"parameterNumberName":"U-component_of_WINDS"},"data":[0.0,0.0,0.0,0.0,0.0,0.0,0.0,0.0,0.0,0.0,0.0,0.0,0.0,0.0,0.0,0.0,0.0,0.0,0.0,0.0,0.0,0.0,0.0,0.0,0.0,0.0,0.0,0.0,0.0,0.0,0.0,0.0,0.0,0.0,0.0,0.0,0.0,0.0,0.0,0.0,0.0,0.0,0.0,0.0,0.0,0.0,0.0,0.0,0.0,0.0,0.0,0.0,0.0,0.0,0.0,0.0,0.0,0.0,0.0,0.0,0.0,0.0,0.0,0.0,0.0,0.0,0.0,0.0,0.0,0.0,0.0,0.0,0.0,0.0,0.0,0.0,0.0,0.0,0.0,0.0,0.0,0.0,0.0,0.0,0.0,0.0,0.0,0.0,0.0,0.0,0.0,0.0,0.0,0.0,0.0,0.0,0.0,0.0,0.0,0.0,0.0,0.0,0.0,0.0,0.0,0.0,0.0,0.0,0.0,0.0,0.0,0.0,0.0,0.0,0.0,0.0,0.0,0.0,0.0,0.0,0.0,0.0,0.0,0.0,0.0,0.0,0.0,0.0,0.0,0.0,0.0,0.0,0.0,0.0,0.0,0.0,0.0,0.0,0.0,0.0,0.0,0.0,0.0,0.0,0.0,0.0,0.0,0.0,0.0,0.0,0.0,0.0,0.0,0.0,0.0,0.0,0.0,0.0,0.0,0.0,0.0,0.0,0.0,0.0,0.0,0.0,0.0,0.0,0.0,0.0,0.0,0.0,0.0,0.0,0.0,0.0,0.0,0.0,0.0,0.0,0.0,0.0,0.0,0.0,0.0,0.0,0.0,0.0,0.0,0.0,0.0,0.0,0.0,0.0,0.0,0.0,0.0,0.0,0.0,0.0,0.0,0.0,0.0,0.0,0.0,0.0,0.0,0.0,0.0,0.0,0.0,0.0,0.0,0.0,0.0,0.0,0.0,0.0,0.0,0.0,0.0,0.0,0.0,0.0,0.0,0.0,0.0,0.0,0.0,0.0,0.0,0.0,0.0,0.0,0.0,0.0,0.0,0.0,0.0,0.0,0.0,0.0,0.0,0.0,0.0,0.0,0.0,0.0,0.0,0.0,0.0,0.0,0.0,0.0,0.0,0.0,0.0,0.0,0.0,0.0,0.0,0.0,0.0,0.0,0.0,0.0,0.0,0.0,0.0,0.0,0.0,0.0,0.0,0.0,0.0,0.0,0.0,0.0,0.0,0.0,0.0,0.0,0.0,0.0,0.0,0.0,0.0,0.0,0.0,0.0,0.0,0.0,0.0,0.0,0.0,0.0,0.0,0.0,0.0,0.0,0.0,0.0,0.0,0.0,0.0,0.0,0.0,0.0,0.0,0.0,0.0,0.0,0.0,0.0,0.0,0.0,0.0,0.0,0.0,0.0,0.0,0.0,0.0,0.0,0.0,0.0,0.0,0.0,0.0,0.0,0.0,0.0,0.0,0.0,0.0,0.0,0.0,0.0,0.0,0.0,0.0,0.0,0.0,0.0,0.0,0.0,0.0,0.0,0.0,0.0,0.0,0.0,0.0,0.0,0.0,0.0,0.0,0.0,0.0,0.0,0.0,0.0,0.0,0.0,0.0,0.0,0.0,0.0,0.0,0.0,0.0,0.0,0.0,0.0,0.0,0.0,0.0,0.0,0.0,0.0,0.0,0.0,0.0,0.0,0.0,0.0,0.0,0.0,0.0,0.0,0.0,0.0,0.0,0.0,0.0,0.0,0.0,0.0,0.0,0.0,0.0,0.0,0.0,0.0,0.0,0.0,0.0,0.0,0.0,0.0,0.0,0.0,0.0,0.0,0.0,0.0,0.0,0.0,0.0,0.0,0.0,0.0,0.0,0.0,0.0,0.0,0.0,0.0,0.0,0.0,0.0,0.0,0.0,0.0,0.0,0.0,0.0,0.0,0.0,0.0,0.0,0.0,0.0,0.0,0.0,0.0,0.0,0.0,0.0,0.0,0.0,0.0,0.0,0.0,0.0,0.0,0.0,0.0,0.0,0.0,0.0,0.0,0.0,0.0,0.0,0.0,0.0,0.0,0.0,0.0,0.0,0.0,0.0,0.0,0.0,0.0,0.0,0.0,0.0,0.0,0.0,0.0,0.0,0.0,0.0,0.0,0.0,0.0,0.0,0.0,0.0,0.0,0.0,0.0,0.0,0.0,0.0,0.0,0.0,0.0,0.0,0.0,0.0,0.0,0.0,0.0,0.0,0.0,0.0,0.0,0.0,0.0,0.0,0.0,0.0,0.0,0.0,0.0,0.0,0.0,0.0,0.0,0.0,0.0,0.0,0.0,0.0,0.0,0.0,0.0,0.0,0.0,0.0,0.0,0.0,0.0,0.0,0.0,0.0,0.0,0.0,0.0,0.0,0.0,0.0,0.0,0.0,0.0,0.0,0.0,0.0,0.0,0.0,0.0,0.0,0.0,0.0,0.0,0.0,0.0,0.0,0.0,0.0,0.0,0.0,0.0,0.0,0.0,0.0,0.0,0.0,0.0,0.0,0.0,0.0,0.0,0.0,0.0,0.0,0.0,0.0,0.0,0.0,0.0,0.0,0.0,0.0,0.0,0.0,0.0,0.0,0.0,0.0,0.0,0.0,0.0,0.0,0.0,0.0,0.0,0.0,0.0,0.0,0.0,0.0,0.0,0.0,0.0,0.0,0.0,0.0,0.0,0.0,0.0,0.0,0.0,0.0,0.0,0.0,0.0,0.0,0.0,0.0,0.0,0.0,0.0,0.0,0.0,0.0,0.0,0.0,0.0,0.0,0.0,0.0,0.0,0.0,0.0,0.0,0.0,0.0,0.0,0.0,0.0,0.0,0.0,0.0,0.0,0.0,0.0,0.0,0.0,0.0,0.0,0.0,0.0,0.0,0.0,0.0,0.0,0.0,0.0,0.0,0.0,0.0,0.0,0.0,0.0,0.0,0.0,0.0,0.0,0.0,0.0,0.0,0.0,0.0,0.0,0.0,0.0,0.0,0.0,0.0,0.0,0.0,0.0,0.0,0.0,0.0,0.0,0.0,0.0,0.0,0.0,0.0,0.0,0.0,0.0,0.0,0.0,0.0,0.0,0.0,0.0,0.0,0.0,0.0,0.0,0.0,0.0,0.0,0.0,0.0,0.0,0.0,0.0,0.0,0.0,0.0,0.0,0.0,0.0,0.0,0.0,0.0,0.0,0.0,0.0,0.0,0.0,0.0,0.0,0.0,0.0,0.0,0.0,0.0,0.0,0.0,0.0,0.0,0.0,0.0,0.0,0.0,0.0,0.0,0.0,0.0,0.0,0.0,0.0,0.0,0.0,0.0,0.0,0.0,0.0,0.0,0.0,0.0,0.0,0.0,0.0,0.0,0.0,0.0,0.0,0.0,0.0,0.0,0.0,0.0,0.0,0.0,0.0,0.0,0.0,0.0,0.0,0.0,0.0,0.0,0.0,0.0,0.0,0.0,0.0,0.0,0.0,0.0,0.0,0.0,0.0,0.0,0.0,0.0,0.0,0.0,0.0,0.0,0.0,0.0,0.0,0.0,0.0,0.0,0.0,0.0,0.0,0.0,0.0,0.0,0.0,0.0,0.0,0.0,0.0,0.0,0.0,0.0,0.0,0.0,0.0,0.0,0.0,0.0,0.0,0.0,0.0,0.0,0.0,0.0,0.0,0.0,0.0,0.0,0.0,0.0,0.0,0.0,0.0,0.0,0.0,0.0,0.0,0.0,0.0,0.0,0.0,0.0,0.0,0.0,0.0,0.0,0.0,0.0,0.0,0.0,0.0,0.0,0.0,0.0,0.0,0.0,0.0,0.0,0.0,0.0,0.0,0.0,0.0,0.0,0.0,0.0,0.0,0.0,0.0,0.0,0.0,0.0,0.0,0.0,0.0,0.0,0.0,0.0,0.0,0.0,0.0,0.0,0.0,0.0,0.0,0.0,0.0,0.0,0.0,0.0,0.0,0.0,0.0,0.0,0.0,0.0,0.0,0.0,0.0,0.0,0.0,0.0,0.0,0.0,0.0,0.0,0.0,0.0,0.0,0.0,0.0,0.0,0.0,0.0,0.0,0.0,0.0,0.0,0.0,0.0,0.0,0.0,0.0,0.0,0.0,0.0,0.0,0.0,0.0,0.0,0.0,0.0,0.0,0.0,0.0,0.0,0.0,0.0,0.0,0.0,0.0,0.0,0.0,0.0,0.0,0.0,0.0,0.0,0.0,0.0,0.0,0.0,0.0,0.0,0.0,0.0,0.0,0.0,0.0,0.0,0.0,0.0,0.0,0.0,0.0,0.0,0.0,0.0,0.0,0.0,0.0,0.0,0.0,0.0,0.0,0.0,0.0,0.0,0.0,0.0,0.0,0.0,0.0,0.0,0.0,0.0,0.0,0.0,0.0,0.0,0.0,0.0,0.0,0.0,0.0,0.0,0.0,0.0,0.0,0.0,0.0,0.0,0.0,0.0,0.0,0.0,0.0,0.0,0.0,0.0,0.0,0.0,0.0,0.0,0.0,0.0,0.0,0.0,0.0,0.0,0.0,0.0,0.0,0.0,0.0,0.0,0.0,0.0,0.0,0.0,0.0,0.0,0.0,0.0,0.0,0.0,0.0,0.0,0.0,0.0,0.0,0.0,0.0,0.0,0.0,0.0,0.0,0.0,0.0,0.0,0.0,0.0,0.0,0.0,0.0,0.0,0.0,0.0,0.0,0.0,0.0,0.0,0.0,0.0,0.0,0.0,0.0,0.0,0.0,0.0,0.0,0.0,0.0,0.0,0.0,0.0,0.0,0.0,0.0,0.0,0.0,0.0,0.0,0.0,0.0,0.0,0.0,0.0,0.0,0.0,0.0,0.0,0.0,0.0,0.0,0.0,0.0,0.0,0.0,0.0,0.0,0.0,0.0,0.0,0.0,0.0,0.0,0.0,0.0,0.0,0.0,0.0,0.0,0.0,0.0,0.0,0.0,0.0,0.0,0.0,0.0,0.0,0.0,0.0,0.0,0.0,0.0,0.0,0.0,0.0,0.0,0.0,0.0,0.0,0.0,0.0,0.0,0.0,0.0,0.0,0.0,0.0,0.0,0.0,0.0,0.0,0.0,0.0,0.0,0.0,0.0,0.0,0.0,0.0,0.0,0.0,0.0,0.0,0.0,0.0,0.0,0.0,0.0,0.0,0.0,0.0,0.0,0.0,0.0,0.0,0.0,0.0,0.0,0.0,0.0,0.0,0.0,0.0,0.0,0.0,0.0,0.0,0.0,0.0,0.0,0.0,0.0,0.0,0.0,0.0,0.0,0.0,0.0,0.0,0.0,0.0,0.0,0.0,0.0,0.0,0.0,0.0,0.0,0.0,0.0,0.0,0.0,0.0,0.0,0.0,0.0,0.0,0.0,0.0,0.0,0.0,0.0,0.0,0.0,0.0,0.0,0.0,0.0,0.0,0.0,0.0,0.0,0.0,0.0,0.0,0.0,0.0,0.0,0.0,0.0,0.0,0.0,0.0,0.0,0.0,0.0,0.0,0.0,0.0,0.0,0.0,0.0,0.0,0.0,0.0,0.0,0.0,0.0,0.0,0.0,0.0,0.0,0.0,0.0,0.0,0.0,0.0,0.0,0.0,0.0,0.0,0.0,0.0,0.0,0.0,0.0,0.0,0.0,0.0,0.0,0.0,0.0,0.0,0.0,0.0,0.0,0.0,0.0,0.0,0.0,0.0,0.0,0.0,0.0,0.0,0.0,0.0,0.0,0.0,0.0,0.0,0.0,0.0,0.0,0.0,0.0,0.0,0.0,0.0,0.0,0.0,0.0,0.0,0.0,0.0,0.0,0.0,0.0,0.0,0.0,0.0,0.0,0.0,0.0,0.0,0.0,0.0,0.0,0.0,0.0,0.0,0.0,0.0,0.0,0.0,0.0,0.0,0.0,0.0,0.0,0.0,0.0,0.0,0.0,0.0,0.0,0.0,0.0,0.0,0.0,0.0,0.0,0.0,0.0,0.0,0.0,0.0,0.0,0.0,0.0,0.0,0.0,0.0,0.0,0.0,0.0,0.0,0.0,0.0,0.0,0.0,0.0,0.0,0.0,0.0,0.0,-1.9749,0.0,0.0,0.0,0.0,0.0,0.0,0.0,0.0,0.0,0.0,0.0,0.0,0.0,0.0,0.0,0.0,0.0,0.0,0.0,0.0,0.0,0.0,0.0,0.0,-1.8335,-1.8459,-1.8831,-1.8865,-1.8865,-1.8865,0.0,0.0,0.0,0.0,0.0,-1.7568,-1.7188,-1.7724,-1.9194,-1.8838,-1.929,-2.0471,-1.9809,-1.8274,-1.6051,0.0,0.0,0.0,0.0,0.0,0.0,0.0,0.0,0.0,0.0,0.0,0.0,0.0,0.0,0.0,0.0,0.0,0.0,0.0,0.0,0.0,0.0,0.0,0.0,0.0,0.0,0.0,0.0,0.0,0.0,0.0,0.0,0.0,0.0,0.0,0.0,0.0,0.0,0.0,0.0,0.0,0.0,0.0,0.0,0.0,0.0,0.0,0.0,0.0,0.0,0.0,0.0,0.0,0.0,0.0,0.0,0.0,0.0,0.0,0.0,0.0,0.0,0.0,0.0,0.0,0.0,0.0,0.0,0.0,0.0,0.0,-2.1368,0.0,0.0,0.0,0.0,0.0,0.0,0.0,0.0,0.0,0.0,0.0,0.0,0.0,0.0,0.0,0.0,0.0,0.0,0.0,0.0,0.0,-1.6707,-1.8603,-1.8976,-1.9376,-2.0073,-2.0044,-2.0052,-2.02,-2.0069,0.0,0.0,0.0,-1.8958,-1.8692,-1.873,-1.9841,-2.2071,-2.2178,-2.3031,-2.4577,-2.5202,-2.3403,-1.9662,-1.8747,0.0,0.0,0.0,0.0,0.0,0.0,0.0,0.0,0.0,0.0,0.0,0.0,0.0,0.0,0.0,0.0,0.0,0.0,0.0,0.0,0.0,0.0,0.0,0.0,0.0,0.0,0.0,0.0,0.0,0.0,0.0,0.0,0.0,0.0,0.0,0.0,0.0,0.0,0.0,0.0,0.0,0.0,0.0,0.0,0.0,0.0,0.0,0.0,0.0,0.0,0.0,0.0,0.0,0.0,0.0,0.0,0.0,0.0,0.0,0.0,0.0,0.0,0.0,-3.0784,-3.1512,-3.1968,-3.1843,-3.1761,-3.1519,-2.8336,-2.6193,-2.4829,-2.3222,0.0,0.0,0.0,0.0,0.0,0.0,0.0,0.0,0.0,0.0,0.0,0.0,0.0,0.0,0.0,0.0,0.0,0.0,0.0,-1.7748,-1.8402,-1.9295,-2.0064,-2.0547,-2.0247,-2.0302,-2.1004,-2.0386,0.0,0.0,-1.9849,-1.9706,-1.9386,-1.9655,-2.077,-2.2771,-2.6236,-2.8365,-2.9228,-2.933,-2.9024,-2.8279,-2.4345,-2.2408,-2.1969,0.0,0.0,0.0,0.0,0.0,0.0,0.0,0.0,0.0,0.0,0.0,0.0,0.0,0.0,0.0,0.0,0.0,0.0,0.0,0.0,0.0,0.0,0.0,0.0,0.0,0.0,0.0,0.0,0.0,0.0,0.0,0.0,0.0,0.0,0.0,0.0,0.0,0.0,0.0,0.0,0.0,-2.1519,-2.1823,0.0,0.0,0.0,0.0,0.0,0.0,0.0,0.0,0.0,0.0,0.0,0.0,0.0,-2.9719,-3.0446,-3.256,-3.3355,-3.2848,-3.4912,-3.5588,-3.5008,-3.4936,-3.4891,-3.4858,-3.4236,0.0,-2.8519,-2.6485,0.0,0.0,0.0,0.0,0.0,0.0,0.0,0.0,0.0,0.0,0.0,0.0,0.0,0.0,0.0,0.0,0.0,0.0,0.0,0.0,0.0,-2.1369,-2.2338,-2.3367,-2.4028,-2.4003,-2.3103,-2.2927,-2.2209,-2.0741,-2.0498,-2.0401,-2.0455,-2.1413,-2.3555,-2.6958,-3.0405,-3.2276,-3.2577,-3.3,-3.3182,-3.3081,-3.07,-2.794,-2.4942,-2.2885,0.0,0.0,0.0,0.0,0.0,0.0,0.0,0.0,0.0,0.0,0.0,0.0,0.0,0.0,0.0,0.0,0.0,0.0,0.0,0.0,0.0,0.0,0.0,0.0,0.0,0.0,0.0,0.0,0.0,0.0,0.0,0.0,0.0,0.0,0.0,0.0,0.0,0.0,0.0,-2.1431,-2.3543,-2.3543,-2.39,-2.3697,0.0,0.0,0.0,0.0,0.0,0.0,0.0,0.0,0.0,-3.141,-3.2188,-3.3136,-3.4341,-3.5707,-3.6468,-3.6569,-3.755,-3.8058,-3.8125,-3.8022,-3.7973,-3.7956,-3.739,-3.614,-3.4187,-3.0746,-2.8924,-2.8115,0.0,0.0,0.0,0.0,-2.5508,-2.5608,0.0,0.0,0.0,0.0,0.0,0.0,0.0,0.0,0.0,0.0,0.0,0.0,-2.2017,-2.3321,-2.4613,-2.6202,-2.7248,-2.7181,-2.5743,-2.5211,-2.4089,-2.2138,-2.1359,-2.1185,-2.1639,-2.3845,-2.6944,-3.0934,-3.3914,-3.547,-3.5656,-3.6214,-3.6462,-3.6428,-3.5707,-3.2882,-2.8551,-2.6243,-2.4116,-2.2076,0.0,0.0,0.0,0.0,0.0,0.0,0.0,0.0,0.0,0.0,0.0,0.0,0.0,0.0,0.0,0.0,0.0,0.0,0.0,0.0,0.0,0.0,0.0,0.0,0.0,0.0,0.0,0.0,0.0,0.0,0.0,0.0,0.0,0.0,0.0,0.0,0.0,-2.3748,-2.5574,-2.5371,-2.6674,-2.6793,0.0,0.0,0.0,0.0,0.0,0.0,-3.1461,-3.2036,-3.3102,-3.4776,-3.5537,-3.6552,-3.7905,-3.865,-3.9292,-3.9834,-3.9648,-3.9851,-4.0358,-4.007,-3.9935,-3.9918,-3.9261,-3.8925,-3.8514,-3.4357,-3.2312,-3.1662,-3.0107,-2.9523,-2.956,-2.9503,-2.9619,-2.9834,0.0,0.0,0.0,0.0,0.0,0.0,0.0,0.0,0.0,0.0,0.0,-2.0501,-2.2199,-2.4263,-2.627,-2.8198,-2.8017,-2.8095,-2.8739,-2.6099,-2.4458,-2.4338,-2.2673,-2.2092,-2.2802,-2.7061,-3.0573,-3.3237,-3.6265,-3.8091,-3.8768,-3.8802,-3.8819,-3.8802,-3.8058,-3.6383,-3.3914,-3.0999,-2.8356,-2.5865,-2.2941,0.0,0.0,0.0,0.0,0.0,0.0,0.0,0.0,0.0,0.0,0.0,0.0,0.0,0.0,0.0,0.0,0.0,0.0,0.0,0.0,0.0,0.0,0.0,0.0,0.0,0.0,0.0,0.0,0.0,0.0,0.0,0.0,0.0,0.0,0.0,0.0,0.0,0.0,-2.7722,-3.0799,0.0,0.0,0.0,0.0,-3.092,-3.1667,-3.3068,-3.5211,-3.5363,-3.6417,-3.865,-3.9436,-4.0197,-4.0967,-4.1711,-4.2083,-4.2117,-4.1424,-4.1119,-4.1119,-4.0409,-4.007,-4.007,-4.0037,-4.002,-3.9758,-3.6339,-3.4865,-3.4619,-3.3089,-3.2564,-3.2646,-3.2525,-3.2934,-3.3425,0.0,0.0,0.0,0.0,0.0,-1.3129,-1.4455,-1.5096,-1.6193,-1.8287,-2.0346,-2.2449,-2.4611,-2.7022,-2.9175,-3.0799,-3.1233,-3.092,-2.9786,-2.7366,-2.6161,-2.659,-2.4357,-2.4778,-2.837,-3.0804,-3.3452,-3.6299,-3.7855,-3.8988,-3.9723,-3.9723,-3.9723,-3.9706,-3.9411,-3.8582,-3.7161,-3.3694,-3.1168,-2.9168,-2.5531,-2.2623,0.0,0.0,0.0,0.0,0.0,0.0,0.0,0.0,0.0,0.0,0.0,0.0,0.0,0.0,0.0,0.0,0.0,0.0,0.0,0.0,0.0,0.0,0.0,0.0,0.0,0.0,0.0,0.0,0.0,0.0,0.0,0.0,0.0,0.0,0.0,0.0,0.0,-3.1393,-3.3419,0.0,-3.1627,-3.256,-3.3525,-3.4015,-3.5622,-3.7144,-3.843,-3.9394,-4.0273,-4.1085,-4.1399,-4.1627,-4.1897,-4.2168,-4.2286,-4.2286,-4.2016,-4.1914,-4.1897,-4.1653,-4.1255,-4.0798,-4.0798,-4.0476,-3.9851,-3.8589,-3.7819,-3.7332,-3.6111,-3.568,-3.5721,-3.5577,-3.5694,-3.5893,0.0,0.0,0.0,0.0,-1.2388,-1.2997,-1.4583,-1.5229,-1.6518,-1.9256,-2.1377,-2.3737,-2.6656,-2.9076,-3.1173,-3.2886,-3.3254,-3.2718,-3.1093,-2.8671,-2.7368,-2.7559,-2.628,-2.7555,-3.1878,-3.3664,-3.5774,-3.8278,-3.9005,-3.9622,-4.0096,-4.0096,-4.0096,-4.0096,-4.0096,-3.9842,-3.9174,-3.6451,-3.4134,-3.2019,-2.8589,-2.6152,-2.4245,0.0,0.0,0.0,0.0,0.0,0.0,0.0,0.0,0.0,0.0,0.0,0.0,0.0,0.0,0.0,0.0,0.0,0.0,0.0,0.0,0.0,0.0,0.0,0.0,0.0,0.0,0.0,0.0,0.0,0.0,0.0,0.0,0.0,0.0,0.0,-3.3592,-3.4083,-3.6107,-3.68,-3.5098,-3.6265,-3.7229,-3.7459,-3.9123,-4.0324,-4.0823,-4.1762,-4.2286,-4.2286,-4.254,-4.2675,-4.2675,-4.2929,-4.3091,-4.3064,-4.2794,-4.2675,-4.2658,-4.2405,-4.2016,-4.1576,-4.1576,-4.1101,-4.0323,-4.0228,-3.9817,-3.9143,-3.8304,-3.7968,-3.7968,-3.7882,-3.7831,-3.7814,0.0,0.0,0.0,-1.2138,-1.2081,-1.2479,-1.3903,-1.4987,-1.6662,-1.9557,-2.1707,-2.4398,-2.8106,-3.0152,-3.2138,-3.4281,-3.3829,-3.3182,-3.2702,-2.9893,-2.7932,-2.7201,-2.8501,-3.0429,-3.3006,-3.5571,-3.7591,-3.9022,-3.9757,-4.0096,-4.0096,-4.0096,-4.0096,-4.0096,-4.0096,-4.0096,-4.0062,-3.9326,-3.733,-3.4438,-3.2222,-3.0448,-2.8705,0.0,0.0,0.0,0.0,0.0,0.0,0.0,0.0,0.0,0.0,0.0,0.0,0.0,0.0,0.0,0.0,0.0,0.0,0.0,0.0,0.0,0.0,0.0,0.0,0.0,0.0,0.0,0.0,0.0,0.0,0.0,0.0,0.0,-3.1478,-3.3858,-3.5718,-3.5802,-3.9022,-4.0392,-3.8261,-4.0612,-4.1999,-4.1288,-4.1914,-4.2337,-4.2354,-4.2354,-4.2388,-4.2422,-4.3115,-4.3477,-4.3494,-4.4265,-4.4666,-4.4632,-4.3842,-4.3443,-4.3392,-4.2692,-4.2354,-4.232,-4.232,-4.1914,-4.1238,-4.1204,-4.0764,-4.0079,-3.9537,-3.9299,-3.9299,-3.9299,-3.9299,-3.9199,0.0,0.0,-1.1848,-1.1965,-1.1986,-1.2605,-1.4406,-1.5452,-1.7092,-2.0094,-2.308,-2.5897,-2.8441,-3.1157,-3.309,-3.3851,-3.3597,-3.2963,-3.1966,-2.8918,-2.7599,-2.8646,-3.2529,-3.5323,-3.6696,-3.7823,-3.8877,-3.9808,-4.0011,-4.0096,-4.0096,-4.0096,-4.0096,-4.0096,-4.0096,-4.0096,-4.007,-3.9426,-3.8623,-3.7567,-3.5301,-3.3186,-3.1207,0.0,0.0,0.0,0.0,0.0,0.0,0.0,0.0,0.0,0.0,0.0,0.0,0.0,0.0,0.0,0.0,0.0,0.0,0.0,0.0,0.0,0.0,0.0,0.0,0.0,0.0,0.0,0.0,0.0,0.0,0.0,0.0,-3.6096,-3.5374,-3.6874,-3.8667,-4.0273,-4.1373,-4.1762,-4.1153,-4.1813,-4.2202,-4.1999,-4.2675,-4.3352,-4.3955,-4.3972,-4.4479,-4.5517,-4.5246,-4.5331,-4.5855,-4.6075,-4.5923,-4.5399,-4.5179,-4.479,-4.4248,-4.4073,-4.3639,-4.3115,-4.3115,-4.2675,-4.1948,-4.1319,-4.0939,-4.0676,-3.9878,-3.9599,-3.9573,-3.9379,-3.9299,-3.9265,0.0,-1.1805,-1.1826,-1.1891,-1.1923,-1.2551,-1.4304,-1.5472,-1.7267,-2.0368,-2.3649,-2.6501,-2.8561,-3.1279,-3.2896,-3.284,-3.2727,-3.2021,-3.0514,-2.8676,-2.8742,-3.1188,-3.4587,-3.709,-3.8497,-3.9151,-3.9673,-4.0096,-4.0096,-4.0096,-4.0096,-4.0096,-4.0096,-4.0096,-4.0096,-3.9969,-3.9696,-3.9339,-3.901,-3.8617,-3.7552,-3.6125,-3.4433,-3.2543,-3.1069,-2.9785,-2.8352,-2.7682,-2.7283,-2.5879,0.0,0.0,0.0,0.0,0.0,0.0,0.0,0.0,0.0,0.0,0.0,0.0,0.0,0.0,0.0,0.0,0.0,0.0,0.0,0.0,0.0,0.0,0.0,0.0,-3.6502,-3.8988,-3.9478,-4.0037,-4.0967,-4.2574,-4.276,-4.3014,-4.3656,-4.3724,-4.3842,-4.4147,-4.4587,-4.5026,-4.5512,-4.5529,-4.5906,-4.6752,-4.638,-4.6363,-4.6786,-4.6786,-4.6583,-4.616,-4.616,-4.5771,-4.5043,-4.5043,-4.4637,-4.391,-4.391,-4.347,-4.2726,-4.2223,-4.1825,0.0,0.0,0.0,0.0,0.0,-3.9299,-3.9299,0.0,-1.1805,-1.1826,-1.188,-1.1891,-1.2398,-1.3903,-1.5237,-1.7233,-2.0432,-2.3589,-2.6336,-2.8313,-3.0645,-3.189,-3.1497,-3.1475,-3.0721,-2.8935,-2.9236,-3.0847,-3.3981,-3.5473,-3.7144,-3.9089,-3.9774,-4.0096,-4.0096,-4.0096,-4.0096,-4.0096,-4.0096,-4.0096,-4.0096,-4.0096,-3.9773,-3.9206,-3.9206,-3.8849,-3.8351,-3.8892,-3.8644,-3.7624,-3.5025,-3.4336,-3.4404,-3.1799,-3.0801,-3.0412,-2.8281,0.0,0.0,0.0,0.0,0.0,0.0,0.0,0.0,0.0,0.0,0.0,0.0,0.0,0.0,0.0,0.0,0.0,0.0,0.0,0.0,0.0,0.0,0.0,0.0,-3.8979,-4.1187,-4.325,-4.3047,-4.2929,-4.3561,-4.3646,-4.422,-4.5686,-4.5821,-4.6109,-4.6735,-4.6786,-4.6836,-4.6921,0.0,0.0,0.0,0.0,-4.6955,-4.7039,-4.7039,-4.7005,-4.6921,-4.6921,-4.6532,-4.5821,-4.5737,-4.5331,-4.4733,-4.4649,-4.4181,-4.3538,-4.3426,-4.298,-4.2151,-4.0488,-3.9709,-3.9458,-3.9352,-3.9299,-3.9299,0.0,-1.1805,-1.179,-1.1826,-1.1859,-1.2453,-1.4097,-1.5301,-1.7076,-2.004,-2.2945,-2.5313,-2.6775,-2.909,-3.0555,-3.0638,-3.0671,-3.0243,-2.9127,-3.1083,-3.2878,-3.412,-3.6887,-3.8873,-3.9876,-4.0028,-4.0096,-4.0096,-4.0096,-4.0096,-4.0096,-4.0096,-4.0096,-4.0096,-4.0096,-3.9773,-3.9206,-3.9206,-3.8849,-3.8322,-3.8435,-3.8313,-3.8052,-3.7939,-3.7286,-3.6288,-3.5712,-3.5098,-3.4366,-3.3339,-3.2209,-3.1041,-3.0006,0.0,0.0,0.0,0.0,0.0,0.0,0.0,0.0,0.0,0.0,0.0,0.0,0.0,0.0,0.0,0.0,0.0,0.0,0.0,0.0,-3.8278,-4.0933,-4.3149,-4.4215,-4.4756,-4.5111,-4.5246,-4.5263,-4.5618,-4.6498,-4.6583,-4.665,-4.6786,-4.6786,-4.7056,-4.7665,-4.7124,-4.7344,-4.8545,-4.8003,-4.7986,-4.8578,-4.8578,-4.8291,-4.7699,0.0,0.0,-4.6566,-4.5974,-4.5618,-4.5449,-4.4869,-4.4513,-4.4316,-4.3673,-4.298,-4.2202,-4.1165,-4.017,-3.9352,-3.9432,-3.9379,-3.9299,-1.1805,-1.1805,-1.1805,-1.1805,-1.2107,-1.2765,-1.3966,-1.5169,-1.6844,-1.9327,-2.1722,-2.3608,-2.4737,-2.6667,-2.7703,-2.7201,-2.7705,-2.8359,-2.9109,-3.131,-3.3499,-3.558,-3.7579,-3.9087,-4.007,-4.0096,-4.0096,-4.0096,-4.0096,-4.0096,-4.0096,-4.0096,-4.0096,-4.007,-3.9773,-3.947,-3.9152,-3.8562,-3.8141,-3.7854,-3.7854,-3.7801,-3.7859,-3.8764,-3.8832,-3.8403,-3.8031,-3.7398,-3.6563,-3.5436,-3.4556,-3.3694,-3.2205,-3.0465,-2.8569,0.0,0.0,0.0,0.0,0.0,0.0,0.0,0.0,0.0,0.0,0.0,0.0,0.0,0.0,-3.3541,0.0,0.0,-3.9614,-4.1491,-4.3352,-4.4823,-4.5585,-4.6007,-4.6244,-4.6244,-4.6244,-4.6532,-4.7293,-4.7361,-4.7496,-4.7868,-4.7902,-4.8054,-4.8443,-4.8105,-4.824,-4.8984,-4.8646,-4.8646,-4.9001,-4.9001,-4.8832,-4.846,-4.846,-4.8071,-4.7344,-4.6972,-4.6413,-4.5686,-4.5314,-4.4925,-4.4581,-4.4164,-4.3511,-4.2702,-4.2267,-4.1272,-4.0027,-3.9634,-3.9422,-3.9299,-1.1805,-1.1805,-1.1805,-1.1805,-1.2355,-1.3049,-1.3787,-1.5026,-1.6532,-1.8365,-2.0386,-2.192,-2.2648,-2.4247,-2.4885,-2.3983,-2.5112,-2.6779,-2.8925,-3.1209,-3.3832,-3.6801,-3.7932,-3.8984,-4.0087,-3.9995,-3.9995,-4.0096,-4.0096,-4.0096,-4.0096,-4.0096,-4.0096,-4.007,-3.947,-3.9135,-3.8974,-3.7998,-3.7431,-3.7238,-3.7358,-3.7417,-3.7474,-3.8344,-3.9096,-3.964,-3.9042,-3.8231,-3.7297,-3.6191,-3.5616,-3.5115,-3.3457,-3.275,-3.2022,-2.9431,-2.8365,0.0,0.0,0.0,0.0,0.0,0.0,0.0,0.0,0.0,-3.229,-3.4641,-3.5605,-3.6789,-3.9377,-4.095,-4.2506,-4.4496,-4.5432,-4.6177,-4.6904,-4.7005,-4.7005,-4.7005,-4.7005,-4.731,-4.8054,-4.8091,-4.8376,-4.8968,-4.9001,-4.9001,-4.9001,-4.9001,-4.9001,-4.9001,-4.9001,-4.9001,-4.9001,-4.9001,-4.9001,-4.9001,-4.9001,-4.8697,-4.8122,-4.7956,-4.7229,-4.6126,-4.5821,-4.5365,-4.4818,-4.4666,-4.4142,-4.3457,-4.3294,-4.2438,-4.1127,-4.0141,-3.9648,-3.9497,0.0,-1.1805,-1.1805,-1.1805,-1.2355,-1.3049,-1.3787,-1.4998,-1.6142,-1.7106,-1.9293,-2.0835,-2.1042,-2.2679,-2.3798,-2.3903,-2.5767,-2.7381,-2.8408,-3.1941,-3.4688,-3.632,-3.812,-3.9418,-4.007,-3.9575,-3.9549,-4.0096,-4.0096,-4.0096,-4.0096,-4.0096,-4.0096,-4.007,-3.947,-3.892,-3.839,-3.8266,-3.7592,-3.6631,-3.7178,-3.7417,-3.7354,-3.6896,-3.7383,-3.8316,-3.8233,-3.7192,-3.5938,-3.6468,-3.5763,-3.4692,-3.5115,-3.4336,-3.3085,-3.209,0.0,-2.884,-2.8654,-2.9211,-3.0309,-3.229,-3.2408,-3.3427,0.0,0.0,-3.7838,-4.0696,-4.1356,-4.1728,-4.2716,-4.3623,-4.453,-4.5432,-4.6194,-4.6921,-4.7652,-4.78,-4.78,-4.78,-4.78,-4.8088,-4.8815,-4.8883,-4.8917,-4.9001,-4.9001,-4.9001,-4.9001,-4.9001,-4.9001,-4.9001,-4.9001,-4.9001,-4.9001,-4.9001,-4.9001,-4.9001,-4.9001,-4.8968,-4.8849,-4.8206,-4.7804,-4.7567,-4.6278,-4.5652,-4.5534,-4.4886,-4.4536,-4.4384,-4.3663,-4.3192,-4.2751,-4.1238,-4.0477,-4.0194,0.0,-1.1805,-1.1925,-1.231,-1.2939,-1.3493,-1.3788,-1.4958,-1.6053,-1.6744,-1.7807,-1.867,-1.9119,-2.0234,-2.1024,-2.12,-2.4036,-2.6346,-2.7626,-3.1387,-3.4514,-3.6664,-3.7986,-3.9135,-4.007,-3.9497,-3.9513,-4.0096,-3.9747,-3.9592,-3.9592,-3.9592,-3.9592,-3.9523,-3.859,-3.8379,-3.8739,-3.7709,-3.7178,-3.7013,-3.6922,-3.6628,-3.6269,-3.5988,-3.5612,-3.5344,-3.6179,-3.5473,0.0,0.0,-3.4354,-3.3616,-3.4153,-3.3914,-3.3169,-3.1985,-3.1596,0.0,-3.319,-3.3423,0.0,0.0,-3.6434,-3.7499,-3.9978,-4.0189,-4.0426,-4.2523,-4.2946,-4.3318,-4.4536,-4.5365,-4.6109,0.0,-4.7597,-4.8189,-4.8511,-4.8159,-4.7889,-4.7889,-4.753,-4.7564,-4.8308,-4.8748,-4.9001,-4.9001,-4.9001,-4.9001,-4.9001,-4.9001,-4.9001,-4.9001,-4.9001,-4.9001,-4.9001,-4.9001,-4.9001,-4.9001,-4.9001,-4.9001,-4.8984,-4.8697,-4.8325,-4.7821,-4.6802,-4.6109,-4.5686,-4.5365,-4.4976,-4.4536,-4.4086,-4.3895,-4.3654,-4.2026,-4.1059,-4.0479,0.0,-1.1939,-1.2235,-1.2726,-1.3508,-1.4079,-1.4079,-1.5065,-1.5964,-1.6398,-1.6774,-1.7228,-1.7926,-1.866,-1.9123,-1.922,-2.2256,-2.4949,-2.673,-3.0426,-3.3648,-3.6148,-3.7362,-3.8499,-3.9547,-3.9169,-3.9339,-4.0096,-3.9513,-3.9206,-3.9206,-3.9028,-3.8947,-3.892,-3.7854,-3.7883,-3.8618,-3.7282,-3.6892,-3.7133,-3.6824,-3.6315,-3.5669,-3.5225,-3.4156,-3.3071,-3.4079,-3.3356,0.0,0.0,-3.217,-3.1712,-3.2302,-3.2628,-3.2713,-3.2239,-3.3169,-3.4607,-3.5847,0.0,0.0,-3.7922,-3.9478,-4.0764,-4.0958,-4.1414,-4.2185,-4.347,-4.3741,-4.4147,-4.5466,-4.6295,-4.7039,-4.78,-4.8528,-4.9001,-4.9001,-4.8376,-4.7804,-4.7631,-4.7124,-4.6921,-4.7246,-4.8156,-4.8781,-4.8984,-4.9001,-4.9001,-4.9001,-4.9001,-4.9001,-4.9001,-4.9001,-4.9001,-4.9001,-4.9001,-4.9001,-4.9001,-4.9001,-4.9001,-4.9001,-4.9001,-4.8714,-4.8173,-4.7428,-4.6684,-4.5991,-4.5788,-4.5218,-4.4497,-4.4367,-4.431,-4.4147,-4.2948,-4.1955,-4.1144,0.0,0.0,-1.2786,-1.2801,-1.3897,-1.4767,-1.4767,-1.5364,-1.5814,-1.5829,-1.6458,-1.7182,-1.7927,-1.8661,-1.9089,-1.9004,-2.1057,-2.3375,-2.5773,-2.9216,-3.2046,-3.4003,-3.6114,-3.7546,-3.8223,-3.8297,-3.8903,-4.0096,-3.9513,-3.9206,-3.9179,-3.8601,-3.8351,-3.8306,-3.7695,-3.7417,-3.7431,-3.7417,-3.7043,-3.6585,-3.7004,-3.683,-3.6108,-3.4547,-3.3237,-3.2234,-3.2291,-3.0902,-2.9086,-2.9489,-2.9184,-2.8815,-2.9878,-3.07,0.0,-3.3778,-3.5492,0.0,0.0,0.0,-3.8903,-3.8954,-4.0595,-4.2422,-4.3122,-4.3308,-4.3589,-4.4384,-4.4564,-4.4818,-4.5568,-4.6295,-4.7039,-4.78,-4.8528,-4.9001,-4.9001,-4.8376,-4.7648,-4.6921,-4.6802,-4.6532,0.0,-4.709,-4.824,-4.8951,-4.9001,-4.9001,-4.9001,-4.9001,-4.9001,-4.9001,-4.9001,-4.9001,-4.9001,-4.9001,-4.9001,-4.9001,-4.9001,-4.9001,-4.9001,-4.9001,-4.8984,-4.8934,-4.8206,-4.7462,-4.6701,-4.5991,-4.5161,-4.431,-4.431,-4.431,-4.4265,-4.4105,-4.3492,-4.2544,0.0,0.0,0.0,-1.3972,-1.4511,-1.4946,-1.5395,-1.5664,-1.5799,-1.5799,-1.6443,0.0,0.0,0.0,0.0,0.0,-2.0935,-2.2685,-2.4089,-2.7409,-2.9983,-3.1486,-3.4313,-3.6007,-3.6282,-3.7049,-3.7892,-3.8831,-3.8186,-3.8324,-3.9179,-3.8574,-3.8518,-3.8849,-3.7854,-3.7621,-3.7937,-3.6662,-3.629,-3.6384,-3.519,-3.4547,-3.4268,-3.3295,-3.1285,-2.9026,0.0,-2.7928,-2.6514,-2.6507,-2.6555,-2.6759,-2.7896,0.0,0.0,-3.2222,-3.3744,-3.5081,-3.7557,0.0,-3.9462,-4.1441,-4.2489,-4.3234,-4.4012,-4.4198,-4.4113,-4.3859,-4.3809,-4.3893,-4.4147,-4.4807,-4.572,-4.6972,-4.78,-4.846,-4.8934,-4.8376,-4.7648,-4.6887,-4.6363,0.0,0.0,0.0,0.0,-4.8193,-4.8291,-4.8714,-4.9678,-4.9729,-4.9729,-4.9729,-4.9729,-4.9492,-4.9001,-4.9001,-4.9001,-4.9001,-4.9001,-4.9001,-4.9001,-4.9001,-4.9001,-4.8984,-4.8748,-4.8223,-4.7479,-4.6735,-4.587,-4.4966,-4.4495,-4.4253,-4.4155,-4.4126,-4.3877,-4.3344,0.0,0.0,0.0,0.0,0.0,0.0,0.0,0.0,0.0,0.0,0.0,0.0,0.0,0.0,0.0,0.0,0.0,0.0,-2.2995,-2.5429,-2.7512,-2.9085,-3.143,-3.2845,-3.3153,-3.386,-3.4849,-3.6075,-3.5409,-3.578,-3.7067,-3.6664,-3.6664,-3.6987,-3.621,-3.607,-3.6385,-3.5216,-3.4849,-3.4919,-3.3486,-3.2665,-3.2151,-3.1174,-2.9045,0.0,-2.6016,-2.5056,-2.4035,-2.3894,-2.4381,-2.5194,0.0,0.0,-3.0173,-3.2121,-3.3981,-3.6096,-3.9242,-4.0138,-4.0696,-4.2851,-4.3639,-4.3961,-4.4496,-4.4395,-4.4012,-4.3521,-4.297,-4.2682,-4.2963,-4.342,-4.435,-4.6109,-4.7039,-4.7868,-4.8866,-4.8376,-4.7703,-4.7259,-4.6532,-4.6278,0.0,0.0,0.0,-4.824,-4.8545,-4.9103,-5.0033,-5.0338,-5.049,-5.049,-5.049,-5.0135,-4.9407,-4.939,-4.9255,-4.9001,-4.9001,-4.9001,-4.9001,-4.9001,-4.9001,-4.9001,-4.9001,-4.8595,-4.7855,-4.7394,-4.6477,-4.5353,-4.4824,-4.4402,-4.4097,-4.4056,-4.3998,-4.3802,0.0,0.0,0.0,0.0,0.0,0.0,0.0,0.0,0.0,0.0,0.0,0.0,0.0,0.0,0.0,0.0,0.0,0.0,-2.2449,-2.3417,-2.4787,-2.6746,-2.765,-2.8408,-2.9082,-2.9175,-3.0135,-3.2007,-3.1406,-3.1847,-3.3186,-3.303,-3.2993,-3.3051,-3.3024,-3.3014,-3.2998,-3.3072,-3.2781,-3.2214,-3.1935,-3.1074,-2.9847,-2.8349,-2.6598,-2.4789,-2.3483,-2.2491,0.0,0.0,0.0,0.0,0.0,0.0,0.0,-3.3558,-3.6146,-3.9191,-4.0028,-4.1322,-4.2591,-4.3325,-4.4079,-4.4649,-4.4564,-4.3944,-4.3341,-4.3206,-4.2066,-4.1271,0.0,0.0,-4.2878,-4.5162,-4.621,-4.7276,-4.8849,-4.846,-4.799,0.0,0.0,0.0,0.0,0.0,0.0,-4.9001,0.0,-5.0084,-5.0202,-5.0879,-5.1268,-5.1268,-5.1268,-5.0913,-5.0152,-5.0101,-4.9746,-4.9069,-4.9018,-4.9001,-4.9001,-4.9001,-4.9001,-4.9001,-4.9001,-4.8612,-4.7939,-4.7906,-4.692,-4.5412,-4.5244,-4.4733,-4.4068,-4.3927,-4.3969,-4.3968,0.0,0.0,0.0,0.0,0.0,0.0,0.0,0.0,0.0,0.0,0.0,0.0,0.0,0.0,0.0,0.0,0.0,0.0,-2.0658,-2.1938,-2.291,-2.3436,-2.5439,-2.6493,-2.6315,-2.754,-2.8543,-2.9293,-2.9086,-2.9941,-3.1725,-3.123,-3.1518,-3.2401,-3.1964,-3.1765,-3.1684,-3.0785,-3.032,-3.0038,-2.849,-2.7625,-2.7208,-2.6299,-2.4739,-2.304,0.0,0.0,0.0,0.0,0.0,0.0,0.0,0.0,-3.4438,0.0,0.0,-3.9512,-4.1905,-4.3267,-4.4209,-4.4942,-4.528,-4.5128,-4.3978,-4.3555,-4.2794,-4.0578,-3.9817,-3.9106,0.0,0.0,0.0,-4.2794,-4.4739,0.0,-4.9458,-4.9661,0.0,-4.9543,0.0,-4.9255,-4.9255,-4.9255,0.0,0.0,-4.9796,-4.9999,-5.1657,-5.1928,-5.2029,-5.2029,-5.2029,-5.1674,-5.0947,-5.0371,-4.9999,-4.9796,-4.9255,-4.9001,-4.9001,-4.9001,-4.9001,-4.9001,-4.9001,-4.89,-4.868,-4.8139,-4.7181,-4.6016,-4.5433,-4.4586,-4.3717,-4.3687,-4.3687,-4.3684,0.0,0.0,0.0,0.0,0.0,0.0,0.0,0.0,0.0,0.0,0.0,0.0,0.0,0.0,0.0,0.0,0.0,0.0,0.0,-2.0685,-2.1325,-2.1709,-2.2797,-2.3425,-2.3472,-2.439,-2.5084,-2.5545,-2.5822,-2.6703,-2.8126,-2.8023,-2.8361,-2.9027,-2.87,-2.8545,-2.8468,-2.7557,-2.7165,0.0,0.0,-2.4841,-2.4466,-2.381,-2.2655,0.0,0.0,0.0,0.0,0.0,0.0,-3.0526,-3.2967,-3.4776,-3.6282,-3.7804,0.0,-4.1373,-4.3386,-4.4722,-4.5585,-4.5686,-4.5466,-4.4722,-4.2878,-4.1931,-4.073,-3.8058,-3.7246,0.0,0.0,0.0,0.0,0.0,0.0,0.0,-4.9204,-4.9898,-5.0219,0.0,-5.0591,0.0,-5.0591,-5.0591,-5.0896,0.0,-5.093,-5.0997,-5.2232,-5.2638,-5.2841,-5.2841,-5.2841,-5.2469,-5.1708,-5.0625,-5.0084,-5.0084,-4.9357,-4.9001,-4.9001,-4.9001,-4.9001,-4.9001,0.0,-4.9001,-4.8968,-4.8562,-4.7831,-4.6922,-4.6016,-4.513,-4.4238,-4.3774,-4.3598,-4.3598,0.0,0.0,0.0,0.0,0.0,0.0,0.0,0.0,0.0,0.0,0.0,0.0,0.0,0.0,0.0,0.0,0.0,0.0,0.0,0.0,0.0,-2.0901,-2.0368,-2.034,-2.0956,-2.0953,-2.1222,-2.174,0.0,0.0,-2.3789,-2.4248,-2.4535,-2.463,-2.463,-2.463,-2.4611,-2.4168,-2.3974,-2.3856,-2.3236,-2.2624,-2.1981,0.0,0.0,0.0,0.0,0.0,0.0,0.0,-3.112,-3.2027,-3.5093,-3.7087,-3.8616,-3.9978,-4.1914,-4.3758,-4.4637,-4.5889,-4.6769,-4.6024,-4.528,-4.4079,-4.1627,-3.9918,-3.8142,-3.5673,0.0,-3.3829,-3.3102,-3.481,-3.7151,-3.9571,0.0,-4.5382,-4.8562,-4.9627,-5.0405,-5.1268,-5.1454,-5.1522,-5.1522,-5.1522,-5.1775,-5.2418,-5.2469,-5.2469,-5.2469,-5.3129,-5.3501,-5.3501,-5.3501,-5.3162,-5.2469,-5.1082,-5.0338,-5.0236,-4.9509,-4.9086,-4.9001,-4.9001,-4.9001,-4.897,-4.9001,-4.9001,-4.897,-4.9001,-4.8548,-4.7713,-4.6713,-4.5838,-4.5026,-4.3983,-4.3598,-4.3598,0.0,0.0,0.0,0.0,0.0,0.0,0.0,0.0,0.0,0.0,-1.7803,-1.7772,0.0,0.0,0.0,0.0,0.0,0.0,0.0,0.0,0.0,-2.0017,-1.9911,-1.9967,-2.0284,0.0,0.0,0.0,0.0,0.0,-2.1561,-2.1719,-2.2105,-2.2675,-2.2675,-2.2732,-2.274,-2.2504,-2.2183,-2.1793,-2.1562,-2.1136,-2.0626,0.0,0.0,0.0,0.0,0.0,0.0,0.0,-3.3621,-3.605,-3.7855,-3.9428,-4.0798,-4.166,-4.3081,-4.4671,-4.6041,-4.7056,-4.7547,-4.6786,-4.6041,-4.4604,-4.1076,-3.9157,0.0,0.0,0.0,-3.1546,-3.0818,-3.2493,-3.5131,-3.8616,0.0,0.0,0.0,0.0,-5.0591,0.0,0.0,0.0,0.0,0.0,0.0,0.0,-5.3298,-5.3298,-5.3298,-5.3433,-5.3501,-5.3501,-5.3501,-5.3433,-5.3298,-5.2384,-5.1623,-5.1014,-5.0253,-4.9593,-4.9001,-4.9001,-4.8956,-4.8832,-4.8956,0.0,-4.8832,-4.894,-4.8408,-4.739,-4.6622,-4.5671,-4.4696,-4.3876,-4.3598,-4.3598,0.0,0.0,0.0,0.0,0.0,0.0,0.0,-1.7518,-1.8222,-1.9567,-1.9746,-1.9645,-1.9256,-1.8912,-1.8972,0.0,0.0,0.0,0.0,0.0,0.0,0.0,0.0,-1.9884,0.0,0.0,0.0,0.0,0.0,0.0,0.0,0.0,0.0,0.0,0.0,0.0,0.0,0.0,0.0,0.0,0.0,0.0,0.0,0.0,0.0,0.0,0.0,0.0,0.0,0.0,-3.2121,-3.6135,-3.9174,-4.0629,-4.1424,-4.254,-4.3961,-4.5399,-4.6498,-4.7614,-4.8206,-4.7073,-4.5957,-4.4045,-3.9918,0.0,0.0,0.0,0.0,-2.9685,-2.8535,0.0,0.0,0.0,0.0,0.0,0.0,0.0,0.0,0.0,0.0,0.0,0.0,0.0,0.0,0.0,-5.3501,-5.3501,-5.3501,-5.3501,-5.3501,-5.3501,-5.3501,-5.3501,-5.3501,-5.2334,-5.1555,-5.12,-5.0067,-4.9325,-4.8894,-4.8894,-4.8784,-4.8658,-4.8704,-4.8721,-4.8658,-4.8704,-4.844,-4.7847,-4.665,-4.5877,-4.5275,-4.4072,-4.3598,-4.3598,0.0,0.0,0.0,0.0,0.0,0.0,0.0,-1.8476,-1.945,-2.0932,-2.1455,-2.1291,-2.0247,-1.9525,-1.9286,0.0,0.0,0.0,0.0,0.0,0.0,0.0,0.0,0.0,0.0,0.0,0.0,0.0,0.0,0.0,0.0,0.0,0.0,0.0,0.0,0.0,0.0,0.0,0.0,0.0,0.0,0.0,0.0,0.0,0.0,0.0,0.0,0.0,0.0,0.0,-2.9676,-3.3846,-3.8345,-4.0324,-4.1187,-4.2344,-4.4012,-4.5635,-4.6363,-4.753,-4.8257,-4.709,-4.5551,-4.3166,-3.8684,-3.5893,0.0,0.0,-2.862,-2.8197,-2.7131,0.0,0.0,0.0,0.0,0.0,0.0,0.0,0.0,0.0,0.0,0.0,0.0,0.0,0.0,0.0,-5.3501,-5.3501,-5.3501,-5.3501,-5.3501,-5.3501,-5.3501,-5.3501,-5.3501,-5.2147,-5.1369,-5.1168,-4.9864,-4.9092,-4.8832,-4.8801,-4.8707,-4.8515,-4.8515,-4.8483,-4.8452,-4.8483,-4.8483,-4.8269,-4.6708,-4.6079,-4.5834,-4.4188,-4.3598,-4.3598,0.0,0.0,0.0,0.0,0.0,0.0,0.0,-1.9166,-2.0307,-2.2269,-2.2044,-2.165,-2.153,-2.0932,-2.0303,0.0,0.0,0.0,0.0,0.0,0.0,0.0,0.0,0.0,0.0,0.0,0.0,0.0,0.0,0.0,0.0,0.0,0.0,0.0,0.0,0.0,0.0,0.0,0.0,0.0,0.0,0.0,0.0,0.0,0.0,0.0,0.0,0.0,0.0,0.0,0.0,-2.9193,-3.3694,-3.7472,-4.0231,-4.0375,0.0,0.0,-4.5602,-4.6397,-4.6955,-4.6819,-4.5145,-4.2354,-3.7905,0.0,0.0,-2.8686,-2.7385,-2.7063,-2.7604,-2.8586,0.0,0.0,0.0,-3.8531,0.0,0.0,0.0,0.0,0.0,0.0,0.0,0.0,0.0,0.0,-5.3501,-5.3501,-5.3501,-5.3501,-5.3501,-5.3501,-5.3501,-5.3501,-5.3501,-5.2638,-5.186,-5.12,-5.0388,-4.9644,-4.8987,-4.8863,-4.8707,-4.8515,-4.8515,-4.8388,0.0,-4.842,-4.8388,-4.8077,-4.6676,-4.6001,-4.5647,-4.4158,-4.3598,-4.3598,0.0,0.0,0.0,0.0,0.0,0.0,-1.8508,-1.9271,-2.0427,-2.2433,-2.2463,-2.2298,-2.2298,-2.1695,-2.0872,-1.9798,0.0,0.0,0.0,0.0,0.0,0.0,0.0,0.0,0.0,0.0,0.0,0.0,0.0,0.0,0.0,0.0,0.0,0.0,0.0,0.0,0.0,0.0,0.0,0.0,0.0,0.0,0.0,0.0,0.0,0.0,0.0,0.0,0.0,0.0,0.0,0.0,-2.9981,-3.3051,0.0,0.0,-4.1221,-4.3498,-4.4705,-4.5889,-4.6583,-4.5715,-4.4096,-4.1576,-3.711,0.0,-3.1799,-2.8483,-2.7198,-2.6793,-2.708,-2.7774,-2.9059,-3.1461,-3.273,-3.4979,-3.9478,0.0,0.0,0.0,0.0,0.0,0.0,0.0,0.0,-5.3501,-5.3501,-5.3501,-5.3501,-5.3501,-5.3501,-5.3501,-5.3501,-5.3501,-5.3501,-5.2266,-5.1505,-5.12,-4.9999,-4.9227,-4.8863,-4.869,-4.8532,-4.8324,-4.8244,-4.7886,0.0,-4.7439,-4.7439,-4.7207,-4.575,-4.5434,-4.5616,-4.4128,-4.3325,-4.3005,0.0,0.0,0.0,0.0,0.0,-1.716,-1.8508,-1.9271,-2.0352,-2.2164,-2.2403,-2.2403,-2.2403,-2.1819,-2.1021,-2.0079,-1.9813,0.0,0.0,0.0,0.0,0.0,0.0,0.0,0.0,0.0,0.0,0.0,0.0,0.0,0.0,0.0,0.0,0.0,0.0,0.0,0.0,0.0,0.0,0.0,0.0,0.0,0.0,0.0,0.0,0.0,0.0,0.0,0.0,0.0,0.0,0.0,0.0,0.0,0.0,0.0,-3.9394,-4.1644,-4.3166,-4.4502,-4.5263,-4.4434,-4.2956,-4.0527,0.0,0.0,-3.1396,-2.8128,-2.7063,-2.6691,-2.6691,-2.7131,-2.8043,-2.9802,-3.0903,-3.3017,-3.7313,0.0,0.0,0.0,0.0,0.0,0.0,0.0,-5.3501,-5.3501,-5.3501,-5.3501,-5.3501,-5.3501,-5.3501,-5.3501,-5.3501,-5.3501,-5.3501,-5.1978,-5.1185,-5.1168,-4.9712,-4.8925,-4.8769,-4.8595,-4.8388,-4.8195,-4.8049,-4.7555,0.0,-4.6811,-4.6673,-4.632,-4.4855,-4.4641,-4.4998,-4.376,-4.2881,-4.2317,0.0,0.0,0.0,0.0,0.0,0.0,-1.8508,-1.9271,-2.0187,-2.153,-2.171,-2.171,-2.171,-2.1111,-2.0703,-2.0688,-2.0079,0.0,0.0,0.0,0.0,0.0,0.0,0.0,0.0,0.0,0.0,0.0,0.0,0.0,0.0,0.0,0.0,0.0,0.0,0.0,0.0,0.0,0.0,0.0,0.0,0.0,0.0,0.0,0.0,0.0,0.0,0.0,0.0,0.0,0.0,0.0,0.0,0.0,0.0,0.0,-3.6671,-3.936,-4.0832,-4.1779,-4.2523,-4.325,-4.1745,-3.9148,0.0,-3.3359,-3.1244,-2.7469,-2.6725,-2.6691,-2.6691,-2.6725,-2.7452,-2.9736,-3.1326,-3.3613,-3.7381,0.0,0.0,0.0,0.0,0.0,0.0,0.0,-5.3501,-5.3501,-5.3501,0.0,-5.3501,-5.3501,-5.3501,-5.3501,-5.3501,-5.3501,-5.3501,-5.1978,-5.1185,-5.1168,-4.9712,-4.8925,-4.8769,-4.8595,-4.8388,-4.8195,-4.8049,-4.7555,0.0,-4.6811,-4.6359,-4.5555,-4.4164,-4.3611,-4.354,-4.288,-4.2142,-4.1624,0.0,0.0,0.0,0.0,0.0,0.0,0.0,-1.8597,-1.9495,-2.0842,-2.1021,-2.1201,-2.165,-2.1111,-2.0703,-2.0703,-2.0094,0.0,0.0,0.0,0.0,0.0,0.0,0.0,0.0,0.0,-2.0951,-2.1478,-2.2119,-2.2435,0.0,0.0,0.0,0.0,0.0,0.0,0.0,0.0,0.0,0.0,0.0,0.0,0.0,0.0,0.0,0.0,0.0,0.0,0.0,0.0,0.0,0.0,0.0,0.0,0.0,-2.9289,0.0,0.0,-3.7239,-3.8684,-3.9732,-3.8389,-3.7527,-3.6197,-3.2983,-3.1495,-3.0023,-2.7266,-2.6691,-2.6691,-2.6691,-2.6691,-2.7604,-3.0395,-3.1241,0.0,0.0,0.0,0.0,0.0,0.0,0.0,0.0,0.0,-5.3501,-5.3501,-5.3501,-5.3501,-5.3501,-5.3501,-5.3501,-5.3501,-5.3501,-5.3247,-5.2689,-5.1594,-5.0819,-5.0298,-4.9192,-4.8354,-4.777,-4.7605,-4.7187,-4.6606,-4.648,-4.5969,-4.5243,-4.5243,-4.5095,-4.4747,-4.3345,-4.3122,-4.3437,-4.2279,-4.1393,-4.0839,0.0,0.0,0.0,0.0,0.0,0.0,0.0,-1.7893,-1.8715,-1.9791,-2.0168,-2.0587,-2.1261,-2.0722,-2.0423,-2.0673,-2.0094,0.0,0.0,0.0,0.0,0.0,0.0,0.0,0.0,-2.0363,-2.1295,-2.2489,-2.3149,-2.3756,-2.4251,-2.3996,0.0,0.0,0.0,0.0,0.0,0.0,0.0,0.0,0.0,0.0,0.0,0.0,0.0,0.0,0.0,0.0,0.0,0.0,0.0,0.0,0.0,0.0,0.0,0.0,-2.9536,-3.2963,0.0,-3.6011,-3.7026,-3.5887,-3.5177,-3.4129,-3.1749,-3.0412,-2.9073,-2.6925,-2.659,-2.6657,-2.6505,-2.6607,-2.752,-2.9974,-3.0835,-3.2408,0.0,0.0,0.0,0.0,0.0,0.0,0.0,-5.2993,-5.3501,-5.3501,-5.3501,-5.3501,-5.3501,-5.3213,-5.3061,-5.3061,-5.3061,-5.2774,-5.2217,-5.1124,-5.0319,-4.9784,-4.8916,-4.8048,-4.7222,-4.7135,-4.6638,-4.5809,-4.5733,-4.5258,0.0,-4.451,-4.4335,-4.3906,-4.2552,-4.2312,-4.2647,-4.1541,-4.0668,-4.0111,0.0,0.0,0.0,0.0,0.0,0.0,0.0,-1.7279,-1.7938,-1.8612,-1.9271,-1.9947,-2.0572,-2.0064,-1.9944,-2.0569,0.0,0.0,0.0,0.0,0.0,0.0,0.0,0.0,0.0,-2.0408,-2.1749,-2.3797,-2.4558,-2.5597,-2.6832,-2.6275,-2.4875,-2.2808,0.0,0.0,0.0,0.0,0.0,0.0,0.0,0.0,0.0,0.0,0.0,0.0,0.0,0.0,0.0,0.0,0.0,0.0,0.0,0.0,0.0,0.0,0.0,0.0,0.0,-3.3499,0.0,0.0,-3.4044,-3.2692,-3.1255,-2.9869,0.0,-2.6456,-2.6367,-2.6589,-2.6374,-2.6587,-2.7368,-2.9179,-3.0584,0.0,0.0,0.0,0.0,0.0,0.0,0.0,-5.0338,-5.2266,-5.3501,-5.3501,-5.3501,-5.3501,-5.3501,-5.2739,-5.2267,-5.2234,-5.2099,-5.1982,-5.1866,-5.0505,-4.9653,-4.9325,-4.8641,-4.782,-4.6931,-4.6931,-4.641,0.0,-4.5515,-4.511,-4.4396,-4.4396,-4.395,-4.317,-4.1893,-4.1422,-4.1333,-4.0685,-3.9985,-3.9481,0.0,0.0,0.0,0.0,0.0,0.0,0.0,0.0,0.0,0.0,-1.9271,-1.9768,-1.9914,-1.9798,-1.9768,0.0,0.0,0.0,0.0,0.0,0.0,0.0,0.0,0.0,0.0,-2.0857,-2.2179,-2.3653,-2.5347,-2.6606,-2.7425,-2.7775,-2.6596,-2.4111,-2.346,-2.1859,0.0,0.0,0.0,0.0,0.0,0.0,0.0,0.0,0.0,0.0,0.0,-2.1308,0.0,0.0,0.0,0.0,0.0,0.0,0.0,0.0,-2.3733,-2.4212,-2.6742,0.0,-3.0808,-2.9507,-2.9612,-2.9694,0.0,-2.7877,-2.7251,-2.5905,0.0,-2.6726,-2.8398,-2.8079,-2.8973,-3.3355,-3.3863,-3.4759,0.0,0.0,0.0,0.0,0.0,-5.2706,-5.2706,-5.3196,-5.3501,-5.3501,-5.3501,-5.3501,-5.3501,-5.2739,-5.2051,-5.1476,-5.0207,-4.9509,-4.9491,-4.9042,-4.814,-4.6778,-4.6493,-4.5917,-4.5132,-4.5132,-4.4646,-4.3849,-4.3849,-4.3771,-4.3591,-4.3591,-4.3472,-4.317,-4.1893,-4.1422,-4.1257,-4.0106,-3.9553,-3.9409,0.0,0.0,0.0,0.0,0.0,0.0,0.0,0.0,0.0,0.0,0.0,0.0,0.0,0.0,0.0,0.0,0.0,0.0,0.0,0.0,0.0,0.0,0.0,0.0,-1.9708,-2.0707,-2.2323,-2.4522,-2.5914,-2.7395,-2.8921,-2.9011,-2.7634,-2.4978,-2.3095,-2.1485,0.0,0.0,0.0,0.0,0.0,0.0,0.0,0.0,0.0,0.0,-2.0098,-2.0809,0.0,-2.2117,-2.3148,-2.42,0.0,0.0,0.0,0.0,-2.2535,-2.2669,-2.3979,-2.6608,-2.8903,-2.848,-2.8616,-2.8685,-2.8037,-2.7128,0.0,0.0,0.0,0.0,0.0,0.0,0.0,0.0,-3.3816,0.0,0.0,0.0,0.0,0.0,0.0,-5.3501,0.0,-5.3501,-5.3365,-5.2989,-5.2955,-5.2787,-5.2418,-5.1341,-5.0571,-5.0205,-4.8571,-4.7802,-4.8076,-4.7559,-4.6782,-4.5809,-4.5717,-4.5295,-4.451,-4.451,-4.4066,-4.329,-4.329,-4.329,-4.329,-4.329,-4.3125,-4.2791,-4.1773,-4.119,-4.0816,-3.9783,-3.9388,-3.9388,0.0,0.0,0.0,0.0,0.0,0.0,0.0,0.0,0.0,0.0,0.0,0.0,0.0,0.0,0.0,0.0,0.0,0.0,0.0,0.0,0.0,0.0,0.0,-1.9798,-2.0007,-2.0557,-2.2347,-2.5442,-2.6422,-2.8083,-3.0357,-3.0133,-2.8502,-2.563,-2.2512,-2.0972,0.0,0.0,0.0,0.0,0.0,0.0,0.0,0.0,0.0,0.0,0.0,0.0,0.0,-2.2432,-2.3405,-2.4117,-2.3917,0.0,0.0,0.0,0.0,0.0,-2.2967,-2.5358,-2.7906,-2.8936,-2.8952,-2.865,-2.8473,0.0,0.0,0.0,0.0,0.0,0.0,-2.8003,0.0,0.0,0.0,0.0,0.0,0.0,0.0,0.0,-5.227,0.0,-5.3314,-5.3212,-5.2868,-5.2148,-5.1996,-5.1649,-5.0938,-4.9515,-4.8641,-4.8573,-4.7063,-4.6402,-4.6759,-4.6079,-4.5593,-4.5332,-4.5332,-4.4999,-4.4335,-4.4335,-4.3966,-4.329,0.0,0.0,-4.329,-4.329,-4.294,-4.2336,-4.1677,-4.098,-4.0322,-3.9664,-3.9388,-3.9388,0.0,0.0,0.0,0.0,0.0,0.0,0.0,0.0,0.0,0.0,0.0,0.0,0.0,0.0,0.0,0.0,0.0,0.0,0.0,0.0,0.0,0.0,-1.9708,-2.0232,-2.1365,-2.1485,-2.2607,-2.4754,-2.7141,-2.8786,-2.9786,-3.133,-3.0058,-2.6348,-2.4133,-2.2248,-2.0658,0.0,0.0,0.0,0.0,0.0,0.0,0.0,0.0,0.0,0.0,0.0,0.0,-2.075,-2.1876,-2.3255,-2.212,0.0,0.0,0.0,0.0,0.0,-2.4143,-2.6143,-2.7299,-2.6651,-2.7561,-2.8367,-2.7471,-2.7005,0.0,0.0,0.0,0.0,0.0,-3.0814,-3.1838,0.0,0.0,-4.0411,0.0,0.0,-4.7715,-5.0008,0.0,-5.1753,-5.2414,-5.1878,-5.1406,-5.1294,-5.0709,-5.0213,-4.9936,-4.8562,-4.7445,-4.6639,-4.5587,-4.4799,-4.4264,-4.4723,-4.4548,-4.3669,-4.3669,-4.3591,-4.3472,-4.3472,-4.3409,-4.329,0.0,-4.329,-4.329,-4.329,-4.294,-4.2336,-4.1677,-4.098,-4.0322,-3.9664,-3.9388,-3.9388,0.0,0.0,0.0,0.0,0.0,0.0,0.0,0.0,0.0,0.0,0.0,0.0,0.0,0.0,0.0,0.0,0.0,0.0,0.0,0.0,0.0,-2.0756,-2.0767,-2.1085,-2.168,-2.2742,-2.4395,-2.6742,-2.8697,-3.0342,-3.1674,-3.0806,-2.9067,-2.6594,-2.4192,-2.2649,-2.1789,-2.107,0.0,0.0,0.0,0.0,0.0,0.0,0.0,0.0,0.0,0.0,0.0,0.0,-2.2148,-2.3179,-2.2582,0.0,0.0,0.0,0.0,0.0,-2.3055,-2.4948,-2.6425,-2.7091,-2.8975,-3.0425,-2.9581,-2.9112,0.0,0.0,0.0,0.0,0.0,0.0,-3.4097,-3.8229,0.0,-4.2091,-4.3866,-4.5649,-4.7434,0.0,0.0,-5.0656,-5.1037,-5.0729,-5.0198,-4.9379,-4.8898,-4.8435,-4.7956,-4.6815,-4.6028,-4.5616,-4.4695,-4.4035,-4.369,-4.3903,-4.3771,-4.329,-4.329,-4.329,-4.329,-4.329,-4.329,-4.329,0.0,-4.329,-4.326,-4.2955,-4.2432,-4.1796,-4.1115,-4.0442,-3.9828,-3.9493,-3.9388,-3.9388,0.0,0.0,0.0,0.0,0.0,0.0,0.0,0.0,0.0,0.0,0.0,0.0,0.0,0.0,0.0,0.0,0.0,0.0,0.0,0.0,-2.0232,-2.141,-2.1754,-2.2218,-2.2832,-2.4328,-2.6318,-2.8831,-3.0268,-3.1839,-3.3425,-3.0432,-2.8299,-2.6868,-2.4282,-2.3014,-2.2731,-2.2004,-2.1395,0.0,0.0,0.0,0.0,0.0,0.0,0.0,0.0,0.0,0.0,0.0,0.0,0.0,0.0,0.0,0.0,-2.1889,-2.1057,-2.0888,-2.2548,-2.4256,-2.6057,-2.8134,-3.0181,-3.172,-3.1828,-3.1228,-3.0755,0.0,0.0,0.0,0.0,-3.4058,0.0,-3.9277,-4.1327,-4.2893,-4.3796,-4.5409,-4.7,-4.824,-4.887,-4.9288,-4.9473,-4.9288,-4.8706,-4.7532,-4.7152,-4.6724,-4.6057,-4.5161,-4.4684,-4.4677,-4.3996,-4.3596,-4.3596,-4.3384,-4.329,-4.329,-4.329,-4.329,-4.329,-4.329,-4.329,-4.329,-4.329,-4.32,-4.306,-4.2605,-4.1916,-4.11,-4.0591,-3.9993,-3.9388,-3.9388,-3.9388,-3.9388,0.0,0.0,0.0,0.0,0.0,0.0,0.0,0.0,0.0,0.0,0.0,0.0,0.0,0.0,0.0,0.0,0.0,0.0,0.0,0.0,-2.0019,-2.0733,-2.1949,-2.3766,-2.6183,-2.6378,-2.748,-2.9532,-3.1435,-3.2751,-3.344,-3.1345,-2.934,-2.7435,-2.539,-2.3804,-2.2664,-2.1999,-2.1665,0.0,0.0,0.0,0.0,0.0,0.0,0.0,0.0,0.0,0.0,0.0,0.0,0.0,0.0,0.0,-2.3163,-2.2443,-2.175,-2.1797,-2.4374,-2.5687,-2.6795,-2.8827,-2.9489,-3.0274,-3.2705,-3.2259,0.0,-3.3812,0.0,0.0,0.0,-3.6846,-3.8708,-4.0182,-4.1652,-4.3044,-4.4361,0.0,-4.601,-4.6845,-4.6903,-4.7131,-4.789,-4.727,-4.6713,-4.6444,-4.5822,-4.5297,-4.487,-4.4176,-4.3681,-4.3448,-4.3369,-4.3329,-4.3329,-4.329,-4.329,-4.329,-4.329,-4.329,-4.329,-4.329,-4.329,-4.329,-4.329,-4.2985,-4.247,-4.2425,-4.1647,-4.0472,-4.0427,-3.9993,-3.9388,-3.9388,-3.9388,-3.9388,0.0,0.0,0.0,0.0,0.0,0.0,0.0,0.0,0.0,0.0,0.0,0.0,0.0,0.0,0.0,0.0,0.0,0.0,0.0,0.0,-2.0202,-2.1276,-2.2224,-2.3736,-2.5929,-2.7604,-2.9624,-3.2018,-3.317,-3.344,-3.2841,-3.0447,-2.8539,-2.7009,-2.4904,-2.3998,-2.3973,-2.3203,-2.2877,-2.2787,0.0,0.0,0.0,0.0,0.0,0.0,0.0,0.0,0.0,0.0,-2.1135,-2.2164,-2.1685,-2.2352,-2.3163,-2.2486,-2.1827,-2.1612,-2.304,-2.4887,-2.678,-2.8381,-3.0027,0.0,0.0,-3.4645,-3.5645,-3.7277,-3.74,0.0,0.0,0.0,-4.0043,-4.1047,-4.2325,-4.3525,-4.4486,-4.4841,-4.5264,-4.5957,-4.6021,-4.6113,-4.6392,-4.6035,-4.5607,-4.51,-4.4582,-4.4249,-4.4106,-4.3692,-4.3384,-4.329,-4.329,-4.329,-4.329,-4.329,-4.329,-4.329,-4.329,-4.329,-4.329,-4.329,-4.329,-4.3275,-4.2895,-4.262,-4.2336,-4.1512,-4.0846,-4.0367,-3.9948,-3.9634,-3.9388,-3.9388,-3.9388,-3.9388,0.0,0.0,0.0,0.0,0.0,0.0,0.0,0.0,0.0,0.0,0.0,0.0,0.0,0.0,0.0,0.0,0.0,0.0,-1.9708,-1.9708,-2.0202,-2.1335,-2.2044,-2.3385,-2.5555,-2.8008,-3.0357,-3.2542,-3.3425,-3.329,-3.2123,-2.9729,-2.8165,-2.7279,-2.5182,-2.4657,-2.5288,-2.432,-2.3924,-2.3804,-2.2517,-2.1605,0.0,0.0,0.0,0.0,0.0,0.0,0.0,0.0,-2.0916,-2.1846,-2.1804,-2.249,-2.3209,-2.2748,-2.2578,-2.2628,-2.2855,-2.4779,-2.7026,-2.8381,0.0,0.0,-3.472,-3.6353,-3.8015,-3.9801,-3.9797,-3.9351,-3.8908,0.0,0.0,0.0,-4.2746,-4.384,-4.4517,-4.461,-4.4756,-4.5218,-4.5264,-4.5264,-4.5202,-4.5086,-4.4747,-4.4173,-4.3871,-4.3651,-4.3596,-4.3384,-4.329,-4.329,-4.329,-4.329,-4.329,-4.329,-4.329,-4.329,-4.329,-4.329,-4.329,-4.329,-4.3185,-4.3,-4.259,-4.2171,-4.1707,-4.0771,-4.0277,-4.0053,-3.9589,-3.9388,-3.9388,-3.9388,-3.9388,-3.9388,0.0,0.0,0.0,0.0,0.0,0.0,0.0,0.0,0.0,0.0,0.0,0.0,0.0,0.0,0.0,0.0,0.0,0.0,-1.9708,-1.9708,-1.9989,-2.0658,-2.1335,-2.2906,-2.551,-2.7545,-2.9205,-3.0507,-3.1839,-3.2123,-3.1436,-2.9505,-2.8592,-2.8487,-2.6512,-2.5974,-2.6497,-2.5158,-2.4605,-2.4485,-2.3206,-2.2298,0.0,0.0,0.0,0.0,0.0,0.0,0.0,0.0,-2.1032,-2.1357,-2.2816,-2.3302,-2.3317,-2.3302,-2.4235,-2.5142,-2.4466,-2.5826,-2.7734,-2.9073,0.0,0.0,-3.5891,-3.703,-3.8308,-4.1047,-4.0524,-3.9521,-3.9505,-3.9521,0.0,-4.1386,-4.2709,-4.384,-4.4479,-4.461,-4.461,-4.461,-4.461,-4.4511,-4.432,-4.4281,-4.4143,-4.3729,-4.369,-4.3596,-4.329,-4.329,-4.329,-4.329,-4.329,-4.329,-4.329,-4.329,-4.329,-4.3275,-4.3275,-4.329,-4.329,-4.329,-4.297,-4.2396,-4.2396,-4.1647,-4.0397,-4.0382,-4.0008,-3.9388,-3.9388,-3.9388,-3.9388,-3.9388,-3.9388,-3.9388,0.0,0.0,0.0,0.0,0.0,0.0,0.0,0.0,0.0,0.0,0.0,0.0,0.0,0.0,0.0,0.0,0.0,0.0,-1.9708,-1.9708,-1.9798,-1.9989,-2.1081,-2.2054,-2.2832,-2.5241,-2.8053,-3.1197,-3.115,-3.0537,-2.9445,-2.8382,-2.7634,-2.7156,-2.6557,-2.6153,-2.5839,-2.4963,-2.4605,-2.4485,-2.3206,-2.2583,0.0,0.0,0.0,0.0,0.0,0.0,0.0,0.0,0.0,0.0,-2.1538,-2.306,-2.4441,-2.3009,-2.3887,-2.505,-2.3917,-2.5795,0.0,-2.9171,0.0,0.0,0.0,-3.88,0.0,0.0,-4.2684,-4.2078,-4.1155,-4.137,0.0,-4.2248,-4.3017,-4.3765,-4.4289,-4.4511,-4.4549,-4.4396,-4.4496,-4.4511,-4.432,-4.4166,-4.3988,-4.3729,-4.3518,-4.3384,-4.329,-4.329,-4.329,-4.329,-4.329,-4.312,-4.2656,-4.2656,-4.2417,-4.1953,-4.1953,-4.2432,-4.329,-4.2865,-4.259,-4.2351,-4.1422,-4.0756,-4.0367,-3.9903,-3.9589,-3.9388,-3.9388,-3.9388,-3.9388,-3.9388,-3.9388,-3.9388,0.0,0.0,0.0,0.0,0.0,0.0,0.0,0.0,0.0,0.0,-1.9708,0.0,0.0,0.0,0.0,0.0,0.0,0.0,0.0,-1.9708,-1.9828,-2.0094,-2.0872,-2.1799,-2.2832,-2.4926,-2.7036,-2.9149,-2.9349,-2.9004,-2.8188,-2.809,-2.7955,-2.7794,-2.7794,-2.741,-2.6737,-2.5794,-2.5232,-2.4903,-2.3879,-2.3295,-2.2942,0.0,0.0,0.0,0.0,0.0,0.0,0.0,0.0,0.0,-2.0993,-2.2279,-2.3564,-2.319,-2.4348,-2.5795,-2.6057,-2.7827,0.0,-3.1782,-3.4383,-3.7138,-3.957,0.0,0.0,0.0,-4.3503,-4.2928,-4.2479,-4.2421,0.0,-4.294,-4.3503,-4.3975,-4.4259,-4.4396,-4.4396,-4.4205,-4.4358,-4.4358,-4.4104,-4.3949,-4.3793,-4.3557,-4.3384,-4.329,-4.329,-4.329,-4.317,-4.2955,-4.294,-4.2641,-4.2021,-4.2006,-4.1811,-4.1422,-4.1422,-4.1788,-4.2536,-4.2147,-4.1871,-4.1572,-4.0472,-4.0008,-3.9978,-3.9589,-3.9388,-3.9388,-3.9388,-3.9388,-3.9388,-3.9388,-3.9388,-3.9388,0.0,0.0,0.0,0.0,0.0,0.0,0.0,0.0,0.0,0.0,-1.9708,0.0,0.0,0.0,0.0,0.0,0.0,0.0,0.0,0.0,-1.9989,-2.0658,-2.0868,-2.2123,-2.4649,-2.5839,-2.6123,-2.5501,-2.6904,-2.7535,-2.7435,-2.8231,-2.8925,-2.9517,-2.9517,-2.9086,-2.8323,-2.6916,-2.5944,-2.5285,-2.4664,-2.4022,-2.337,-2.2823,0.0,0.0,0.0,0.0,0.0,0.0,0.0,0.0,-2.0962,-2.1256,-2.1629,-2.3477,-2.5149,-2.6919,-2.9356,-3.0658,0.0,-3.5537,-3.6676,0.0,-4.174,-4.3156,-4.3833,-4.4486,0.0,-4.272,-4.3541,-4.3008,-4.2735,-4.3519,-4.3998,-4.4281,-4.4243,-4.4243,-4.4205,-4.3988,-4.4127,-4.4127,-4.3729,-4.369,-4.3596,-4.3329,-4.329,-4.3275,-4.32,-4.32,-4.294,-4.2336,-4.2306,-4.1991,-4.1332,-4.1294,-4.1265,-4.1205,-4.1205,-4.1205,-4.1205,-4.1265,-4.0935,-4.0277,-3.9679,-3.9388,-3.9388,-3.9388,-3.9388,-3.9388,-3.9388,-3.9388,-3.9388,-3.9388,-3.9388,-3.9388,0.0,0.0,0.0,0.0,0.0,0.0,0.0,0.0,0.0,0.0,0.0,0.0,0.0,0.0,0.0,0.0,0.0,0.0,0.0,0.0,-1.9989,-2.0658,-2.2173,-2.3744,-2.5337,-2.5143,-2.4963,-2.4814,-2.5668,-2.6057,-2.6063,-2.7255,-2.8184,-2.8816,-2.8816,-2.8143,-2.6901,-2.5031,-2.3879,-2.3317,-2.3182,-2.2697,-2.2084,-2.1964,-2.141,0.0,0.0,0.0,0.0,0.0,0.0,0.0,-2.0798,-2.1763,-2.2513,-2.2079,-2.3999,-2.6374,-2.7065,-2.8904,0.0,0.0,-3.8123,-4.0863,-4.2294,-4.3414,-4.4251,-4.4556,-4.4205,-4.3975,-4.4341,-4.3983,-4.3747,-4.4075,-4.4113,-4.4026,-4.3832,-4.3949,-4.3988,-4.3808,-4.3949,-4.3988,-4.3729,-4.369,-4.3596,-4.3329,-4.329,-4.3105,-4.2635,-4.2605,-4.2306,-4.1647,-4.1632,-4.1265,-4.0621,-4.0606,-4.0352,-3.9843,-3.9843,-3.9843,-3.9858,-4.0382,-4.0247,-3.9634,-3.9448,-3.9388,-3.9388,-3.9388,-3.9388,-3.9388,-3.9388,-3.9388,-3.9388,-3.9388,-3.9388,-3.9388,0.0,0.0,0.0,0.0,0.0,0.0,0.0,0.0,0.0,0.0,0.0,0.0,0.0,0.0,0.0,0.0,0.0,0.0,0.0,-1.9708,-2.0142,-2.1141,-2.3035,-2.4118,-2.4208,-2.4163,-2.3984,-2.3699,-2.4044,-2.4852,-2.6123,-2.7805,-2.8929,-2.952,-2.952,-2.8427,-2.6482,-2.4807,-2.3714,-2.3137,-2.32,-2.302,-2.269,-2.242,-2.1663,-2.0659,-1.9984,0.0,0.0,0.0,0.0,0.0,0.0,0.0,-2.1542,-2.1988,-2.3376,-2.528,-2.7617,0.0,0.0,-3.5722,0.0,-4.1658,-4.1925,-4.2919,-4.3846,-4.3959,-4.4052,-4.4166,-4.4281,-4.4127,-4.4011,-4.4127,-4.3988,-4.3832,-4.3729,-4.3808,-4.3754,-4.3557,-4.3714,-4.3754,-4.3518,-4.3518,-4.3343,-4.2895,-4.2865,-4.2581,-4.1976,-4.1931,-4.1632,-4.0935,-4.0905,-4.0591,-3.9933,-3.9933,-3.9768,-3.9388,-3.9388,-3.9388,-3.9388,-3.9768,-3.9738,-3.9388,-3.9388,-3.9388,-3.9388,-3.9388,-3.9388,-3.9388,-3.9388,-3.9388,-3.9388,-3.9388,-3.9388,-3.9388,0.0,0.0,0.0,0.0,0.0,0.0,0.0,0.0,0.0,0.0,0.0,0.0,0.0,0.0,0.0,0.0,0.0,0.0,0.0,-1.9813,-2.0408,-2.1635,-2.3349,-2.3834,-2.2882,-2.3236,-2.3236,-2.2868,-2.2868,-2.426,-2.6976,-2.8591,-2.9751,-3.0492,-3.0268,-2.8846,-2.6497,-2.4918,-2.3812,-2.3101,-2.3221,-2.3197,-2.3062,-2.2733,-2.1756,-2.055,-1.9975,-1.978,-1.978,-1.978,0.0,0.0,0.0,0.0,-2.0147,-2.194,-2.2726,-2.3891,-2.8106,0.0,-3.2621,-3.6932,-3.9711,0.0,-4.1326,-4.2218,-4.3067,-4.3067,-4.3556,-4.3988,-4.3988,-4.3988,-4.3949,-4.3949,-4.3754,-4.3636,-4.3636,-4.3636,-4.3512,-4.318,-4.3442,-4.3467,-4.3015,-4.3065,-4.2895,-4.2276,-4.2231,-4.1946,-4.125,-4.1205,-4.0905,-4.0247,-4.0232,-3.9963,-3.9424,-3.9388,-3.9388,-3.9388,-3.9388,-3.9388,-3.9388,-3.9388,-3.9388,-3.9388,-3.9388,-3.9388,-3.9388,-3.9388,-3.9388,-3.9388,-3.9388,-3.9388,-3.9388,-3.9388,-3.9388,-3.9388,0.0,0.0,0.0,0.0,0.0,0.0,0.0,0.0,0.0,0.0,0.0,-1.9708,-1.9708,-1.9708,0.0,0.0,0.0,0.0,-1.9708,0.0,0.0,-2.1665,-2.2523,-2.3122,-2.3475,-2.3062,-2.3047,-2.3475,-2.3475,-2.5136,-2.8323,-2.8019,-2.8813,-3.0447,-2.9355,-2.8008,-2.6437,-2.3991,-2.2218,-2.1077,-2.1096,-2.0771,-2.031,-2.082,-2.0535,-1.9846,-1.9756,-1.9708,-1.9708,-1.9708,-1.9708,0.0,0.0,0.0,0.0,-2.027,-2.1201,-2.251,0.0,0.0,-3.3897,0.0,-3.9344,-4.0762,0.0,0.0,-4.2158,0.0,-4.316,-4.3988,-4.3988,-4.3871,-4.3729,-4.3729,-4.3503,-4.3344,-4.3344,-4.3344,-4.3135,-4.2605,-4.2985,-4.2895,-4.1743,-4.2201,-4.2261,-4.1602,-4.1504,-4.122,-4.0561,-4.0531,-4.0232,-3.9574,-3.9508,-3.9514,-3.9388,-3.9388,-3.9388,-3.9388,-3.9388,-3.9388,-3.9388,-3.9388,-3.9388,-3.9388,-3.9388,-3.9388,-3.9388,-3.9388,-3.9388,-3.9388,-3.9388,-3.9388,-3.9388,-3.9388,-3.9388,-3.9388,0.0,0.0,0.0,0.0,0.0,0.0,0.0,0.0,0.0,0.0,0.0,-1.9708,-1.9708,-1.9708,0.0,0.0,0.0,0.0,-1.9708,-2.0333,0.0,0.0,-2.1784,-2.2084,-2.1994,-2.1724,-2.1889,-2.2532,-2.2158,-2.4253,-2.8592,-2.8293,-2.9594,-3.2108,-3.0417,-2.8727,-2.6971,0.0,-2.2149,-2.1231,-2.0929,-2.1503,-2.244,-2.1291,-2.1351,-2.1804,-2.0302,-1.9762,-1.9744,-1.9708,-1.9726,-1.9744,-1.9744,0.0,0.0,0.0,-2.056,0.0,-2.575,-2.96,-3.3342,0.0,-3.8515,-3.9841,-3.9993,0.0,-4.1438,-4.1438,-4.2122,-4.2659,-4.256,-4.256,-4.268,-4.2941,-4.2569,-4.2372,-4.2731,-4.2476,-4.2132,-4.1886,-4.2058,-4.2013,-4.1429,-4.1677,-4.1572,-4.0876,-4.0831,-4.0546,-3.9888,-3.9843,-3.9709,-3.9388,-3.9388,-3.9388,-3.9388,-3.9388,-3.9388,-3.9388,-3.9388,-3.9388,-3.9388,-3.9388,-3.9388,-3.9388,-3.9388,-3.9388,-3.9388,-3.9388,-3.9388,-3.9388,-3.9388,-3.9388,-3.9388,-3.9388,-3.9388,-3.9388,0.0,0.0,0.0,0.0,0.0,0.0,0.0,0.0,0.0,0.0,0.0,0.0,-1.9708,0.0,0.0,0.0,0.0,0.0,-1.9708,0.0,0.0,0.0,0.0,-2.0961,-2.0468,-2.0453,-2.0782,-2.1455,-2.1126,-2.358,-2.8607,-2.8771,-3.0702,-3.3918,-3.2078,-2.9894,-2.742,0.0,0.0,-2.2179,-2.1964,-2.2947,-2.4371,-2.3145,-2.3562,-2.4424,-2.1729,-2.0768,0.0,0.0,0.0,0.0,0.0,0.0,0.0,0.0,0.0,0.0,0.0,0.0,-3.1301,-3.4688,-3.6892,-3.8281,0.0,0.0,-4.041,0.0,-4.0794,-4.1062,-4.0913,-4.1333,-4.1799,-4.2104,-4.1737,-4.1587,-4.2081,-4.1737,-4.1324,-4.1145,-4.128,-4.1287,-4.0905,-4.104,-4.0861,-4.0202,-4.0157,-3.9933,-3.9454,-3.9388,-3.9388,-3.9388,-3.9388,-3.9388,-3.9388,-3.9388,-3.9388,-3.9388,-3.9388,-3.9388,-3.9388,-3.9388,-3.9388,-3.9388,-3.9388,-3.9388,-3.9388,-3.9388,-3.9388,-3.9388,-3.9388,-3.9388,-3.9388,-3.9388,-3.9388,-3.9388,0.0,0.0,0.0,0.0,0.0,0.0,0.0,0.0,0.0,0.0,0.0,0.0,-1.9708,-1.9708,-1.9708,-1.9708,0.0,0.0,0.0,0.0,0.0,0.0,0.0,0.0,-1.9753,-1.9753,-2.0079,-2.0748,-2.135,-2.4029,-2.8607,-2.9235,-3.1629,-3.534,-3.3963,-3.1195,-2.7555,0.0,0.0,0.0,0.0,-2.4206,-2.3931,-2.6327,-2.7325,-2.7046,-2.4343,0.0,0.0,0.0,0.0,0.0,0.0,0.0,-1.9708,0.0,0.0,0.0,0.0,-2.5168,0.0,-3.1786,0.0,0.0,0.0,0.0,0.0,-3.8807,-3.9193,-3.9529,-3.9529,-4.0716,-4.1648,-4.1505,-4.1399,-4.1384,-4.1467,-4.1399,-4.1145,-4.0531,-4.0995,-4.0891,-3.9649,-4.0083,-4.0172,-3.9514,-3.9433,-3.9454,-3.9388,-3.9388,-3.9388,-3.9388,-3.9388,-3.9388,-3.9388,-3.9388,-3.9388,-3.9388,-3.9388,-3.9388,-3.9388,-3.9388,-3.9388,-3.9388,-3.9388,-3.9388,-3.9388,-3.9388,-3.9388,-3.9388,-3.9388,-3.9388,-3.9388,-3.9388,-3.9388,-3.9388,0.0,0.0,0.0,0.0,0.0,0.0,0.0,0.0,0.0,0.0,0.0,0.0,0.0,-1.9708,-1.9708,-1.9708,-1.9708,0.0,0.0,0.0,0.0,0.0,0.0,0.0,0.0,-1.9708,-2.0034,-2.0703,-2.0498,-2.2562,-2.6707,-2.7809,-2.9532,-3.1719,-3.2078,-3.1507,-3.0117,-2.7255,0.0,0.0,0.0,-2.621,-2.758,-2.758,-2.8622,-2.9774,0.0,0.0,0.0,0.0,0.0,0.0,-2.0483,-2.0049,-1.9708,-1.9708,-2.0022,0.0,0.0,0.0,0.0,-2.9255,-3.1845,-3.388,-3.495,-3.6682,-3.8189,-3.8611,-3.8742,-3.8901,-3.9298,-3.9835,-4.0321,-4.0718,-4.0397,-4.0277,-4.0696,-4.0382,-4.0038,-3.9798,-3.9978,-3.9933,-3.9433,-3.9634,-3.9679,-3.9439,-3.9388,-3.9388,-3.9388,-3.9388,-3.9388,-3.9388,-3.9388,-3.9388,-3.9388,-3.9388,-3.9388,-3.9388,-3.9388,-3.9388,-3.9388,-3.9388,-3.9388,-3.9388,-3.9388,-3.9388,-3.9388,-3.9388,-3.9388,-3.9388,-3.9388,-3.9388,-3.9388,-3.9388,-3.9388,-3.9349,0.0,0.0,0.0,0.0,0.0,0.0,0.0,0.0,0.0,-2.0004,0.0,0.0,0.0,0.0,-2.0273,-2.0049,-2.0034,-1.9929,-1.9708,0.0,0.0,0.0,0.0,0.0,0.0,-1.9914,-2.0139,-2.0363,-2.0363,-2.1919,-2.4956,-2.6288,-2.7764,-2.9304,-2.9684,-3.0548,0.0,0.0,0.0,-2.7319,0.0,0.0,-3.0187,-3.0486,-3.1524,-3.2527,0.0,0.0,0.0,0.0,0.0,0.0,0.0,-2.0767,-1.9708,-1.9708,-2.0168,0.0,-2.2029,0.0,0.0,0.0,0.0,-3.1289,-3.3517,0.0,-3.6523,-3.7425,-3.7882,-3.8197,-3.8661,-3.8751,-3.9035,-3.9933,-3.9709,-3.9574,-4.0008,-3.9694,-3.9388,-3.9388,-3.9388,-3.9388,-3.9388,-3.9388,-3.9388,-3.9388,-3.9388,0.0,-3.9388,-3.9388,-3.9388,-3.9388,-3.9185,-3.9065,-3.9065,-3.8856,-3.8751,-3.8751,-3.8751,-3.8751,-3.8751,-3.8751,-3.8871,-3.9065,-3.9065,-3.92,-3.9388,-3.9388,-3.9388,-3.9388,-3.9388,-3.9388,-3.9388,-3.9388,-3.9275,-3.9005,0.0,0.0,0.0,0.0,0.0,0.0,0.0,0.0,-1.9989,-2.0643,0.0,0.0,0.0,0.0,0.0,-2.0838,-2.0763,-2.0483,-1.9783,-1.9708,0.0,0.0,0.0,0.0,-1.9738,-2.0348,-2.0363,-1.9738,-2.1006,-2.2278,-2.3535,-2.4896,-2.6621,-2.8527,-2.719,-2.8382,-3.1391,0.0,-3.0865,-2.9927,0.0,-3.1347,-3.133,0.0,0.0,0.0,-3.3365,-3.2198,0.0,-2.8648,0.0,0.0,0.0,-2.1799,-1.9738,-1.9708,-2.0183,0.0,0.0,0.0,0.0,0.0,0.0,0.0,-3.3066,0.0,-3.3724,-3.516,-3.6417,-3.73,-3.7389,-3.7404,-3.7838,-3.9155,-3.9379,-3.9394,-3.9388,-3.9388,-3.9388,-3.9388,-3.9388,-3.9388,-3.9388,-3.9388,-3.9388,-3.9388,-3.9388,-3.9388,-3.9388,-3.9394,-3.9343,-3.9328,-3.8706,-3.8362,-3.8362,-3.7734,-3.7404,-3.7404,-3.7404,-3.7404,-3.7404,-3.7404,-3.7764,-3.8362,-3.8362,-3.8751,-3.9394,-3.9373,-3.9388,-3.9388,-3.9388,-3.9388,-3.9388,-3.9388,-3.899,-3.8392,0.0,0.0,0.0,0.0,0.0,-2.1141,-2.1141,-2.1141,-2.1201,0.0,0.0,0.0,-2.1724,-2.2517,-2.2996,-2.2817,-2.2398,-2.165,-2.0498,-1.9959,-1.9708,-1.9708,-1.9708,-1.9932,-2.0423,-2.0124,-2.0124,-2.0423,-2.0303,-2.0677,-2.1525,-2.2862,-2.4305,-2.5773,-2.6333,-2.7415,-2.8722,-2.7304,0.0,-3.0652,-3.0353,-3.162,0.0,0.0,0.0,0.0,0.0,-3.534,-3.4143,0.0,-3.0357,-2.7829,0.0,0.0,0.0,-1.9824,0.0,0.0,-2.0636,0.0,0.0,0.0,0.0,0.0,0.0,0.0,0.0,-3.338,-3.3963,-3.4592,-3.6971,-3.7404,-3.7524,-3.7898,-3.8362,-3.8856,-3.9313,-3.9388,-3.9388,-3.9388,-3.9388,-3.9388,-3.9388,-3.9388,-3.9388,0.0,-3.9388,-3.9388,-3.9388,-3.8945,-3.8452,-3.7973,-3.7778,-3.7689,-3.7689,-3.7494,-3.7404,-3.7404,-3.7404,-3.7404,-3.7404,-3.7404,-3.7509,-3.7689,-3.7689,-3.8063,-3.8706,-3.9215,-3.9388,-3.9388,-3.9388,-3.9388,-3.9388,-3.9388,-3.899,-3.8317,0.0,0.0,0.0,0.0,0.0,-2.2592,-2.2877,-2.2921,-2.3011,0.0,0.0,0.0,-2.3729,-2.4911,-2.5345,-2.4507,-2.3864,-2.2817,-2.1231,-2.0498,-1.9989,-1.9708,-1.9959,-2.0303,-2.0688,-2.0876,-2.0857,-2.0703,-2.0587,-2.0438,-2.0303,-2.1365,-2.2283,-2.3083,-2.3811,-2.4875,-2.6012,-2.4272,0.0,0.0,-3.1423,0.0,0.0,-3.6214,-3.7,0.0,0.0,0.0,-3.6178,-3.5385,-3.3021,0.0,0.0,0.0,0.0,0.0,0.0,0.0,0.0,0.0,0.0,0.0,0.0,0.0,0.0,-2.7215,0.0,0.0,-3.2587,-3.3185,-3.537,-3.5998,-3.6282,-3.6567,-3.7165,-3.7823,-3.8497,-3.8586,-3.8586,-3.8586,-3.8586,-3.8586,-3.8586,-3.8586,-3.8586,-3.8586,-3.8586,-3.8586,-3.8586,-3.8197,-3.7808,-3.7419,-3.7165,-3.703,-3.703,-3.6746,-3.6611,-3.6611,-3.6611,-3.6611,-3.6611,-3.6611,-3.6761,-3.703,-3.703,-3.7389,-3.8003,-3.8407,-3.8916,-3.9394,-3.9095,-3.917,-3.9388,-3.9388,-3.8811,-3.7928,0.0,0.0,-2.2143,-2.2897,-2.3541,-2.4178,-2.4933,-2.4978,-2.5187,0.0,-2.5516,-2.5681,-2.7096,-2.8188,-2.8098,-2.6318,-2.5322,-2.3992,-2.2039,-2.1156,-2.0408,-1.9738,-2.0348,-2.0733,-2.0808,-2.1984,-2.1994,-2.0808,-2.1335,-2.0932,-1.9708,-2.0318,-2.064,-2.0768,-2.064,-2.1694,-2.351,-2.2621,0.0,-3.0289,-3.296,-3.4451,0.0,0.0,-3.8038,-3.7704,-3.8302,-3.8123,-3.7614,-3.7464,-3.4859,0.0,0.0,0.0,0.0,0.0,-2.3879,0.0,0.0,0.0,0.0,0.0,0.0,0.0,-2.7899,-2.75,-2.723,0.0,-3.1316,-3.2018,-3.2901,-3.362,-3.4249,-3.4756,-3.5579,-3.6447,-3.7285,-3.7404,-3.7404,-3.7404,-3.7404,-3.7404,-3.7404,-3.7404,-3.7404,-3.7404,-3.7404,-3.7375,-3.73,-3.73,-3.727,-3.7195,-3.6671,-3.6372,-3.6372,-3.5804,-3.5504,-3.5504,-3.5504,-3.5504,-3.5504,-3.5504,-3.5833,-3.6372,-3.6372,-3.6731,-3.73,-3.7225,-3.7988,-3.914,-3.8601,-3.8721,-3.9215,-3.9239,-3.8452,-3.73,0.0,-2.2802,-2.361,-2.4822,-2.5585,-2.6422,-2.7634,-2.735,-2.7465,-2.8678,-2.8697,-2.931,-3.115,-3.0627,-2.9983,-2.9579,-2.75,-2.536,-2.3355,-2.163,-2.0408,-1.9738,-2.0348,-2.0942,-2.1485,-2.1754,-2.1754,-2.15,-2.1111,-2.0483,-1.9708,-1.9842,-1.9902,-1.9921,-1.9902,-2.0749,-2.232,-2.4225,0.0,-2.9321,-3.0437,0.0,-3.6441,-3.7462,-3.8302,-3.905,-3.917,-3.914,-3.882,-3.7778,-3.5489,-3.2721,0.0,0.0,0.0,0.0,0.0,-2.7016,-2.6102,0.0,0.0,0.0,0.0,0.0,-2.3744,-2.4163,-2.5322,0.0,-2.6871,-2.7649,-2.9924,-3.0851,-3.115,-3.0791,-3.2617,-3.4861,-3.709,-3.7404,-3.7404,-3.7404,-3.7404,-3.7404,-3.7404,-3.7404,-3.7404,-3.7404,-3.7404,-3.7195,-3.6686,-3.6671,-3.6432,-3.5893,-3.5759,-3.5699,-3.5699,-3.5564,-3.5504,-3.5504,-3.5504,-3.5504,-3.5504,-3.5504,-3.5579,-3.5699,-3.5699,-3.6073,-3.6626,-3.6088,-3.6641,-3.7838,-3.8242,-3.8153,-3.7868,-3.8392,-3.7778,-3.6671,0.0,-2.3714,-2.4911,-2.5914,-2.6931,-2.8143,-2.9819,-2.9774,-3.0028,-3.136,-3.1853,-3.2153,-3.2482,-3.2213,-3.1734,-3.1047,-2.8921,-2.6737,-2.4732,-2.2772,-2.1246,-2.0243,-2.0842,-2.1515,-2.2194,-2.2488,-2.2503,-2.2209,-2.153,-2.0677,-1.9708,-1.9708,-2.0247,-2.116,-2.0498,-2.149,-2.3734,0.0,-2.6423,-2.9219,-3.1806,0.0,-3.7327,-3.8582,-3.9391,-3.9903,-3.9903,-3.9694,-3.917,-3.7509,-3.6073,0.0,0.0,-3.1285,-3.0582,0.0,-2.8517,-2.9265,0.0,0.0,0.0,-2.735,0.0,0.0,0.0,-2.4859,-2.5173,-2.7186,-2.6527,-2.6318,-2.8667,0.0,-2.9445,-2.9146,-3.13,-3.323,-3.3873,-3.5415,-3.6462,-3.6462,-3.6462,-3.6462,-3.6462,-3.6462,-3.6462,-3.6462,-3.6462,-3.6327,-3.6013,-3.5998,-3.5848,-3.5519,-3.5504,-3.5504,-3.5504,-3.5504,-3.5504,-3.5504,-3.5504,-3.5504,-3.5504,-3.5504,-3.5504,-3.5504,-3.5504,-3.5684,-3.5968,-3.5639,-3.5893,-3.6522,-3.718,-3.7419,-3.7449,-3.7778,-3.73,-3.6492,0.0,-2.4343,-2.5779,-2.6303,-2.7724,-2.937,-3.1047,-3.1421,-3.2019,-3.3499,-3.4399,-3.4502,-3.3559,-3.3709,-3.3559,-3.2706,-3.0494,-2.8427,-2.6677,-2.4477,-2.2712,-2.1495,-2.1739,-2.2188,-2.2868,-2.3236,-2.3056,-2.2313,-2.1769,-2.0887,-1.9708,-1.9842,-2.0831,-2.2478,-2.1635,-2.2972,0.0,0.0,0.0,-3.0255,0.0,-3.623,-3.721,-3.9298,-4.0081,-4.0053,-4.0307,-4.0053,-3.932,-3.7479,-3.6776,-3.6252,-3.3844,-3.3455,0.0,0.0,0.0,0.0,0.0,0.0,0.0,0.0,0.0,-2.8053,0.0,0.0,0.0,-2.8188,0.0,0.0,0.0,0.0,0.0,0.0,0.0,0.0,0.0,-3.2512,0.0,-3.4547,-3.4891,-3.5115,-3.5115,-3.5011,-3.5085,-3.5474,-3.5145,-3.51,-3.5489,-3.5504,-3.5504,-3.5504,-3.5504,-3.5504,-3.5504,-3.5504,-3.5504,-3.5504,-3.5504,-3.5504,-3.5504,-3.5504,-3.5504,-3.5504,-3.5504,-3.5504,-3.5504,-3.5504,-3.5504,-3.5564,-3.6237,-3.6716,-3.706,-3.718,-3.6836,-3.6297,-2.3625,-2.4642,-2.563,-2.5704,-2.7799,-2.9729,-3.0507,-3.1122,-3.2183,-3.4113,-3.5507,-3.6417,-3.6806,-3.5908,0.0,0.0,0.0,0.0,-2.9998,0.0,-2.4956,-2.4201,-2.3146,-2.2882,-2.3475,-2.3047,-2.2173,-2.0932,-2.0838,-2.0438,-1.9708,-2.0318,-2.1036,-2.1859,-2.2832,0.0,0.0,0.0,-2.9626,0.0,-3.5055,-3.5193,0.0,-3.7876,-3.8898,-3.8781,-3.9978,-4.0352,-4.0068,0.0,-3.7778,-3.706,0.0,-3.522,-3.4981,0.0,0.0,0.0,0.0,0.0,0.0,0.0,-3.1628,0.0,0.0,0.0,-2.759,-2.5576,0.0,0.0,0.0,0.0,0.0,0.0,0.0,0.0,-2.7141,-2.937,-3.1076,-3.1076,-3.2647,-3.3724,-3.3724,-3.32,-3.3589,-3.537,-3.3858,-3.3634,-3.5415,-3.5504,-3.5504,-3.5504,-3.5504,-3.5504,-3.5504,-3.5504,-3.5504,-3.5504,-3.5504,-3.5504,-3.5504,-3.5504,-3.5504,-3.5504,-3.5504,-3.5504,-3.5504,-3.5504,-3.5504,-3.5564,-3.6237,-3.6178,-3.5789,-3.6372,-3.6178,-3.5609,-2.3655,-2.4986,-2.6063,-2.5674,-2.75,-2.934,-3.0357,-3.3036,-3.5115,-3.5579,-3.712,-3.8287,0.0,0.0,0.0,0.0,0.0,-3.3799,0.0,0.0,0.0,-2.6936,-2.5285,-2.4672,-2.533,-2.3939,-2.2757,-2.1859,-2.1081,-2.0363,-1.9708,-2.0393,-2.1874,-2.3984,-2.4522,0.0,-3.0108,0.0,-3.0714,0.0,0.0,0.0,0.0,-3.9104,-4.0845,-4.0748,-4.0905,-4.0965,-4.0711,0.0,-3.8197,0.0,0.0,0.0,0.0,0.0,0.0,0.0,0.0,0.0,0.0,0.0,0.0,0.0,-2.8308,0.0,-2.7335,0.0,0.0,0.0,0.0,0.0,0.0,0.0,-2.5959,0.0,0.0,0.0,-2.8667,0.0,0.0,0.0,-3.2258,-3.2079,-3.2587,-3.4218,-3.32,-3.3215,-3.4816,-3.5295,-3.5504,-3.5504,-3.5504,-3.5504,-3.5504,-3.5504,-3.5504,-3.5504,-3.5504,-3.5504,-3.5504,-3.5504,-3.5504,-3.5504,-3.5504,-3.5504,-3.5504,-3.5504,-3.5504,-3.5534,-3.5804,-3.5744,-3.5534,-3.5818,-3.5744,-3.5504,-2.3849,0.0,0.0,-2.5397,-2.7156,-2.916,-3.0806,-3.4053,-3.6372,-3.6477,-3.7883,0.0,-3.9873,-3.9349,0.0,0.0,-3.8796,-3.6866,0.0,0.0,-3.0655,-2.9968,-2.7859,0.0,0.0,-2.5181,-2.367,-2.2703,-2.1545,-2.0827,-2.0531,-2.1021,-2.2712,-2.5352,-2.6093,-2.8618,-3.2272,0.0,-3.26,-3.409,-3.5539,-3.623,-3.6748,-4.0456,-4.2201,-4.2575,-4.1931,-4.1692,-4.1407,-3.9559,-3.8826,0.0,-3.7883,0.0,0.0,0.0,0.0,0.0,-3.4277,0.0,0.0,0.0,0.0,0.0,0.0,0.0,0.0,0.0,0.0,0.0,0.0,0.0,0.0,0.0,0.0,-2.5689,0.0,0.0,0.0,0.0,0.0,0.0,0.0,-3.036,-3.0866,-3.2542,-3.1734,-3.2048,-3.4129,-3.4681,-3.513,-3.5489,-3.5504,-3.5504,-3.5504,-3.5504,-3.5504,-3.5504,-3.5504,-3.5504,-3.5504,-3.5504,-3.5504,-3.5504,-3.5504,-3.5504,-3.5504,-3.5504,-3.5359,-3.5166,-3.5166,-3.5166,-3.5166,-3.5166,-3.5166,-3.5133,-2.444,-2.4619,0.0,0.0,-2.6817,-2.9475,-3.2048,-3.311,-3.4307,-3.6237,-3.706,0.0,0.0,0.0,0.0,0.0,0.0,-3.9978,-3.9239,0.0,-3.4054,-3.3365,-3.0851,-2.916,0.0,0.0,-2.4597,-2.2703,-2.1994,-2.1999,-2.2598,-2.2628,-2.334,-2.4754,-2.735,-2.9748,-3.1918,-3.3636,-3.6322,-3.945,-3.9316,-4.0771,-4.2796,0.0,-4.1639,-4.317,-4.2605,0.0,0.0,-4.0786,-3.9903,0.0,0.0,0.0,0.0,0.0,0.0,0.0,0.0,0.0,0.0,-3.2497,0.0,0.0,0.0,0.0,-2.9337,0.0,0.0,0.0,0.0,0.0,0.0,0.0,0.0,0.0,0.0,0.0,0.0,0.0,0.0,0.0,0.0,-2.7515,-2.7814,0.0,-2.8843,-2.9457,-3.332,-3.3544,-3.4158,-3.5474,-3.5504,-3.5504,-3.5504,-3.5504,-3.5504,-3.5504,-3.5504,-3.5504,-3.5504,-3.5504,-3.5504,-3.5504,-3.5504,-3.5504,-3.5504,-3.5504,-3.5052,-3.4346,-3.4346,-3.4346,-3.4346,-3.4346,-3.4346,-3.4245,0.0,0.0,0.0,0.0,0.0,-2.9639,-3.2691,-3.4472,-3.6342,0.0,-3.9634,0.0,0.0,-4.3778,-4.4182,0.0,0.0,-4.318,-4.2034,-3.9334,0.0,0.0,0.0,-3.2273,0.0,0.0,-2.6826,-2.5294,-2.4163,-2.352,-2.3295,-2.3295,-2.4238,-2.6019,0.0,-3.0878,0.0,0.0,0.0,0.0,0.0,-4.0958,-4.323,0.0,-4.2722,-4.326,-4.309,-4.3015,0.0,-4.1998,-4.1265,-4.0606,-3.9933,-3.896,-3.8018,-3.7808,-3.7584,-3.7315,0.0,0.0,-3.733,-3.4247,0.0,0.0,0.0,0.0,0.0,0.0,0.0,0.0,0.0,0.0,0.0,0.0,0.0,0.0,0.0,0.0,0.0,0.0,0.0,0.0,0.0,0.0,0.0,0.0,-2.8368,0.0,-3.2034,-3.344,-3.4352,-3.4801,-3.5265,-3.5504,-3.5504,-3.5504,-3.5504,-3.5504,-3.5504,-3.5504,-3.5504,-3.5504,-3.5504,-3.5504,-3.5504,-3.5504,-3.5504,-3.5504,-3.5019,-3.4312,-3.4312,-3.4007,-3.3561,-3.3561,-3.3871,-3.4211,-2.726,0.0,0.0,0.0,0.0,-3.0672,-3.3739,-3.5893,-3.7943,0.0,-4.1175,0.0,-4.5035,0.0,-4.5663,0.0,-4.6052,-4.5005,-4.3394,-4.172,0.0,-4.0412,-3.7539,0.0,0.0,-3.2347,-2.9684,-2.7675,0.0,-2.557,-2.4672,-2.4672,-2.536,-2.6692,0.0,-3.1345,-3.3963,-3.6881,-3.8392,0.0,0.0,-4.1795,0.0,0.0,-4.329,-4.329,0.0,-4.329,-4.323,-4.2851,-4.2267,-4.1615,-4.0863,-3.9899,-3.8943,-3.8098,-3.7961,-3.7878,-3.6799,-3.7434,0.0,-3.4714,-3.4105,0.0,-3.051,0.0,0.0,0.0,0.0,0.0,0.0,0.0,0.0,0.0,0.0,0.0,0.0,-2.1605,0.0,0.0,0.0,0.0,0.0,0.0,-2.4956,-2.6761,-2.7066,0.0,0.0,-3.2602,-3.3754,-3.4488,-3.5145,-3.5504,-3.5504,-3.5504,-3.5504,-3.5504,-3.5504,-3.5504,-3.5504,-3.5198,-3.5052,-3.5067,-3.4787,-3.4687,-3.4687,-3.4687,-3.4206,-3.3512,-3.3512,-3.3234,-3.2791,-3.2791,-3.2918,-3.3108,-2.8577,-2.8274,0.0,-2.7929,-2.9983,-3.2497,0.0,0.0,-3.8916,0.0,-4.1692,-4.3249,-4.5185,-4.5394,-4.5903,-4.7189,-4.6741,-4.5517,-4.3618,-4.3424,0.0,0.0,-4.0487,-3.9531,-3.762,-3.5589,-3.302,0.0,0.0,0.0,-2.6761,-2.6632,-2.6626,0.0,-2.934,0.0,-3.2856,-3.7434,-4.0172,-4.1549,-4.2821,-4.329,-4.329,-4.329,-4.329,-4.329,-4.329,-4.329,-4.329,-4.329,-4.2886,-4.2246,-4.1343,-4.0729,-3.9928,-3.767,-3.8133,-3.8722,-3.5926,-3.6722,-3.7488,-3.4122,-3.4356,0.0,0.0,0.0,-3.3117,0.0,0.0,0.0,0.0,0.0,0.0,0.0,0.0,0.0,0.0,0.0,0.0,0.0,0.0,0.0,0.0,0.0,-2.2817,-2.5315,-2.4963,0.0,0.0,-3.1062,-3.2377,-3.4354,-3.5115,-3.5504,-3.5504,-3.5504,-3.5504,-3.5504,-3.5504,-3.5504,-3.5472,-3.4677,-3.4312,-3.4279,-3.3526,-3.3178,-3.3178,-3.3178,-3.2755,-3.211,-3.211,-3.2074,-3.2051,-3.2074,-3.164,-3.1086,-3.0088,-3.1076,-3.2123,0.0,-3.2871,-3.3873,0.0,0.0,0.0,0.0,-4.3299,-4.4571,-4.6576,-4.6785,-4.6935,-4.7279,-4.7145,0.0,0.0,0.0,0.0,-4.3723,-4.1814,-4.0519,-4.0023,-3.7056,0.0,-3.3993,0.0,0.0,-2.8813,0.0,0.0,0.0,0.0,0.0,-3.3484,-3.712,-3.9993,-4.2216,-4.3,-4.329,-4.329,0.0,-4.329,-4.329,-4.329,-4.329,-4.329,-4.329,-4.2771,-4.2078,-4.2061,-4.1,-3.9874,-4.0134,-3.9286,-3.8322,-3.8868,-3.813,-3.7227,-3.7051,-3.5693,-3.419,0.0,0.0,0.0,0.0,0.0,0.0,0.0,0.0,0.0,0.0,0.0,0.0,0.0,0.0,0.0,0.0,0.0,0.0,0.0,0.0,-2.3385,-2.4059,-2.4881,0.0,0.0,0.0,-3.1465,-3.2976,-3.4637,-3.5504,-3.5504,-3.5504,-3.5504,-3.5504,-3.5504,-3.5504,-3.5472,-3.4677,-3.4312,-3.4279,-3.3526,-3.3178,-3.3178,-3.3178,-3.2755,-3.211,-3.211,-3.1773,-3.1371,-3.1905,-3.164,-3.1024,-3.1884,-3.3873,0.0,-3.6151,0.0,0.0,-3.8542,-3.9275,0.0,-4.2976,-4.4381,0.0,-4.6756,-4.7653,-4.8162,-4.8162,-4.7908,0.0,-4.692,0.0,0.0,-4.4429,-4.3226,-4.2342,-4.1751,-3.9044,0.0,-3.5938,0.0,0.0,-2.9193,0.0,0.0,0.0,0.0,-3.1555,-3.2931,-3.7389,-4.0457,-4.2455,-4.3075,-4.329,0.0,-4.329,-4.329,-4.325,-4.2875,-4.2955,-4.325,-4.2875,-4.2415,-4.1877,-4.1198,-4.036,-3.9564,-3.9516,-3.8857,-3.8203,-3.843,-3.7938,-3.7256,-3.7074,-3.6141,-3.5064,-3.4181,-3.42,-3.4074,0.0,-3.3207,-3.3268,0.0,0.0,0.0,0.0,0.0,0.0,0.0,0.0,0.0,0.0,0.0,0.0,0.0,0.0,-2.2577,-2.3146,0.0,0.0,0.0,0.0,-3.112,-3.2467,-3.4173,-3.519,-3.5504,-3.5166,-3.4986,-3.4986,-3.4639,-3.4505,-3.4471,-3.3699,-3.3339,-3.3304,-3.2555,-3.2245,-3.2245,-3.2245,-3.1992,-3.164,-3.164,-3.1371,-3.1061,-3.1468,-3.1371,-3.0986,-3.3873,0.0,0.0,0.0,0.0,0.0,-4.11,-4.1534,0.0,-4.3648,0.0,-4.6711,-4.6711,-4.8237,-4.9314,-4.9314,0.0,-4.7893,-4.6623,-4.6985,-4.6283,-4.4139,-4.4397,-4.3991,-4.2897,-4.0855,0.0,0.0,0.0,-3.1138,-2.858,0.0,0.0,0.0,0.0,0.0,0.0,-3.8093,-4.1205,-4.259,-4.3195,-4.3389,-4.3384,-4.3384,-4.3244,-4.2953,-4.2204,-4.2433,-4.2996,-4.2114,-4.1728,-4.138,-3.9855,-3.9367,-3.9139,-3.7834,-3.7914,-3.8131,-3.6884,-3.7079,-3.7262,-3.5951,-3.6157,-3.6205,-3.438,-3.4402,-3.463,-3.3929,-3.3414,-3.3161,-3.3398,0.0,0.0,0.0,0.0,0.0,0.0,0.0,0.0,0.0,0.0,0.0,0.0,0.0,0.0,0.0,0.0,0.0,0.0,0.0,-3.0731,-3.2303,-3.3739,-3.4801,-3.5489,-3.471,-3.4312,-3.4279,-3.3561,-3.3178,-3.3178,-3.2434,-3.211,-3.2037,-3.1334,-3.0986,-3.0986,-3.0986,-3.0986,-3.0986,-3.0986,-3.0986,-3.0986,-3.0986,-3.0986,-3.0986,-3.5863,0.0,0.0,0.0,0.0,-4.3359,-4.4287,-4.4526,-4.5095,-4.6441,-4.7863,-4.8745,-4.8745,-4.9105,-4.9314,-4.9314,-4.9209,0.0,0.0,0.0,0.0,-4.5474,-4.3967,-4.3188,-4.3212,-4.0787,-3.8617,0.0,-3.3436,-3.0476,-2.791,0.0,0.0,0.0,0.0,0.0,-3.6552,-3.926,0.0,-4.3185,-4.3883,-4.3945,-4.3729,-4.3729,-4.2926,-4.1795,-4.1651,-4.188,-4.2073,-4.1169,-4.0332,-3.9768,-4.0202,-3.9346,-3.8429,-3.9631,-3.8697,-3.7523,-3.8679,-3.7731,-3.654,-3.7208,-3.6455,-3.5563,-3.5359,-3.4875,-3.4454,-3.429,-3.3858,-3.3093,-3.1724,0.0,0.0,0.0,0.0,0.0,0.0,0.0,0.0,0.0,0.0,0.0,0.0,0.0,0.0,0.0,0.0,0.0,0.0,0.0,-2.8637,0.0,-3.3499,-3.4801,0.0,0.0,-3.4312,-3.4279,-3.3561,-3.3178,-3.3178,-3.2434,-3.211,-3.2037,-3.1334,-3.0986,-3.0986,-3.0986,-3.0986,-3.0986,-3.0986,-3.0986,-3.0986,-3.0986,-3.0986,-3.0986,0.0,0.0,0.0,0.0,0.0,0.0,-4.6651,-4.7429,-4.7728,-4.7354,-4.8147,-4.876,-4.876,-4.9673,-5.0287,-5.0287,-4.9972,-4.9643,-4.9329,-4.7709,-4.6635,-4.6316,-4.4575,0.0,-4.3308,-4.1455,-3.9452,-3.7386,-3.4044,-3.1155,-2.8651,0.0,0.0,0.0,0.0,-3.3669,0.0,0.0,-4.1067,-4.2611,-4.3063,-4.3142,-4.3021,-4.3021,-4.2572,-4.1875,-4.1398,-4.1338,-4.1299,-4.0251,-3.9549,-3.921,-3.9193,-3.8575,-3.807,-3.8953,-3.8376,-3.7637,-3.8491,-3.7665,-3.663,-3.6867,-3.6109,-3.5257,-3.5055,-3.4716,-3.4397,-3.4397,-3.4188,-3.3499,-3.1792,-2.9533,0.0,0.0,0.0,0.0,0.0,0.0,0.0,0.0,0.0,0.0,0.0,0.0,0.0,0.0,0.0,0.0,0.0,0.0,-2.76,0.0,0.0,0.0,-3.4274,0.0,-3.3164,-3.3164,-3.2412,-3.2064,-3.2042,-3.1676,-3.1529,-3.1492,-3.1161,-3.0986,-3.0986,-3.0986,-3.0986,-3.1013,-3.1313,-3.1431,-3.147,-3.1757,-3.1679,-3.1392,0.0,-4.3913,0.0,0.0,-4.6307,-4.7294,-4.8341,-4.9598,-4.9852,-4.8341,-4.8596,-4.891,-4.891,-5.0287,-5.1214,-5.1214,-5.0704,-5.0345,-5.0196,-4.8311,-4.7209,-4.7115,-4.5245,-4.398,-4.3504,-4.2105,-4.006,0.0,-3.4696,-3.1895,-2.9038,0.0,0.0,0.0,0.0,0.0,0.0,0.0,-4.0715,-4.2209,-4.2425,-4.2485,-4.2415,-4.2415,-4.2195,-4.181,-4.1111,-4.081,-4.0568,-3.9612,-3.9209,-3.8953,-3.8142,-3.79,-3.79,-3.79,-3.79,-3.79,-3.79,-3.7547,-3.705,-3.6449,-3.5874,-3.5312,-3.4724,-3.4489,-3.4397,-3.4397,-3.4201,-3.3526,-3.1819,-2.9711,0.0,0.0,0.0,0.0,0.0,0.0,0.0,0.0,0.0,0.0,0.0,0.0,0.0,0.0,0.0,0.0,-2.2923,-2.437,-2.6693,0.0,0.0,-3.1303,-3.3027,0.0,-3.211,-3.2074,-3.1371,-3.0986,-3.0986,-3.0986,-3.0986,-3.0986,-3.0986,-3.0986,-3.0999,-3.1117,-3.1169,-3.1222,-3.1797,-3.198,-3.2032,-3.2515,-3.2411,-3.1915,0.0,0.0,0.0,0.0,0.0,-4.9075,-4.9209,-5.0287,-5.1065,-5.087,-5.09,-5.0945,-5.0945,-5.1109,-5.1214,-5.1214,-5.1154,-5.0823,-5.0226,-4.9195,-4.8468,-4.8194,-4.5373,-4.3967,-4.4195,-4.1997,-3.936,0.0,0.0,-3.1744,-2.7676,-2.7584,0.0,0.0,0.0,0.0,-3.7831,-3.9044,-4.0925,-4.3192,-4.3213,-4.3022,-4.276,-4.276,-4.1871,-4.0561,-4.0477,-4.0162,-3.9729,-3.9611,-3.9218,-3.8634,-3.8103,-3.79,-3.79,-3.79,-3.79,-3.79,-3.79,-3.7861,-3.7678,-3.7063,-3.6475,-3.5887,-3.5338,-3.4789,-3.4397,-3.4397,-3.3574,-3.2306,-3.0579,-3.0501,-3.0003,0.0,0.0,0.0,0.0,0.0,0.0,0.0,0.0,0.0,0.0,-1.9645,0.0,0.0,-1.8555,0.0,-2.285,-2.3223,-2.526,-2.945,-3.0202,-3.1151,-3.2468,-3.225,-3.211,-3.2074,-3.1371,-3.0986,-3.0986,-3.0986,-3.0986,-3.0986,-3.0986,-3.0986,-3.1026,-3.151,-3.1732,-3.1784,-3.2385,-3.262,-3.262,-3.2672,-3.2659,-3.2607,0.0,-4.7294,-4.7593,-4.8462,-4.8671,-4.9075,-5.0257,-5.0885,-5.1214,-5.1214,-5.1214,-5.1214,-5.1214,-5.1214,-5.1214,-5.1214,-5.1214,-5.1109,-5.084,-4.8918,-4.7976,-4.8441,-4.544,-4.4082,-4.4813,-4.2628,-4.0499,0.0,0.0,-3.3907,-3.1133,-3.051,-3.1184,-3.3023,-3.4881,-3.7039,-3.9355,-4.0002,-4.1114,-4.2395,-4.2173,-4.2034,-4.1918,-4.1918,-4.1489,-4.0958,-4.0958,-4.0814,-4.0579,-4.0213,-3.9716,-3.9155,-3.8566,-3.8383,-3.8331,-3.8004,-3.79,-3.79,-3.79,-3.79,-3.7756,-3.7155,-3.6554,-3.5966,-3.5417,-3.4829,-3.4397,-3.4397,-3.3483,-3.2385,-3.1314,-3.0503,-2.9889,-2.964,0.0,0.0,0.0,0.0,0.0,0.0,0.0,0.0,0.0,0.0,0.0,0.0,0.0,0.0,-2.1005,-2.1983,-2.3811,-2.672,0.0,-2.9679,-3.0542,-3.1137,-3.1431,-3.1431,-3.1123,-3.0986,-3.0986,-3.0986,-3.0986,-3.0986,-3.0986,-3.1182,-3.1522,-3.1706,-3.2006,-3.2411,-3.2999,-3.3234,-3.3273,-3.36,-3.3414,-3.3006,-4.9508,-4.8805,-4.873,-5.0465,-5.0047,-4.9972,-5.1558,-5.1798,-5.1798,-5.1798,-5.1798,-5.1648,-5.1259,-5.1214,-5.1214,-5.1214,-5.1214,-5.1214,-5.1214,-4.9368,-4.8378,-4.8576,-4.6077,0.0,-4.476,-4.297,-4.1361,-4.0005,-3.7989,-3.61,-3.4326,-3.3382,-3.3837,-3.5435,-3.6962,-3.8562,-4.0206,-4.0541,-4.1071,-4.1646,-4.1376,-4.1311,-4.1311,-4.1311,-4.1311,-4.1311,-4.1311,-4.1311,-4.1246,-4.0827,-4.0422,-3.9978,-3.9207,-3.8854,-3.8645,-3.8253,-3.8031,-3.79,-3.79,-3.79,-3.7808,-3.7377,-3.6684,-3.6005,-3.5626,-3.4946,-3.4358,-3.4188,-3.3378,-3.2515,-3.1902,-3.0712,-2.9928,-3.0411,0.0,0.0,0.0,0.0,0.0,0.0,-2.4478,-2.2492,-2.1315,0.0,0.0,0.0,0.0,0.0,0.0,-2.1504,0.0,0.0,0.0,0.0,-2.9531,-3.0509,-3.0986,-3.0986,-3.0986,-3.0986,-3.0986,-3.0986,-3.1078,-3.1235,-3.1235,-3.1561,-3.2071,-3.2241,-3.2594,-3.3012,-3.36,-3.3822,-3.3875,-3.4254,-3.3983,-3.348,-5.0046,-5.0166,-5.0569,-5.1947,-5.2157,-5.2381,-5.3054,-5.3159,-5.3159,-5.3159,-5.3159,-5.2665,-5.1364,-5.1214,-5.1214,-5.1214,-5.1214,-5.1214,-5.1214,-5.1167,-5.0401,0.0,0.0,-4.6033,-4.3742,-4.2743,-4.1361,-3.9599,0.0,0.0,-3.6044,-3.5495,-3.5891,-3.6985,-3.7645,-3.8514,-3.9625,-4.0174,-4.0749,-4.1311,-4.1311,-4.1311,-4.1311,-4.1311,-4.1311,-4.1311,-4.1311,-4.1311,-4.1311,-4.1311,-4.1298,-4.1102,-3.9965,-3.9194,-3.871,-3.8697,-3.8331,-3.79,-3.79,-3.79,-3.79,-3.79,-3.6998,-3.6109,-3.6096,-3.5208,-3.4241,-3.3705,-3.3117,-3.2515,-3.1902,-3.1365,-3.0607,-2.9483,0.0,0.0,0.0,0.0,0.0,0.0,-2.4154,-2.2401,-2.2387,0.0,0.0,0.0,0.0,0.0,0.0,0.0,0.0,-2.7453,-2.8093,0.0,-3.0069,-3.0679,-3.0986,-3.0986,-3.0986,-3.0986,-3.0986,-3.0986,-3.13,-3.1797,-3.1797,-3.2111,-3.2725,-3.3326,-3.3574,-3.3639,-3.4175,-3.4384,-3.4384,-3.4397,-3.4272,-3.4076,-5.1528,-5.1932,-5.2381,-5.28,-5.2875,-5.2935,-5.3144,-5.3174,-5.3174,-5.3174,-5.3174,-5.3025,-5.2606,-5.2157,-5.1708,0.0,-5.0522,-5.0124,0.0,-4.945,-4.8744,-4.8233,-4.679,-4.5999,-4.5948,-4.3483,-4.224,-4.2413,0.0,-3.8645,-3.7338,-3.7534,-3.8031,-3.8802,-3.9364,-4.0043,-4.0788,-4.0958,-4.1141,-4.1311,-4.1311,-4.1311,-4.1311,-4.1311,-4.1311,-4.1311,-4.1311,-4.1311,-4.1311,-4.1311,-4.1311,-4.1259,-4.088,-4.0357,-3.9795,-3.9429,-3.8906,-3.8449,-3.8449,-3.8187,-3.79,-3.79,-3.7312,-3.6606,-3.6188,-3.5221,-3.4241,-3.3705,-3.3117,-3.2515,-3.1902,-3.1365,-3.0869,-3.0503,-3.0751,0.0,-2.9706,0.0,0.0,0.0,-2.545,-2.4011,-2.3616,-2.3237,0.0,0.0,0.0,0.0,0.0,0.0,0.0,0.0,-2.8043,0.0,-2.9531,-3.0522,-3.0986,-3.0986,-3.0986,-3.1196,-3.1549,-3.1967,-3.2241,-3.2411,-3.2411,-3.2764,-3.3326,-3.3509,-3.3809,-3.4162,-3.4332,-3.4397,-3.4397,-3.4397,-3.4147,-3.3852,-5.2576,-5.289,-5.3264,-5.3518,-5.3563,-5.3653,-5.3892,-5.3937,-5.3937,-5.3937,-5.3937,-5.3847,-5.3593,-5.3204,-5.2591,-5.1678,-5.0573,-4.9872,-4.964,-4.8596,-4.7827,-4.7434,-4.6421,-4.5864,-4.5823,-4.3867,-4.3044,-4.3416,-4.1528,-4.0095,-3.9194,-3.9534,-3.9886,-4.0265,-4.0605,-4.0971,-4.1311,-4.1311,-4.1311,-4.1311,-4.1311,-4.1311,-4.1311,-4.1311,-4.1311,-4.1311,-4.1311,-4.1311,-4.1311,-4.1311,-4.1311,-4.1311,-4.1311,-4.105,-4.0644,-4.0082,-3.9494,-3.8998,-3.8776,-3.8462,-3.8161,-3.7952,-3.7456,-3.6789,-3.5979,-3.5247,-3.458,-3.4018,-3.343,-3.2842,-3.2267,-3.1692,-3.1235,-3.1013,-3.0986,-3.0712,-2.9915,0.0,0.0,0.0,0.0,0.0,0.0,-2.5114,-2.5075,0.0,0.0,0.0,0.0,0.0,-2.5576,-2.5707,-2.856,-3.0072,-2.9928,-3.062,-3.0986,-3.0986,-3.1209,-3.1601,-3.2137,-3.2529,-3.2816,-3.3038,-3.3038,-3.3365,-3.3901,-3.3901,-3.4056,-3.4272,-3.4272,-3.423,-3.4147,-3.4147,-3.3882,-3.3598,-5.3249,-5.3294,-5.3533,-5.4162,-5.4281,-5.4476,-5.5089,-5.5194,-5.5194,-5.5194,-5.5194,-5.4955,-5.4341,-5.4167,-5.3644,-5.2345,-5.1185,-5.0159,-4.9467,-4.846,-4.742,-4.6426,-4.6374,-4.5658,-4.4097,-4.3939,-4.3585,-4.3023,-4.2487,-4.1938,-4.1376,-4.1376,-4.135,-4.1311,-4.1311,-4.1311,-4.1311,-4.1311,-4.1311,-4.1311,-4.1311,-4.1311,-4.1311,-4.1311,-4.1311,-4.1311,-4.1311,-4.1311,-4.1311,-4.1311,-4.1311,-4.1311,-4.1311,-4.1311,-4.1206,-4.0644,-4.0095,-3.9547,-3.8985,-3.8776,-3.8593,-3.8083,-3.7482,-3.6711,-3.56,-3.5325,-3.5129,-3.4515,-3.3966,-3.3417,-3.2803,-3.2228,-3.1615,-3.1078,-3.0947,-3.0542,-2.9467,-2.8826,0.0,0.0,0.0,0.0,-2.6059,-2.7007,-2.7607,0.0,0.0,0.0,0.0,0.0,-2.6274,-2.8407,-2.9588,-3.0451,-3.0973,-3.1026,-3.1065,-3.1104,-3.1692,-3.2202,-3.2751,-3.279,-3.3117,-3.3652,-3.3652,-3.3927,-3.4397,-3.4397,-3.4272,-3.4118,-3.4118,-3.3937,-3.3713,-3.3713,-3.3556,-3.3398,-5.3967,-5.4371,-5.476,-5.494,-5.4955,-5.5014,-5.5164,-5.5194,-5.5194,-5.5194,-5.5194,-5.5134,-5.497,-5.4119,-5.3253,-5.2449,-5.0513,-4.8916,-4.7829,-4.7128,-4.6673,-4.6426,-4.6374,-4.6201,-4.5804,-4.456,-4.3585,-4.3023,-4.2879,-4.2526,-4.1964,-4.1964,-4.1729,-4.1311,-4.1311,-4.1311,-4.1311,-4.1311,-4.1311,-4.1311,-4.1311,-4.1311,-4.1311,-4.1311,-4.1311,-4.1311,-4.1311,-4.1311,-4.1311,-4.1311,-4.1311,-4.1311,-4.1311,-4.1311,-4.1285,-4.1141,-4.0684,-4.0187,-4.0056,-3.9377,-3.8684,-3.8553,-3.7756,-3.6815,-3.6083,-3.5587,-3.5129,-3.4515,-3.3966,-3.3417,-3.2803,-3.2228,-3.1615,-3.1078,-3.062,-3.0098,-2.9415,-2.9192,-2.8826,0.0,-2.842,-2.8472,-2.7824,-2.883,-2.8743,0.0,0.0,-2.8673,-2.7771,-2.8059,-2.8538,-2.9087,-3.0176,-3.0856,-3.0986,-3.1418,-3.1849,-3.2293,-3.2894,-3.3247,-3.3391,-3.3809,-3.4071,-3.4201,-3.4201,-3.428,-3.4397,-3.4397,-3.4272,-3.4118,-3.4118,-3.3937,-3.3713,-3.3713,-3.3556,-3.3398,-5.4655,-5.494,-5.5194,-5.5194,-5.5194,-5.5194,-5.5194,-5.5194,-5.5194,-5.5194,-5.4743,-5.4355,-5.4355,-5.3308,-5.2249,-5.1358,-4.99,-4.8661,-4.7676,-4.6598,-4.6022,-4.6022,-4.5755,-4.5609,-4.5609,-4.473,-4.399,-4.3415,-4.3415,-4.3114,-4.2565,-4.2565,-4.2396,-4.2082,-4.1821,-4.1703,-4.169,-4.1428,-4.1311,-4.1311,-4.1311,-4.1311,-4.1311,-4.1311,-4.1311,-4.1311,-4.1311,-4.1311,-4.1311,-4.1311,-4.1311,-4.1311,-4.1311,-4.1311,-4.1311,-4.1311,-4.1089,-4.0762,-4.0488,-3.9965,-3.9364,-3.8841,-3.8057,-3.726,-3.6658,-3.607,-3.5495,-3.4933,-3.4358,-3.3705,-3.2842,-3.2437,-3.1954,-3.1117,-3.0725,-3.032,-2.9758,-2.968,-2.9457,-2.8869,-2.9314,-2.9536,-2.9209,-2.9993,-3.0006,-2.8773,-2.9558,0.0,-2.9144,-2.9706,-2.9941,-2.968,-3.0777,-3.1378,-3.1378,-3.194,-3.2515,-3.3104,-3.343,-3.3718,-3.3966,-3.4267,-3.4397,-3.4397,-3.4397,-3.4397,-3.4397,-3.4397,-3.423,-3.3907,-3.3907,-3.3738,-3.3441,-3.3441,-3.3356,-3.3283,-5.4911,-5.4809,-5.4692,-5.4692,-5.4692,-5.4743,-5.4911,-5.4809,-5.4743,-5.4911,-5.3912,-5.3136,-5.3136,-5.2108,-5.1017,-4.9971,-4.9326,-4.8674,-4.7999,-4.6584,-4.5728,-4.5568,-4.514,-4.4759,-4.4668,-4.4668,-4.4487,-4.4003,-4.4003,-4.3716,-4.3154,-4.3154,-4.3101,-4.2997,-4.2513,-4.2291,-4.2265,-4.1768,-4.152,-4.1442,-4.1442,-4.1389,-4.1311,-4.1311,-4.1311,-4.1311,-4.1311,-4.1311,-4.1311,-4.1311,-4.1311,-4.1311,-4.1311,-4.1311,-4.1311,-4.1311,-4.1311,-4.1206,-4.0697,-4.0422,-4.0043,-3.8972,-3.8305,-3.7743,-3.7142,-3.6606,-3.6083,-3.5534,-3.4946,-3.4201,-3.3143,-3.2816,-3.2319,-3.1169,-3.0908,-3.066,-3.0048,0.0,-2.9918,-2.947,-2.9915,-3.0231,-3.0231,-3.0699,-3.0986,-3.0986,-3.0986,-3.1026,-3.1117,-3.1117,-3.0934,-3.0505,-3.134,-3.1889,-3.2058,-3.2581,-3.3117,-3.3718,-3.3718,-3.3953,-3.4397,-3.4397,-3.4397,-3.4397,-3.4397,-3.4397,-3.4397,-3.4397,-3.4105,-3.3713,-3.3713,-3.3441,-3.3124,-3.3124,-3.3124,-3.3124,-5.369,-5.2871,-5.223,-5.223,-5.223,-5.2552,-5.3533,-5.2886,-5.2619,-5.3571,-5.2658,-5.196,-5.196,-5.0906,-5.0084,-4.9915,-4.8921,-4.8082,-4.7446,-4.6769,-4.6133,-4.565,-4.5477,-4.519,-4.4681,-4.4668,-4.4683,-4.4591,-4.4591,-4.4304,-4.3742,-4.3742,-4.348,-4.3023,-4.2931,-4.2892,-4.2879,-4.2788,-4.2474,-4.2081,-4.2081,-4.1742,-4.1311,-4.1311,-4.1311,-4.1311,-4.1311,-4.1311,-4.1311,-4.1311,-4.1311,-4.1311,-4.1311,-4.1311,-4.1311,-4.1311,-4.1311,-4.1298,-4.1206,-4.0474,-3.9573,-3.888,-3.8305,-3.7743,-3.7142,-3.6933,-3.6698,-3.6109,-3.5534,-3.4946,-3.4254,-3.3352,-3.2319,-3.1169,-3.0581,-3.0072,-2.9497,0.0,-3.0061,-2.9983,-3.0503,-3.0856,-3.0856,-3.0934,-3.0986,-3.0986,-3.0986,-3.1196,-3.1641,-3.1667,-3.185,-3.228,-3.1954,-3.228,-3.3313,-3.3404,-3.3731,-3.428,-3.428,-3.4319,-3.4397,-3.4397,-3.4397,-3.4397,-3.4397,-3.4397,-3.4397,-3.4397,-3.4105,-3.3713,-3.3713,-3.3441,-3.3124,-3.3124,-3.3124,-3.3124,-5.3413,-5.2804,-5.2162,-5.1797,-5.1361,-5.1401,-5.2337,-5.2068,-5.1906,-5.2445,-5.1456,-5.074,-5.074,-4.9716,-4.9001,-4.9001,-4.8508,-4.8068,-4.7806,-4.7257,-4.6826,-4.6508,-4.5908,-4.5294,-4.4681,-4.4668,-4.4668,-4.4668,-4.4668,-4.4591,-4.433,-4.433,-4.4186,-4.3871,-4.3624,-4.348,-4.3454,-4.3154,-4.2866,-4.2631,-4.2631,-4.2291,-4.1768,-4.1768,-4.1585,-4.1311,-4.1311,-4.1311,-4.1311,-4.1311,-4.1311,-4.1311,-4.1311,-4.1311,-4.1311,-4.1311,-4.1311,-4.1311,-4.1311,-4.0697,-3.9899,-3.9337,-3.8762,-3.8187,-3.7612,-3.7233,-3.692,-3.6645,-3.6136,-3.5456,-3.4554,-3.3731,-3.2894,-3.2045,-3.1169,-3.0607,-3.0647,-3.062,-3.0712,-3.0975,-3.1249,-3.1575,-3.1875,-3.1901,-3.1901,-3.1901,-3.1901,-3.2019,-3.228,-3.2293,-3.2568,-3.3156,-3.2921,-3.3182,-3.4018,-3.4018,-3.4149,-3.4397,-3.4397,-3.4397,-3.4397,-3.4397,-3.4356,-3.4243,-3.4243,-3.4147,-3.4008,-3.4008,-3.3852,-3.3556,-3.3556,-3.3356,-3.3124,-3.3124,-3.3124,-3.3124,-5.2977,-5.2323,-5.1551,-5.0975,-5.0378,-5.0252,-5.1141,-5.1086,-5.0975,-5.1251,-5.0252,-4.9475,-4.9475,-4.8726,-4.8185,-4.8185,-4.8185,-4.8185,-4.8185,-4.778,-4.7479,-4.7291,-4.6355,-4.5545,-4.489,-4.4931,-4.4811,-4.4668,-4.4668,-4.4668,-4.4668,-4.4668,-4.4668,-4.4655,-4.4264,-4.4068,-4.4042,-4.3598,-4.3337,-4.3219,-4.3219,-4.2879,-4.2369,-4.2369,-4.2017,-4.152,-4.152,-4.1428,-4.1311,-4.1311,-4.1311,-4.1311,-4.1311,-4.1311,-4.1311,-4.1311,-4.1311,-4.1311,-4.1311,-4.088,-4.0318,-3.9899,-3.9246,-3.8606,-3.8187,-3.7639,-3.7207,-3.7207,-3.6737,-3.6044,-3.5168,-3.4332,-3.3587,-3.2999,0.0,-3.1483,-3.1758,-3.1575,-3.1548,-3.1954,-3.2006,-3.2176,-3.2659,-3.2685,-3.2685,-3.2685,-3.2685,-3.2751,-3.2894,-3.2894,-3.3169,-3.3757,-3.3783,-3.3979,-3.4397,-3.4397,-3.4397,-3.4397,-3.4397,-3.4397,-3.4397,-3.4397,-3.4272,-3.4118,-3.4118,-3.3937,-3.3713,-3.3713,-3.3598,-3.3398,-3.3398,-3.3283,-3.3124,-3.3124,-3.3124,-3.3124,-5.1851,-5.0041,-4.8508,-4.8463,-4.8405,-4.8726,-4.9858,-4.9173,-4.8842,-4.9915,-4.9058,-4.8347,-4.8347,-4.8243,-4.8185,-4.8185,-4.8185,-4.8185,-4.8185,-4.8146,-4.7885,-4.7291,-4.6748,-4.6146,-4.5571,-4.5503,-4.5284,-4.4668,-4.4668,-4.4668,-4.4668,-4.4668,-4.4668,-4.4668,-4.4683,-4.467,-4.4657,-4.4563,-4.4291,-4.3807,-4.3807,-4.3467,-4.2958,-4.2958,-4.2605,-4.2146,-4.2146,-4.1755,-4.1311,-4.1311,-4.1311,-4.1311,-4.1311,-4.1311,-4.1311,-4.1311,-4.1311,-4.1311,-4.1311,-4.088,-4.0409,-4.0357,-3.952,-3.8697,-3.8658,-3.8227,-3.7835,-3.7835,-3.7351,-3.692,-3.6828,-3.5456,-3.4162,-3.3613,0.0,0.0,-3.1863,-3.2267,-3.2581,-3.262,-3.262,-3.2646,-3.2685,-3.2685,-3.2685,-3.2685,-3.2685,-3.2934,-3.3496,-3.3522,-3.3783,-3.4319,-3.4332,-3.4358,-3.4397,-3.4397,-3.4397,-3.4397,-3.4397,-3.4397,-3.4397,-3.4397,-3.4272,-3.4118,-3.4118,-3.3937,-3.3713,-3.3713,-3.3598,-3.3398,-3.3398,-3.3283,-3.3124,-3.3124,-3.3124,-3.3124,-5.0573,-4.9274,-4.8185,-4.8185,-4.8185,-4.8347,-4.8784,-4.8463,-4.8347,-4.8784,-4.8463,-4.8185,-4.8185,-4.8185,-4.8185,-4.8185,-4.8185,-4.8185,-4.8185,-4.8185,-4.7924,-4.7304,-4.7127,-4.6734,-4.6173,-4.5807,-4.5464,-4.5284,-4.485,-4.4668,-4.4668,-4.4668,-4.4668,-4.4668,-4.4668,-4.4668,-4.4668,-4.4668,-4.4604,-4.4408,-4.4408,-4.4055,-4.3546,-4.3546,-4.3193,-4.2696,-4.2696,-4.233,-4.1847,-4.1847,-4.1611,-4.1311,-4.1311,-4.1311,-4.1311,-4.1311,-4.1311,-4.1311,-4.1311,-4.1141,-4.088,-4.0501,-4.0082,-3.9586,-3.8867,-3.8553,-3.8305,-3.7978,-3.773,-3.7442,-3.7077,-3.6162,-3.5273,-3.4737,0.0,-3.3169,-3.296,-3.279,-3.2829,-3.3208,-3.3247,-3.3378,-3.3718,-3.3744,-3.3744,-3.3744,-3.3744,-3.3849,-3.4071,-3.4097,-3.4188,-3.4384,-3.4397,-3.4397,-3.4397,-3.4397,-3.4397,-3.4397,-3.4397,-3.4397,-3.4397,-3.4397,-3.4189,-3.3852,-3.3852,-3.3641,-3.3313,-3.3313,-3.3283,-3.3197,-3.3197,-3.3154,-3.3124,-3.3124,-3.3124,-3.3124,-4.9915,-4.9001,-4.8185,-4.8185,-4.8185,-4.8185,-4.8185,-4.8185,-4.8185,-4.8185,-4.8185,-4.8185,-4.8185,-4.8185,-4.8185,-4.8185,-4.8185,-4.8185,-4.8185,-4.8185,-4.8015,-4.7623,-4.7597,-4.7336,-4.6761,-4.6369,-4.6068,-4.5898,-4.5297,-4.5009,-4.5009,-4.4759,-4.4668,-4.4668,-4.4668,-4.4668,-4.4668,-4.4668,-4.4668,-4.4668,-4.4668,-4.4487,-4.4134,-4.4134,-4.3794,-4.3284,-4.3284,-4.2918,-4.2409,-4.2277,-4.1899,-4.1546,-4.1376,-4.1311,-4.1311,-4.1311,-4.1311,-4.1311,-4.1311,-4.1311,-4.1219,-4.0801,-4.0553,-4.0213,-3.9429,-3.8972,-3.8606,-3.824,-3.8018,-3.7782,-3.7364,-3.6789,-3.6266,-3.5887,-3.4881,-3.4123,-3.4123,-3.36,-3.3378,-3.3796,-3.3849,-3.3992,-3.4358,-3.4397,-3.4397,-3.4397,-3.4397,-3.4397,-3.4397,-3.4397,-3.4397,-3.4397,-3.4397,-3.4397,-3.4397,-3.4397,-3.4397,-3.4397,-3.4397,-3.4397,-3.4397,-3.4397,-3.4147,-3.3713,-3.3713,-3.3471,-3.3124,-3.3124,-3.3124,-3.3124,-3.3124,-3.3124,-3.3124,-3.3124,-3.3124,-3.3124,-4.9915,-4.9001,-4.8185,-4.8185,-4.8185,-4.8185,-4.8185,-4.8185,-4.8185,-4.8185,-4.8185,-4.8185,-4.8185,-4.8185,-4.8185,-4.8185,-4.8185,-4.8185,-4.8185,-4.8185,-4.8185,-4.8185,-4.8185,-4.7924,-4.7291,-4.7278,-4.7048,-4.6486,-4.5911,-4.5637,-4.5568,-4.5022,-4.4681,-4.4681,-4.4668,-4.4668,-4.4668,-4.4668,-4.4668,-4.4668,-4.4668,-4.4668,-4.4668,-4.4668,-4.4382,-4.3939,-4.3939,-4.352,-4.2944,-4.2369,-4.2224,-4.212,-4.1507,-4.1311,-4.1311,-4.1311,-4.1311,-4.1311,-4.1311,-4.1311,-4.1311,-4.1311,-4.0867,-4.0422,-4.0409,-3.9534,-3.8723,-3.8723,-3.8292,-3.7913,-3.7913,-3.7416,-3.7011,-3.6998,-3.6057,-3.5312,-3.5312,-3.4789,-3.441,-3.441,-3.441,-3.441,-3.4397,-3.4397,-3.4397,-3.4397,-3.4397,-3.4397,-3.4397,-3.4397,-3.4397,-3.4397,-3.4397,-3.4397,-3.4397,-3.4397,-3.4397,-3.4397,-3.4397,-3.4397,-3.4397,-3.4397,-3.4147,-3.3713,-3.3713,-3.3471,-3.3124,-3.3124,-3.3124,-3.3124,-3.3124,-3.3124,-3.3124,-3.3124,-3.3124,-3.3124,-4.8726,-4.845,-4.8185,-4.8185,-4.8185,-4.8185,-4.8185,-4.8185,-4.8185,-4.8185,-4.8185,-4.8185,-4.8185,-4.8185,-4.8185,-4.8185,-4.8185,-4.8185,-4.8185,-4.8185,-4.8185,-4.8185,-4.8185,-4.8107,-4.7937,-4.7545,-4.7244,-4.7074,-4.6499,-4.6225,-4.6212,-4.5624,-4.5307,-4.5281,-4.4918,-4.4668,-4.4668,-4.4668,-4.4668,-4.4668,-4.4668,-4.4668,-4.4668,-4.4668,-4.4617,-4.4474,-4.4474,-4.4095,-4.3598,-4.3481,-4.3101,-4.267,-4.2095,-4.1638,-4.1311,-4.1311,-4.1311,-4.1311,-4.1311,-4.1311,-4.1311,-4.1311,-4.118,-4.0932,-4.0514,-4.0161,-3.9795,-3.9416,-3.888,-3.8462,-3.8462,-3.8018,-3.7495,-3.7077,-3.6711,-3.6345,-3.5926,-3.5704,-3.5456,-3.5077,-3.5025,-3.4868,-3.4437,-3.4397,-3.4397,-3.4397,-3.4397,-3.4397,-3.4397,-3.4397,-3.4397,-3.4397,-3.4397,-3.4397,-3.4397,-3.4397,-3.4397,-3.4397,-3.4397,-3.4397,-3.4397,-3.4397,-3.4147,-3.3713,-3.3713,-3.3471,-3.3124,-3.3124,-3.3124,-3.3124,-3.3124,-3.3124,-3.3124,-3.3124,-3.3124,-3.3124,-4.8185,-4.8185,-4.8185,-4.8185,-4.8185,-4.8185,-4.8185,-4.8185,-4.8185,-4.8185,-4.8185,-4.8185,-4.8185,-4.8185,-4.8185,-4.8185,-4.8185,-4.8185,-4.8185,-4.8185,-4.8185,-4.8185,-4.8185,-4.8185,-4.8185,-4.7845,-4.7675,-4.7675,-4.71,-4.6826,-4.68,-4.6238,-4.5846,-4.5555,-4.519,-4.489,-4.4668,-4.4668,-4.4668,-4.4668,-4.4668,-4.4668,-4.4668,-4.4668,-4.4668,-4.4668,-4.4668,-4.45,-4.4173,-4.3951,-4.3493,-4.2918,-4.2343,-4.1925,-4.1611,-4.1376,-4.1311,-4.1311,-4.1311,-4.1311,-4.1311,-4.1311,-4.1311,-4.1219,-4.0853,-4.0592,-4.0331,-3.9991,-3.9468,-3.8985,-3.8749,-3.8449,-3.8031,-3.7456,-3.7155,-3.6881,-3.6515,-3.6253,-3.5979,-3.5652,-3.5626,-3.5469,-3.5103,-3.4881,-3.4659,-3.441,-3.4397,-3.4397,-3.4397,-3.4397,-3.4397,-3.4397,-3.4397,-3.4397,-3.4397,-3.4536,-3.4536,-3.4397,-3.4397,-3.4356,-3.4272,-3.4272,-3.4021,-3.3598,-3.3598,-3.3398,-3.3124,-3.3124,-3.3124,-3.3124,-3.3124,-3.3124,-3.3124,-3.3124,-3.3124,-3.3124,-4.8185,-4.8185,-4.8185,-4.8185,-4.8185,-4.8185,-4.8185,-4.8185,-4.8185,-4.8185,-4.8185,-4.8185,-4.8185,-4.8185,-4.8185,-4.8185,-4.8185,-4.8185,-4.8185,-4.8185,-4.8185,-4.8185,-4.8185,-4.8185,-4.8185,-4.8185,-4.8185,-4.8185,-4.7662,-4.7357,-4.7344,-4.6826,-4.6277,-4.5725,-4.5728,-4.5375,-4.4759,-4.4759,-4.4774,-4.4668,-4.4668,-4.4668,-4.4668,-4.4668,-4.4668,-4.4668,-4.4668,-4.4668,-4.4657,-4.4134,-4.3559,-4.301,-4.2539,-4.2329,-4.2134,-4.1559,-4.1389,-4.1376,-4.1324,-4.1311,-4.1311,-4.1311,-4.1311,-4.1311,-4.1311,-4.0893,-4.0501,-4.0501,-4.0056,-3.9507,-3.8958,-3.8776,-3.8553,-3.8057,-3.7469,-3.709,-3.709,-3.6606,-3.624,-3.6188,-3.6188,-3.6162,-3.6109,-3.5652,-3.5142,-3.4593,-3.4554,-3.4554,-3.4554,-3.4554,-3.4554,-3.4554,-3.4554,-3.4554,-3.4554,-3.4821,-3.4769,-3.4356,-3.4408,-3.4282,-3.4076,-3.4076,-3.3823,-3.3398,-3.3398,-3.3283,-3.3124,-3.3124,-3.3124,-3.3124,-3.3124,-3.3124,-3.3124,-3.3124,-3.3124,-3.3124,-4.8185,-4.8185,-4.8185,-4.8185,-4.8185,-4.8185,-4.8185,-4.8185,-4.8185,-4.8185,-4.8185,-4.8185,-4.8185,-4.8185,-4.8185,-4.8185,-4.8185,-4.8185,-4.8185,-4.8185,-4.8185,-4.8185,-4.8185,-4.8185,-4.8185,-4.8185,-4.8185,-4.8185,-4.8068,-4.7989,-4.7989,-4.7414,-4.7087,-4.6887,-4.6499,-4.5976,-4.5373,-4.5373,-4.5098,-4.4668,-4.4668,-4.4668,-4.4668,-4.4668,-4.4668,-4.4668,-4.4668,-4.4668,-4.4655,-4.4591,-4.416,-4.3663,-4.3598,-4.3193,-4.2722,-4.2147,-4.1977,-4.1886,-4.1442,-4.1311,-4.1311,-4.1311,-4.1311,-4.1311,-4.1311,-4.1219,-4.1115,-4.1115,-4.0657,-4.02,-4.0069,-3.9311,-3.8671,-3.8553,-3.807,-3.7704,-3.7704,-3.7599,-3.7338,-3.6867,-3.6802,-3.6619,-3.6149,-3.5992,-3.5874,-3.5744,-3.573,-3.573,-3.573,-3.573,-3.573,-3.573,-3.573,-3.573,-3.573,-3.5626,-3.5098,-3.416,-3.4456,-3.4302,-3.381,-3.381,-3.3641,-3.3398,-3.3398,-3.3283,-3.3124,-3.3124,-3.3124,-3.3124,-3.3124,-3.3124,-3.3124,-3.3124,-3.3124,-3.3124,-4.8185,-4.8185,-4.8185,-4.8185,-4.8185,-4.8185,-4.8185,-4.8185,-4.8185,-4.8185,-4.8185,-4.8185,-4.8185,-4.8185,-4.8185,-4.8185,-4.8185,-4.8185,-4.8185,-4.8185,-4.8185,-4.8185,-4.8185,-4.8185,-4.8185,-4.8185,-4.8185,-4.8185,-4.8185,-4.8185,-4.8172,-4.7885,-4.7597,-4.7265,-4.7022,-4.6565,-4.6029,-4.6029,-4.5859,-4.5532,-4.5271,-4.5098,-4.5127,-4.4839,-4.4668,-4.4668,-4.4668,-4.4668,-4.4668,-4.4668,-4.4526,-4.4238,-4.3964,-4.3663,-4.3258,-4.246,-4.2211,-4.2094,-4.1468,-4.1311,-4.1311,-4.1311,-4.1311,-4.1311,-4.1311,-4.1311,-4.1311,-4.1311,-4.1063,-4.0762,-4.0461,-3.9926,-3.9351,-3.8802,-3.8475,-3.82,-3.7939,-3.79,-3.7782,-3.7469,-3.7429,-3.7194,-3.6593,-3.6541,-3.641,-3.6123,-3.6109,-3.6109,-3.6109,-3.6109,-3.6109,-3.6109,-3.6109,-3.6109,-3.6109,-3.6056,-3.5594,-3.4719,-3.4897,-3.4753,-3.4372,-3.4372,-3.4101,-3.3631,-3.3631,-3.3437,-3.3124,-3.3124,-3.3124,-3.3124,-3.3124,-3.3124,-3.3124,-3.3124,-3.3124,-3.3124,-4.8185,-4.8185,-4.8185,-4.8185,-4.8185,-4.8185,-4.8185,-4.8185,-4.8185,-4.8185,-4.8185,-4.8185,-4.8185,-4.8185,-4.8185,-4.8185,-4.8185,-4.8185,-4.8185,-4.8185,-4.8185,-4.8185,-4.8185,-4.8185,-4.8185,-4.8185,-4.8185,-4.8185,-4.8185,-4.8185,-4.8185,-4.8185,-4.7924,-4.7479,-4.7479,-4.7166,-4.663,-4.663,-4.6565,-4.6447,-4.5963,-4.5715,-4.5571,-4.502,-4.4759,-4.4668,-4.4668,-4.4668,-4.4668,-4.4668,-4.4668,-4.4643,-4.4173,-4.4016,-4.3807,-4.2813,-4.2434,-4.2186,-4.1611,-4.1389,-4.1311,-4.1311,-4.1311,-4.1311,-4.1311,-4.1311,-4.1311,-4.1311,-4.1311,-4.1167,-4.0657,-4.0488,-4.0109,-3.9155,-3.8919,-3.8671,-3.8122,-3.8044,-3.8004,-3.7913,-3.79,-3.7704,-3.7207,-3.7155,-3.6946,-3.6449,-3.641,-3.641,-3.641,-3.641,-3.641,-3.641,-3.641,-3.6366,-3.6366,-3.6399,-3.6186,-3.5635,-3.559,-3.5353,-3.5053,-3.5053,-3.4666,-3.4035,-3.4035,-3.3721,-3.3262,-3.3262,-3.3156,-3.3124,-3.3124,-3.3124,-3.3124,-3.3124,-3.3124,-3.3124,-4.8185,-4.8185,-4.8185,-4.8185,-4.8185,-4.8185,-4.8185,-4.8185,-4.8185,-4.8185,-4.8185,-4.8185,-4.8185,-4.8185,-4.8185,-4.8185,-4.8185,-4.8185,-4.8185,-4.8185,-4.8185,-4.8185,-4.8185,-4.8185,-4.8185,-4.8185,-4.8185,-4.8185,-4.8185,-4.8185,-4.8185,-4.8185,-4.8146,-4.8068,-4.8068,-4.7754,-4.7218,-4.7218,-4.6931,-4.6473,-4.6395,-4.6068,-4.5568,-4.5477,-4.5125,-4.4668,-4.4668,-4.4668,-4.4668,-4.4668,-4.4668,-4.4709,-4.463,-4.4604,-4.4487,-4.3833,-4.3284,-4.2775,-4.2213,-4.169,-4.1311,-4.1311,-4.1311,-4.1311,-4.1311,-4.1311,-4.1311,-4.1311,-4.1311,-4.1298,-4.1206,-4.0762,-4.0357,-4.0213,-3.9795,-3.9272,-3.8684,-3.8606,-3.8423,-3.7965,-3.79,-3.7874,-3.7795,-3.7782,-3.7743,-3.7665,-3.7665,-3.7665,-3.7665,-3.7665,-3.7665,-3.7665,-3.7665,-3.756,-3.7318,-3.7106,-3.6815,-3.654,-3.6366,-3.5735,-3.4771,-3.4771,-3.4675,-3.4613,-3.4613,-3.4299,-3.3784,-3.3784,-3.3508,-3.3124,-3.3124,-3.3124,-3.3124,-3.3124,-3.3124,-3.3124,-4.8185,-4.8185,-4.8185,-4.8185,-4.8185,-4.8185,-4.8185,-4.8185,-4.8185,-4.8185,-4.8185,-4.8185,-4.8185,-4.8185,-4.8185,-4.8185,-4.8185,-4.8185,-4.8185,-4.8185,-4.8185,-4.8185,-4.8185,-4.8185,-4.8185,-4.8185,-4.8185,-4.8185,-4.8185,-4.8185,-4.8185,-4.8185,-4.8185,-4.8185,-4.8185,-4.8041,-4.7806,-4.7806,-4.7662,-4.7401,-4.7087,-4.6813,-4.6552,-4.6225,-4.5937,-4.5663,-4.5349,-4.5022,-4.4668,-4.4668,-4.4668,-4.4668,-4.4668,-4.4668,-4.4617,-4.4042,-4.3689,-4.3297,-4.246,-4.199,-4.1716,-4.1389,-4.1311,-4.1311,-4.1311,-4.1311,-4.1311,-4.1311,-4.1311,-4.1311,-4.1311,-4.1102,-4.0814,-4.0461,-4.0213,-3.986,-3.9298,-3.9207,-3.8998,-3.8423,-3.8083,-3.79,-3.79,-3.79,-3.79,-3.79,-3.79,-3.79,-3.79,-3.7762,-3.7657,-3.7657,-3.7505,-3.7413,-3.7261,-3.7015,-3.6815,-3.6709,-3.6499,-3.6153,-3.5642,-3.5642,-3.5479,-3.5144,-3.5144,-3.4818,-3.4336,-3.4022,-3.3759,-3.3508,-3.3206,-3.3124,-3.3124,-3.3124,-3.3124,-3.3124]},{"header":{"parameterUnit":"m.s-1","parameterCategory":1,"la1":30.6,"la2":28.766,"lo1":-90.7593,"lo2":-88.6598,"dy":0.0162,"dx":0.0183,"nx":116,"ny":114,"refTime":"2024-05-20T00:00:00:Z","depth":0,"parameterNumber":3,"parameterNumberName":"V-component_of_WINDS"},"data":[0.0,0.0,0.0,0.0,0.0,0.0,0.0,0.0,0.0,0.0,0.0,0.0,0.0,0.0,0.0,0.0,0.0,0.0,0.0,0.0,0.0,0.0,0.0,0.0,0.0,0.0,0.0,0.0,0.0,0.0,0.0,0.0,0.0,0.0,0.0,0.0,0.0,0.0,0.0,0.0,0.0,0.0,0.0,0.0,0.0,0.0,0.0,0.0,0.0,0.0,0.0,0.0,0.0,0.0,0.0,0.0,0.0,0.0,0.0,0.0,0.0,0.0,0.0,0.0,0.0,0.0,0.0,0.0,0.0,0.0,0.0,0.0,0.0,0.0,0.0,0.0,0.0,0.0,0.0,0.0,0.0,0.0,0.0,0.0,0.0,0.0,0.0,0.0,0.0,0.0,0.0,0.0,0.0,0.0,0.0,0.0,0.0,0.0,0.0,0.0,0.0,0.0,0.0,0.0,0.0,0.0,0.0,0.0,0.0,0.0,0.0,0.0,0.0,0.0,0.0,0.0,0.0,0.0,0.0,0.0,0.0,0.0,0.0,0.0,0.0,0.0,0.0,0.0,0.0,0.0,0.0,0.0,0.0,0.0,0.0,0.0,0.0,0.0,0.0,0.0,0.0,0.0,0.0,0.0,0.0,0.0,0.0,0.0,0.0,0.0,0.0,0.0,0.0,0.0,0.0,0.0,0.0,0.0,0.0,0.0,0.0,0.0,0.0,0.0,0.0,0.0,0.0,0.0,0.0,0.0,0.0,0.0,0.0,0.0,0.0,0.0,0.0,0.0,0.0,0.0,0.0,0.0,0.0,0.0,0.0,0.0,0.0,0.0,0.0,0.0,0.0,0.0,0.0,0.0,0.0,0.0,0.0,0.0,0.0,0.0,0.0,0.0,0.0,0.0,0.0,0.0,0.0,0.0,0.0,0.0,0.0,0.0,0.0,0.0,0.0,0.0,0.0,0.0,0.0,0.0,0.0,0.0,0.0,0.0,0.0,0.0,0.0,0.0,0.0,0.0,0.0,0.0,0.0,0.0,0.0,0.0,0.0,0.0,0.0,0.0,0.0,0.0,0.0,0.0,0.0,0.0,0.0,0.0,0.0,0.0,0.0,0.0,0.0,0.0,0.0,0.0,0.0,0.0,0.0,0.0,0.0,0.0,0.0,0.0,0.0,0.0,0.0,0.0,0.0,0.0,0.0,0.0,0.0,0.0,0.0,0.0,0.0,0.0,0.0,0.0,0.0,0.0,0.0,0.0,0.0,0.0,0.0,0.0,0.0,0.0,0.0,0.0,0.0,0.0,0.0,0.0,0.0,0.0,0.0,0.0,0.0,0.0,0.0,0.0,0.0,0.0,0.0,0.0,0.0,0.0,0.0,0.0,0.0,0.0,0.0,0.0,0.0,0.0,0.0,0.0,0.0,0.0,0.0,0.0,0.0,0.0,0.0,0.0,0.0,0.0,0.0,0.0,0.0,0.0,0.0,0.0,0.0,0.0,0.0,0.0,0.0,0.0,0.0,0.0,0.0,0.0,0.0,0.0,0.0,0.0,0.0,0.0,0.0,0.0,0.0,0.0,0.0,0.0,0.0,0.0,0.0,0.0,0.0,0.0,0.0,0.0,0.0,0.0,0.0,0.0,0.0,0.0,0.0,0.0,0.0,0.0,0.0,0.0,0.0,0.0,0.0,0.0,0.0,0.0,0.0,0.0,0.0,0.0,0.0,0.0,0.0,0.0,0.0,0.0,0.0,0.0,0.0,0.0,0.0,0.0,0.0,0.0,0.0,0.0,0.0,0.0,0.0,0.0,0.0,0.0,0.0,0.0,0.0,0.0,0.0,0.0,0.0,0.0,0.0,0.0,0.0,0.0,0.0,0.0,0.0,0.0,0.0,0.0,0.0,0.0,0.0,0.0,0.0,0.0,0.0,0.0,0.0,0.0,0.0,0.0,0.0,0.0,0.0,0.0,0.0,0.0,0.0,0.0,0.0,0.0,0.0,0.0,0.0,0.0,0.0,0.0,0.0,0.0,0.0,0.0,0.0,0.0,0.0,0.0,0.0,0.0,0.0,0.0,0.0,0.0,0.0,0.0,0.0,0.0,0.0,0.0,0.0,0.0,0.0,0.0,0.0,0.0,0.0,0.0,0.0,0.0,0.0,0.0,0.0,0.0,0.0,0.0,0.0,0.0,0.0,0.0,0.0,0.0,0.0,0.0,0.0,0.0,0.0,0.0,0.0,0.0,0.0,0.0,0.0,0.0,0.0,0.0,0.0,0.0,0.0,0.0,0.0,0.0,0.0,0.0,0.0,0.0,0.0,0.0,0.0,0.0,0.0,0.0,0.0,0.0,0.0,0.0,0.0,0.0,0.0,0.0,0.0,0.0,0.0,0.0,0.0,0.0,0.0,0.0,0.0,0.0,0.0,0.0,0.0,0.0,0.0,0.0,0.0,0.0,0.0,0.0,0.0,0.0,0.0,0.0,0.0,0.0,0.0,0.0,0.0,0.0,0.0,0.0,0.0,0.0,0.0,0.0,0.0,0.0,0.0,0.0,0.0,0.0,0.0,0.0,0.0,0.0,0.0,0.0,0.0,0.0,0.0,0.0,0.0,0.0,0.0,0.0,0.0,0.0,0.0,0.0,0.0,0.0,0.0,0.0,0.0,0.0,0.0,0.0,0.0,0.0,0.0,0.0,0.0,0.0,0.0,0.0,0.0,0.0,0.0,0.0,0.0,0.0,0.0,0.0,0.0,0.0,0.0,0.0,0.0,0.0,0.0,0.0,0.0,0.0,0.0,0.0,0.0,0.0,0.0,0.0,0.0,0.0,0.0,0.0,0.0,0.0,0.0,0.0,0.0,0.0,0.0,0.0,0.0,0.0,0.0,0.0,0.0,0.0,0.0,0.0,0.0,0.0,0.0,0.0,0.0,0.0,0.0,0.0,0.0,0.0,0.0,0.0,0.0,0.0,0.0,0.0,0.0,0.0,0.0,0.0,0.0,0.0,0.0,0.0,0.0,0.0,0.0,0.0,0.0,0.0,0.0,0.0,0.0,0.0,0.0,0.0,0.0,0.0,0.0,0.0,0.0,0.0,0.0,0.0,0.0,0.0,0.0,0.0,0.0,0.0,0.0,0.0,0.0,0.0,0.0,0.0,0.0,0.0,0.0,0.0,0.0,0.0,0.0,0.0,0.0,0.0,0.0,0.0,0.0,0.0,0.0,0.0,0.0,0.0,0.0,0.0,0.0,0.0,0.0,0.0,0.0,0.0,0.0,0.0,0.0,0.0,0.0,0.0,0.0,0.0,0.0,0.0,0.0,0.0,0.0,0.0,0.0,0.0,0.0,0.0,0.0,0.0,0.0,0.0,0.0,0.0,0.0,0.0,0.0,0.0,0.0,0.0,0.0,0.0,0.0,0.0,0.0,0.0,0.0,0.0,0.0,0.0,0.0,0.0,0.0,0.0,0.0,0.0,0.0,0.0,0.0,0.0,0.0,0.0,0.0,0.0,0.0,0.0,0.0,0.0,0.0,0.0,0.0,0.0,0.0,0.0,0.0,0.0,0.0,0.0,0.0,0.0,0.0,0.0,0.0,0.0,0.0,0.0,0.0,0.0,0.0,0.0,0.0,0.0,0.0,0.0,0.0,0.0,0.0,0.0,0.0,0.0,0.0,0.0,0.0,0.0,0.0,0.0,0.0,0.0,0.0,0.0,0.0,0.0,0.0,0.0,0.0,0.0,0.0,0.0,0.0,0.0,0.0,0.0,0.0,0.0,0.0,0.0,0.0,0.0,0.0,0.0,0.0,0.0,0.0,0.0,0.0,0.0,0.0,0.0,0.0,0.0,0.0,0.0,0.0,0.0,0.0,0.0,0.0,0.0,0.0,0.0,0.0,0.0,0.0,0.0,0.0,0.0,0.0,0.0,0.0,0.0,0.0,0.0,0.0,0.0,0.0,0.0,0.0,0.0,0.0,0.0,0.0,0.0,0.0,0.0,0.0,0.0,0.0,0.0,0.0,0.0,0.0,0.0,0.0,0.0,0.0,0.0,0.0,0.0,0.0,0.0,0.0,0.0,0.0,0.0,0.0,0.0,0.0,0.0,0.0,0.0,0.0,0.0,0.0,0.0,0.0,0.0,0.0,0.0,0.0,0.0,0.0,0.0,0.0,0.0,0.0,0.0,0.0,0.0,0.0,0.0,0.0,0.0,0.0,0.0,0.0,0.0,0.0,0.0,0.0,0.0,0.0,0.0,0.0,0.0,0.0,0.0,0.0,0.0,0.0,0.0,0.0,0.0,0.0,0.0,0.0,0.0,0.0,0.0,0.0,0.0,0.0,0.0,0.0,0.0,0.0,0.0,0.0,0.0,0.0,0.0,0.0,0.0,0.0,0.0,0.0,0.0,0.0,0.0,0.0,0.0,0.0,0.0,0.0,0.0,0.0,0.0,0.0,0.0,0.0,0.0,0.0,0.0,0.0,0.0,0.0,0.0,0.0,0.0,0.0,0.0,0.0,0.0,0.0,0.0,0.0,0.0,0.0,0.0,0.0,0.0,0.0,0.0,0.0,0.0,0.0,0.0,0.0,0.0,0.0,0.0,0.0,0.0,0.0,0.0,0.0,0.0,0.0,0.0,0.0,0.0,0.0,0.0,0.0,0.0,0.0,0.0,0.0,0.0,0.0,0.0,0.0,0.0,0.0,0.0,0.0,0.0,0.0,0.0,0.0,0.0,0.0,0.0,0.0,0.0,0.0,0.0,0.0,0.0,0.0,0.0,0.0,0.0,0.0,0.0,0.0,0.0,0.0,0.0,0.0,0.0,0.0,0.0,0.0,0.0,0.0,0.0,0.0,0.0,0.0,0.0,0.0,0.0,0.0,0.0,0.0,0.0,0.0,0.0,0.0,0.0,0.0,0.0,0.0,0.0,0.0,0.0,0.0,0.0,0.0,0.0,0.0,0.0,0.0,0.0,0.0,0.0,0.0,0.0,0.0,0.0,0.0,0.0,0.0,0.0,0.0,0.0,0.0,0.0,0.0,0.0,0.0,0.0,0.0,0.0,0.0,0.0,0.0,0.0,0.0,0.0,0.0,0.0,0.0,0.0,0.0,0.0,0.0,0.0,0.0,0.0,0.0,0.0,0.0,0.0,0.0,0.0,0.0,0.0,0.0,0.0,0.0,0.0,0.0,0.0,0.0,0.0,0.0,0.0,0.0,0.0,0.0,0.0,0.0,0.0,0.0,0.0,0.0,0.0,0.0,0.0,0.0,0.0,0.0,0.0,0.0,0.0,0.0,0.0,0.0,0.0,0.0,0.0,0.0,0.0,0.0,0.0,0.0,0.0,0.0,0.0,0.0,0.0,0.0,0.0,0.0,0.0,0.0,0.0,0.0,0.0,0.0,0.0,0.0,0.0,0.0,0.0,0.0,0.0,0.0,0.0,0.0,0.0,0.0,0.0,0.0,0.0,0.0,0.0,0.0,0.0,0.0,0.0,0.0,0.0,0.0,0.0,0.0,0.0,0.0,0.0,0.0,0.0,0.0,0.0,0.0,0.0,0.0,0.0,0.0,0.0,0.0,0.0,0.0,0.0,0.0,0.0,0.0,0.0,0.0,0.0,0.0,0.0,0.0,0.0,0.0,0.0,0.0,0.0,0.0,0.0,0.0,0.0,0.0,0.0,0.0,0.0,0.0,0.0,0.0,0.0,0.0,0.0,0.0,0.0,0.0,0.0,0.0,0.0,0.0,0.0,0.0,0.0,0.0,0.0,0.0,0.0,0.0,0.0,0.0,0.0,0.0,0.0,0.0,0.0,0.0,0.0,0.0,0.0,0.0,0.0,0.0,0.0,0.0,0.0,0.0,0.0,0.0,0.0,0.0,0.0,0.0,0.0,0.0,0.0,0.0,0.0,0.0,0.0,0.0,0.0,0.0,0.0,0.0,0.0,0.0,0.0,0.0,0.0,0.0,0.0,0.0,0.0,0.0,0.0,0.0,0.0,0.0,0.0,0.0,0.0,0.0,0.0,0.0,0.0,0.0,0.0,0.0,0.0,0.0,0.0,0.0,0.0,0.0,0.0,0.0,0.0,0.0,0.0,0.0,0.0,0.0,0.0,1.1955,0.0,0.0,0.0,0.0,0.0,0.0,0.0,0.0,0.0,0.0,0.0,0.0,0.0,0.0,0.0,0.0,0.0,0.0,0.0,0.0,0.0,0.0,0.0,0.0,1.0586,1.0684,1.0899,1.0919,1.0919,1.0919,0.0,0.0,0.0,0.0,0.0,1.0504,1.0302,1.0623,1.1476,1.1235,1.1391,1.1848,1.1932,1.1446,1.0499,0.0,0.0,0.0,0.0,0.0,0.0,0.0,0.0,0.0,0.0,0.0,0.0,0.0,0.0,0.0,0.0,0.0,0.0,0.0,0.0,0.0,0.0,0.0,0.0,0.0,0.0,0.0,0.0,0.0,0.0,0.0,0.0,0.0,0.0,0.0,0.0,0.0,0.0,0.0,0.0,0.0,0.0,0.0,0.0,0.0,0.0,0.0,0.0,0.0,0.0,0.0,0.0,0.0,0.0,0.0,0.0,0.0,0.0,0.0,0.0,0.0,0.0,0.0,0.0,0.0,0.0,0.0,0.0,0.0,0.0,0.0,1.3127,0.0,0.0,0.0,0.0,0.0,0.0,0.0,0.0,0.0,0.0,0.0,0.0,0.0,0.0,0.0,0.0,0.0,0.0,0.0,0.0,0.0,0.9695,1.0903,1.1039,1.1243,1.1794,1.1689,1.1636,1.1692,1.1645,0.0,0.0,0.0,1.1223,1.1624,1.1562,1.2218,1.3625,1.3524,1.3736,1.4189,1.4513,1.3683,1.1873,1.1573,0.0,0.0,0.0,0.0,0.0,0.0,0.0,0.0,0.0,0.0,0.0,0.0,0.0,0.0,0.0,0.0,0.0,0.0,0.0,0.0,0.0,0.0,0.0,0.0,0.0,0.0,0.0,0.0,0.0,0.0,0.0,0.0,0.0,0.0,0.0,0.0,0.0,0.0,0.0,0.0,0.0,0.0,0.0,0.0,0.0,0.0,0.0,0.0,0.0,0.0,0.0,0.0,0.0,0.0,0.0,0.0,0.0,0.0,0.0,0.0,0.0,0.0,0.0,1.7773,1.8193,1.8457,1.871,1.8849,1.8798,1.7194,1.613,1.5515,1.4511,0.0,0.0,0.0,0.0,0.0,0.0,0.0,0.0,0.0,0.0,0.0,0.0,0.0,0.0,0.0,0.0,0.0,0.0,0.0,1.0507,1.1499,1.1536,1.1848,1.2746,1.2075,1.1751,1.2096,1.18,0.0,0.0,1.1518,1.1724,1.2172,1.181,1.2418,1.4126,1.5493,1.6418,1.6875,1.6934,1.6799,1.6409,1.4162,1.3332,1.3529,0.0,0.0,0.0,0.0,0.0,0.0,0.0,0.0,0.0,0.0,0.0,0.0,0.0,0.0,0.0,0.0,0.0,0.0,0.0,0.0,0.0,0.0,0.0,0.0,0.0,0.0,0.0,0.0,0.0,0.0,0.0,0.0,0.0,0.0,0.0,0.0,0.0,0.0,0.0,0.0,0.0,1.2455,1.2631,0.0,0.0,0.0,0.0,0.0,0.0,0.0,0.0,0.0,0.0,0.0,0.0,0.0,1.7158,1.7578,1.8799,1.9258,1.8965,2.0156,2.0547,2.0263,2.0425,2.0501,2.0482,2.0419,0.0,1.7864,1.655,0.0,0.0,0.0,0.0,0.0,0.0,0.0,0.0,0.0,0.0,0.0,0.0,0.0,0.0,0.0,0.0,0.0,0.0,0.0,0.0,0.0,1.2556,1.3027,1.3936,1.4083,1.3893,1.3305,1.3606,1.3246,1.2005,1.2225,1.2349,1.226,1.2519,1.3771,1.5998,1.7687,1.8588,1.8809,1.9053,1.9206,1.9147,1.7725,1.6254,1.4802,1.4127,0.0,0.0,0.0,0.0,0.0,0.0,0.0,0.0,0.0,0.0,0.0,0.0,0.0,0.0,0.0,0.0,0.0,0.0,0.0,0.0,0.0,0.0,0.0,0.0,0.0,0.0,0.0,0.0,0.0,0.0,0.0,0.0,0.0,0.0,0.0,0.0,0.0,0.0,0.0,1.2373,1.3558,1.3558,1.3799,1.3682,0.0,0.0,0.0,0.0,0.0,0.0,0.0,0.0,0.0,1.8135,1.8584,1.9131,1.9777,2.0615,2.1055,2.1113,2.168,2.1973,2.2012,2.2229,2.2312,2.2302,2.23,2.1877,2.1104,1.898,1.7768,1.7144,0.0,0.0,0.0,0.0,1.5901,1.5963,0.0,0.0,0.0,0.0,0.0,0.0,0.0,0.0,0.0,0.0,0.0,0.0,1.3262,1.3669,1.4282,1.5396,1.5851,1.5733,1.4825,1.4999,1.4403,1.2749,1.2993,1.3014,1.2714,1.4011,1.5713,1.7905,1.958,2.0478,2.0586,2.0908,2.1104,2.1085,2.0615,1.8984,1.6525,1.6161,1.5033,1.3429,0.0,0.0,0.0,0.0,0.0,0.0,0.0,0.0,0.0,0.0,0.0,0.0,0.0,0.0,0.0,0.0,0.0,0.0,0.0,0.0,0.0,0.0,0.0,0.0,0.0,0.0,0.0,0.0,0.0,0.0,0.0,0.0,0.0,0.0,0.0,0.0,0.0,1.3711,1.4728,1.4611,1.54,1.5469,0.0,0.0,0.0,0.0,0.0,0.0,1.8164,1.8496,1.9111,2.0078,2.0518,2.1103,2.1885,2.2314,2.2685,2.2998,2.2891,2.3008,2.3301,2.3368,2.3406,2.3396,2.3242,2.3273,2.3199,2.09,1.9752,1.9355,1.8676,1.8359,1.8337,1.8391,1.8463,1.8597,0.0,0.0,0.0,0.0,0.0,0.0,0.0,0.0,0.0,0.0,0.0,1.241,1.4658,1.4795,1.5435,1.7195,1.6586,1.6221,1.6551,1.5068,1.4121,1.4016,1.3725,1.3738,1.4076,1.6583,1.8325,1.9189,2.0937,2.1992,2.2383,2.2402,2.2412,2.2402,2.1973,2.1006,1.958,1.7988,1.6703,1.558,1.3887,0.0,0.0,0.0,0.0,0.0,0.0,0.0,0.0,0.0,0.0,0.0,0.0,0.0,0.0,0.0,0.0,0.0,0.0,0.0,0.0,0.0,0.0,0.0,0.0,0.0,0.0,0.0,0.0,0.0,0.0,0.0,0.0,0.0,0.0,0.0,0.0,0.0,0.0,1.6046,1.7827,0.0,0.0,0.0,0.0,1.7852,1.8237,1.9092,2.038,2.0468,2.1025,2.2314,2.2711,2.3149,2.3652,2.4082,2.4297,2.4316,2.3916,2.374,2.374,2.333,2.3135,2.3135,2.3115,2.3105,2.3012,2.1888,2.1418,2.137,2.0576,2.02,2.0104,2.0225,2.0529,2.0886,0.0,0.0,0.0,0.0,0.0,0.8897,0.9477,1.0206,1.1025,1.1933,1.2993,1.4199,1.5604,1.6196,1.6929,1.8097,1.8169,1.7852,1.7197,1.6647,1.6071,1.5429,1.5855,1.6634,1.7771,1.8509,1.9558,2.0957,2.1855,2.251,2.2877,2.2877,2.2877,2.2867,2.2754,2.2275,2.1455,1.9453,1.8086,1.7096,1.534,1.3694,0.0,0.0,0.0,0.0,0.0,0.0,0.0,0.0,0.0,0.0,0.0,0.0,0.0,0.0,0.0,0.0,0.0,0.0,0.0,0.0,0.0,0.0,0.0,0.0,0.0,0.0,0.0,0.0,0.0,0.0,0.0,0.0,0.0,0.0,0.0,0.0,0.0,1.8125,1.9343,0.0,1.8306,1.8799,1.9355,1.9639,2.0566,2.1445,2.2187,2.2744,2.3252,2.3721,2.3842,2.4033,2.4189,2.4346,2.4414,2.4414,2.4258,2.4199,2.4189,2.3988,2.3818,2.3555,2.3555,2.3487,2.3357,2.3072,2.2724,2.2321,2.2075,2.1919,2.189,2.2123,2.2304,2.2428,0.0,0.0,0.0,0.0,0.9166,0.9292,1.0023,1.0838,1.1755,1.2806,1.3916,1.5122,1.6496,1.7213,1.7998,1.8939,1.9199,1.9033,1.8407,1.7916,1.731,1.6477,1.6945,1.8066,1.9823,1.9929,2.0654,2.21,2.2519,2.2818,2.3091,2.3091,2.3091,2.3091,2.3091,2.2945,2.2617,2.1045,1.9707,1.8486,1.6924,1.5443,1.4139,0.0,0.0,0.0,0.0,0.0,0.0,0.0,0.0,0.0,0.0,0.0,0.0,0.0,0.0,0.0,0.0,0.0,0.0,0.0,0.0,0.0,0.0,0.0,0.0,0.0,0.0,0.0,0.0,0.0,0.0,0.0,0.0,0.0,0.0,0.0,1.9394,1.9678,2.0899,2.13,2.0264,2.0937,2.1494,2.1681,2.2588,2.3281,2.351,2.4111,2.4414,2.4414,2.456,2.4639,2.4639,2.4785,2.4816,2.4863,2.4707,2.4639,2.4629,2.4482,2.4258,2.4004,2.4004,2.3849,2.3634,2.3755,2.3454,2.2942,2.3243,2.3381,2.3381,2.3557,2.3639,2.3629,0.0,0.0,0.0,0.9462,0.9567,1.0038,1.101,1.1268,1.2023,1.3918,1.4232,1.5135,1.7308,1.7849,1.8555,1.9842,1.9531,1.9594,2.0237,1.8725,1.7624,1.7245,1.6957,1.7879,2.0078,2.0848,2.1648,2.2529,2.2896,2.3091,2.3091,2.3091,2.3091,2.3091,2.3091,2.3091,2.3071,2.2705,2.1553,1.9883,1.8603,1.7535,1.6531,0.0,0.0,0.0,0.0,0.0,0.0,0.0,0.0,0.0,0.0,0.0,0.0,0.0,0.0,0.0,0.0,0.0,0.0,0.0,0.0,0.0,0.0,0.0,0.0,0.0,0.0,0.0,0.0,0.0,0.0,0.0,0.0,0.0,1.8174,1.9597,2.0674,2.0723,2.2529,2.332,2.209,2.3447,2.4248,2.3838,2.4199,2.4443,2.4453,2.4453,2.4473,2.4492,2.4893,2.5165,2.5174,2.5557,2.5723,2.5703,2.5312,2.5145,2.5116,2.4648,2.4453,2.4434,2.4434,2.4199,2.3809,2.3789,2.3535,2.3198,2.411,2.4497,2.4497,2.4497,2.4497,2.4435,0.0,0.0,0.9854,0.9711,0.9685,0.9848,1.0276,1.146,1.2561,1.3237,1.4988,1.6818,1.8602,1.8907,1.9443,2.0642,1.9889,1.9465,1.983,1.8512,1.8354,1.9734,1.9885,2.0807,2.2653,2.2335,2.2389,2.2925,2.3042,2.3091,2.3091,2.3091,2.3091,2.3091,2.3091,2.3091,2.3135,2.369,2.3092,2.1689,2.0381,1.916,1.8018,0.0,0.0,0.0,0.0,0.0,0.0,0.0,0.0,0.0,0.0,0.0,0.0,0.0,0.0,0.0,0.0,0.0,0.0,0.0,0.0,0.0,0.0,0.0,0.0,0.0,0.0,0.0,0.0,0.0,0.0,0.0,0.0,2.084,2.0372,2.1289,2.2324,2.3252,2.3887,2.4111,2.376,2.4141,2.4365,2.4248,2.4639,2.5029,2.5313,2.5323,2.5615,2.6279,2.6123,2.6172,2.6475,2.6602,2.6514,2.6211,2.6084,2.5859,2.5547,2.5382,2.5195,2.4893,2.4893,2.4639,2.4219,2.4096,2.3935,2.3841,2.3961,2.397,2.4013,2.4368,2.4497,2.4476,0.0,0.9905,0.988,0.9802,0.9763,0.9917,1.0417,1.1792,1.3012,1.3706,1.5616,1.7499,1.9129,1.9121,1.9425,2.0421,1.9859,1.9479,1.9533,1.9342,1.9939,2.1586,2.1717,2.2231,2.3188,2.289,2.2847,2.3091,2.3091,2.3091,2.3091,2.3091,2.3091,2.3091,2.3091,2.3309,2.3734,2.4284,2.4258,2.378,2.2675,2.1332,1.993,1.9217,1.8255,1.7239,1.6826,1.6347,1.5752,1.4941,0.0,0.0,0.0,0.0,0.0,0.0,0.0,0.0,0.0,0.0,0.0,0.0,0.0,0.0,0.0,0.0,0.0,0.0,0.0,0.0,0.0,0.0,0.0,0.0,2.1074,2.251,2.2793,2.3115,2.3652,2.458,2.4687,2.4834,2.5205,2.5244,2.5312,2.5488,2.5742,2.5996,2.621,2.622,2.6504,2.6992,2.6777,2.6768,2.7012,2.7012,2.6894,2.665,2.665,2.6426,2.6006,2.6006,2.5771,2.5352,2.5352,2.5098,2.4668,2.4562,2.4392,0.0,0.0,0.0,0.0,0.0,2.4497,2.4497,0.0,0.9905,0.988,0.9815,0.9802,1.0107,1.101,1.2093,1.3283,1.4574,1.5986,1.7431,1.9008,1.8734,1.8785,1.9586,1.962,1.9572,1.9517,2.0662,2.1801,2.2759,2.2654,2.2595,2.2568,2.2906,2.3091,2.3091,2.3091,2.3091,2.3091,2.3091,2.3091,2.3091,2.3091,2.3604,2.4498,2.4498,2.4988,2.5746,2.4956,2.3623,2.1942,2.0273,1.9824,1.9863,1.8359,1.7783,1.7559,1.6328,0.0,0.0,0.0,0.0,0.0,0.0,0.0,0.0,0.0,0.0,0.0,0.0,0.0,0.0,0.0,0.0,0.0,0.0,0.0,0.0,0.0,0.0,0.0,0.0,2.2448,2.3779,2.4971,2.4853,2.4785,2.5213,2.5262,2.5595,2.6377,2.6455,2.6621,2.6982,2.7012,2.7041,2.709,0.0,0.0,0.0,0.0,2.7109,2.7158,2.7158,2.7139,2.709,2.709,2.6865,2.6455,2.6406,2.6172,2.5762,2.5713,2.5508,2.5137,2.5135,2.4814,2.4336,2.3968,2.3978,2.4239,2.4411,2.4497,2.4497,0.0,0.9905,0.9893,0.988,0.9841,1.004,1.0695,1.1981,1.3103,1.3773,1.544,1.6994,1.8145,1.787,1.8088,1.9191,1.9212,1.9593,2.0681,2.1463,2.2124,2.2691,2.2604,2.267,2.2964,2.3052,2.3091,2.3091,2.3091,2.3091,2.3091,2.3091,2.3091,2.3091,2.3091,2.3604,2.4498,2.4498,2.4988,2.5788,2.5621,2.4703,2.3318,2.2292,2.1473,2.0898,2.0566,2.0264,1.9891,1.9248,1.8549,1.7876,1.7324,0.0,0.0,0.0,0.0,0.0,0.0,0.0,0.0,0.0,0.0,0.0,0.0,0.0,0.0,0.0,0.0,0.0,0.0,0.0,0.0,2.21,2.3633,2.4912,2.5527,2.584,2.6045,2.6123,2.6133,2.6338,2.6846,2.6894,2.6934,2.7012,2.7012,2.7168,2.7519,2.7207,2.7334,2.8027,2.7715,2.7705,2.8047,2.8047,2.7881,2.7539,0.0,0.0,2.6885,2.6543,2.6338,2.624,2.584,2.5635,2.5586,2.5215,2.4814,2.4365,2.4127,2.4196,2.4411,2.4282,2.4368,2.4497,0.9905,0.9905,0.9905,0.9905,1.0092,1.043,1.0961,1.2147,1.3368,1.4367,1.5423,1.6646,1.8055,1.7567,1.7437,1.8175,1.8121,1.8904,2.0908,2.2128,2.2809,2.2886,2.371,2.3835,2.3135,2.3091,2.3091,2.3091,2.3091,2.3091,2.3091,2.3091,2.3091,2.3135,2.3604,2.4069,2.4584,2.5463,2.6091,2.6505,2.6505,2.6102,2.5357,2.3988,2.2931,2.2116,2.1902,2.1592,2.1163,2.0459,1.9951,1.9453,1.8594,1.7545,1.6494,0.0,0.0,0.0,0.0,0.0,0.0,0.0,0.0,0.0,0.0,0.0,0.0,0.0,0.0,1.9365,0.0,0.0,2.2871,2.3955,2.5029,2.5879,2.6318,2.6562,2.6699,2.6699,2.6699,2.6865,2.7305,2.7344,2.7422,2.7637,2.7656,2.7744,2.7969,2.7773,2.7851,2.8281,2.8086,2.8086,2.8291,2.8291,2.8193,2.7978,2.7978,2.7754,2.7334,2.7119,2.6797,2.6377,2.6162,2.5937,2.5674,2.5498,2.5184,2.4903,2.4835,2.4676,2.4469,2.4288,2.4335,2.4497,0.9905,0.9905,0.9905,0.9905,1.0344,1.0853,1.134,1.2386,1.3598,1.4905,1.5397,1.6183,1.7615,1.7096,1.6825,1.7265,1.7461,1.8621,2.1063,2.2571,2.3361,2.3332,2.4751,2.4776,2.3144,2.3266,2.3266,2.3091,2.3091,2.3091,2.3091,2.3091,2.3091,2.3135,2.4069,2.4573,2.4829,2.6299,2.7133,2.7429,2.7267,2.7185,2.704,2.544,2.4193,2.3175,2.2883,2.2296,2.1533,2.0948,2.0615,2.0273,1.9316,1.8861,1.8442,1.6992,1.6418,0.0,0.0,0.0,0.0,0.0,0.0,0.0,0.0,0.0,1.8643,2.0,2.0557,2.124,2.2734,2.3643,2.4541,2.5625,2.623,2.666,2.708,2.7139,2.7139,2.7139,2.7139,2.7314,2.7744,2.7836,2.793,2.8271,2.8291,2.8291,2.8291,2.8291,2.8291,2.8291,2.8291,2.8291,2.8291,2.8291,2.8291,2.8291,2.8291,2.8115,2.7783,2.7757,2.7337,2.6631,2.6455,2.6191,2.581,2.5723,2.5614,2.547,2.5439,2.5123,2.4651,2.4358,2.4415,2.4621,0.0,0.9905,0.9905,0.9905,1.0344,1.0853,1.134,1.2419,1.3366,1.3821,1.4737,1.5382,1.5464,1.5623,1.6166,1.7208,1.8464,2.0031,2.1947,2.2521,2.3178,2.4039,2.4461,2.4155,2.3135,2.3897,2.394,2.3091,2.3091,2.3091,2.3091,2.3091,2.3091,2.3135,2.4069,2.4914,2.5652,2.5872,2.6876,2.8299,2.751,2.7185,2.7139,2.6439,2.5156,2.371,2.3659,2.2402,2.0801,2.1055,2.0596,2.0029,2.0273,1.9824,1.9102,1.8481,0.0,1.6609,1.6502,1.6865,1.7543,1.8643,1.8711,1.9251,0.0,0.0,2.1846,2.3496,2.3877,2.4092,2.4724,2.5185,2.5645,2.623,2.667,2.709,2.7581,2.7598,2.7598,2.7598,2.7598,2.7764,2.8184,2.8223,2.8242,2.8291,2.8291,2.8291,2.8291,2.8291,2.8291,2.8291,2.8291,2.8291,2.8291,2.8291,2.8291,2.8291,2.8291,2.8271,2.8203,2.7832,2.7669,2.7532,2.6719,2.6357,2.6289,2.5849,2.5713,2.5625,2.5272,2.5189,2.5245,2.4656,2.4744,2.5055,0.0,0.9905,1.0006,1.0306,1.0833,1.1297,1.1492,1.2468,1.3381,1.3864,1.4196,1.4489,1.477,1.5144,1.5521,1.5939,1.7624,1.9229,2.0489,2.2491,2.361,2.3583,2.4668,2.4573,2.3135,2.4026,2.4036,2.3091,2.3647,2.3907,2.3907,2.3907,2.3907,2.3983,2.5421,2.5704,2.5158,2.6712,2.751,2.7765,2.7886,2.7789,2.7455,2.7242,2.5814,2.3952,2.372,2.2654,0.0,0.0,2.0642,2.0049,1.9868,1.958,1.915,1.8467,1.8242,0.0,1.9114,1.9297,0.0,0.0,2.1035,2.165,2.3139,2.3203,2.334,2.4551,2.4795,2.501,2.5713,2.6191,2.6621,0.0,2.748,2.7822,2.8008,2.7875,2.7718,2.7718,2.7441,2.7461,2.7891,2.8144,2.8291,2.8291,2.8291,2.8291,2.8291,2.8291,2.8291,2.8291,2.8291,2.8291,2.8291,2.8291,2.8291,2.8291,2.8291,2.8291,2.8281,2.8115,2.79,2.7679,2.7021,2.6621,2.6377,2.6191,2.5967,2.5713,2.571,2.5727,2.5714,2.5127,2.4915,2.4927,0.0,1.0018,1.0244,1.0631,1.1309,1.1814,1.1814,1.2613,1.3366,1.379,1.3797,1.3951,1.4516,1.4943,1.5177,1.5118,1.6809,1.8294,1.9199,2.1753,2.318,2.3085,2.4729,2.4882,2.3295,2.4298,2.4284,2.3091,2.4036,2.4498,2.4498,2.4744,2.4872,2.4914,2.6505,2.6464,2.5379,2.7336,2.7926,2.7539,2.7561,2.749,2.7308,2.6665,2.5389,2.3862,2.3586,2.2499,0.0,0.0,1.9908,1.9386,1.8932,1.8838,1.8887,1.8613,1.915,1.998,2.0644,0.0,0.0,2.1894,2.2793,2.3535,2.3707,2.3971,2.4355,2.5098,2.5254,2.5488,2.625,2.6728,2.7158,2.7598,2.8018,2.8291,2.8291,2.793,2.7669,2.75,2.7207,2.709,2.7346,2.7803,2.8164,2.8281,2.8291,2.8291,2.8291,2.8291,2.8291,2.8291,2.8291,2.8291,2.8291,2.8291,2.8291,2.8291,2.8291,2.8291,2.8291,2.8291,2.8125,2.7812,2.7383,2.6953,2.6553,2.6435,2.6172,2.582,2.6004,2.61,2.6069,2.5678,2.5396,2.5151,0.0,0.0,1.0681,1.0694,1.1635,1.2391,1.2391,1.2835,1.321,1.3223,1.3627,1.4038,1.4452,1.4911,1.5252,1.5389,1.6637,1.7855,1.8854,1.9939,2.1261,2.2936,2.4417,2.4734,2.3711,2.5049,2.4904,2.3091,2.4036,2.4498,2.4541,2.5368,2.5746,2.5777,2.6764,2.7185,2.7133,2.7185,2.7725,2.8263,2.6152,2.5788,2.6295,2.4078,2.3327,2.342,2.3407,2.1587,1.9115,1.8561,1.8016,1.7571,1.7468,1.7725,0.0,1.9502,2.044,0.0,0.0,0.0,2.2461,2.249,2.3437,2.4492,2.4959,2.5067,2.5166,2.5625,2.5664,2.581,2.6309,2.6728,2.7158,2.7598,2.8018,2.8291,2.8291,2.793,2.751,2.709,2.7021,2.6865,0.0,2.7187,2.7851,2.8262,2.8291,2.8291,2.8291,2.8291,2.8291,2.8291,2.8291,2.8291,2.8291,2.8291,2.8291,2.8291,2.8291,2.8291,2.8291,2.8291,2.8281,2.8252,2.7832,2.7402,2.6963,2.6553,2.6271,2.61,2.61,2.61,2.6139,2.637,2.6327,2.6007,0.0,0.0,0.0,1.1698,1.2149,1.2513,1.2889,1.3085,1.3198,1.3198,1.3615,0.0,0.0,0.0,0.0,0.0,1.6727,1.7884,1.8401,2.0421,2.1734,2.2047,2.3418,2.3946,2.3562,2.3888,2.3908,2.3505,2.4503,2.4829,2.4541,2.5411,2.5495,2.4988,2.6505,2.6835,2.6318,2.719,2.7909,2.8362,2.6517,2.5974,2.6117,2.4976,2.3521,2.2072,0.0,2.0998,1.9396,1.8431,1.7702,1.7212,1.7053,0.0,0.0,1.8603,1.9482,2.0254,2.1629,0.0,2.2783,2.3926,2.4531,2.4961,2.541,2.5518,2.5469,2.5322,2.5293,2.5342,2.5488,2.5869,2.6396,2.7119,2.7598,2.7978,2.8252,2.793,2.751,2.707,2.6768,0.0,0.0,0.0,0.0,2.7894,2.7881,2.8125,2.8682,2.8711,2.8711,2.8711,2.8711,2.8574,2.8291,2.8291,2.8291,2.8291,2.8291,2.8291,2.8291,2.8291,2.8291,2.8281,2.8144,2.7842,2.7412,2.6982,2.6683,2.6487,2.621,2.6197,2.64,2.6448,2.6559,2.6496,0.0,0.0,0.0,0.0,0.0,0.0,0.0,0.0,0.0,0.0,0.0,0.0,0.0,0.0,0.0,0.0,0.0,0.0,1.7645,1.9381,2.0544,2.0842,2.1854,2.2416,2.252,2.2412,2.2469,2.2762,2.3715,2.4248,2.436,2.4963,2.4963,2.4481,2.565,2.5847,2.53,2.6058,2.674,2.716,2.5176,2.4448,2.4448,2.3279,2.1689,0.0,1.9738,1.9096,1.8277,1.752,1.6835,1.6322,0.0,0.0,1.7465,1.8545,1.9619,2.084,2.2656,2.3174,2.3496,2.4803,2.5195,2.5381,2.5625,2.5567,2.541,2.5127,2.4871,2.4705,2.4805,2.5068,2.5605,2.6621,2.7158,2.7637,2.8213,2.793,2.7611,2.7285,2.6865,2.6719,0.0,0.0,0.0,2.7851,2.8027,2.835,2.8887,2.9062,2.915,2.915,2.915,2.8945,2.8525,2.8516,2.8437,2.8291,2.8291,2.8291,2.8291,2.8291,2.8291,2.8291,2.8291,2.8057,2.7699,2.7363,2.7037,2.6715,2.6535,2.6482,2.6496,2.6602,2.6699,2.6645,0.0,0.0,0.0,0.0,0.0,0.0,0.0,0.0,0.0,0.0,0.0,0.0,0.0,0.0,0.0,0.0,0.0,0.0,1.6649,1.7014,1.7885,1.9343,1.9859,2.031,2.0744,2.0715,2.0808,2.1035,2.1889,2.2821,2.3836,2.4053,2.4136,2.4123,2.4159,2.4207,2.4195,2.4028,2.4423,2.4943,2.2257,2.1407,2.1487,1.9302,1.8195,1.7682,1.6789,1.6228,0.0,0.0,0.0,0.0,0.0,0.0,0.0,1.9375,2.0869,2.2627,2.3169,2.3857,2.459,2.5077,2.5449,2.5713,2.5664,2.5371,2.5086,2.5008,2.4287,2.3828,0.0,0.0,2.4756,2.6074,2.668,2.7295,2.8203,2.7978,2.7777,0.0,0.0,0.0,0.0,0.0,0.0,2.8291,0.0,2.8916,2.8984,2.9375,2.96,2.96,2.96,2.9394,2.8955,2.8926,2.8721,2.833,2.8301,2.8291,2.8291,2.8291,2.8291,2.8291,2.8291,2.8066,2.7748,2.7728,2.7363,2.6884,2.7051,2.6878,2.6544,2.6853,2.6747,2.6484,0.0,0.0,0.0,0.0,0.0,0.0,0.0,0.0,0.0,0.0,0.0,0.0,0.0,0.0,0.0,0.0,0.0,0.0,1.6322,1.7063,1.7659,1.8064,1.8781,1.9425,2.0055,1.9373,1.9434,2.0274,2.0604,2.0916,2.1248,2.1969,2.2172,2.1958,2.259,2.2868,2.2914,2.3146,2.337,2.3415,2.1518,2.0817,2.0784,1.9818,1.8642,1.752,0.0,0.0,0.0,0.0,0.0,0.0,0.0,0.0,1.9883,0.0,0.0,2.2812,2.4255,2.498,2.546,2.5947,2.6143,2.6055,2.5391,2.5146,2.4707,2.3428,2.2988,2.2578,0.0,0.0,0.0,2.4707,2.583,0.0,2.8555,2.8672,0.0,2.8603,0.0,2.8437,2.8437,2.8437,0.0,0.0,2.875,2.8867,2.9824,2.998,3.0039,3.0039,3.0039,2.9834,2.9414,2.9082,2.8867,2.875,2.8437,2.8291,2.8291,2.8291,2.8291,2.8291,2.8291,2.8232,2.8105,2.7793,2.7653,2.7512,2.7231,2.7122,2.7119,2.7167,2.7167,2.7098,0.0,0.0,0.0,0.0,0.0,0.0,0.0,0.0,0.0,0.0,0.0,0.0,0.0,0.0,0.0,0.0,0.0,0.0,0.0,1.6788,1.7115,1.7229,1.7453,1.7853,1.8463,1.7966,1.8141,1.9032,1.9282,1.9535,1.9831,1.9942,1.9904,1.9764,2.0236,2.0455,2.0494,2.1003,2.1223,0.0,0.0,1.9408,1.9158,1.8602,1.77,0.0,0.0,0.0,0.0,0.0,0.0,1.8478,1.9226,2.0078,2.0947,2.1826,0.0,2.3887,2.5049,2.582,2.6318,2.6377,2.625,2.582,2.4756,2.4209,2.3516,2.1973,2.1504,0.0,0.0,0.0,0.0,0.0,0.0,0.0,2.8408,2.8809,2.8994,0.0,2.9209,0.0,2.9209,2.9209,2.9385,0.0,2.9404,2.9443,3.0156,3.0391,3.0508,3.0508,3.0508,3.0293,2.9853,2.9228,2.8916,2.8916,2.8496,2.8291,2.8291,2.8291,2.8291,2.8291,0.0,2.8291,2.8271,2.8037,2.7894,2.7708,2.7512,2.7318,2.7242,2.7287,2.7309,2.7309,0.0,0.0,0.0,0.0,0.0,0.0,0.0,0.0,0.0,0.0,0.0,0.0,0.0,0.0,0.0,0.0,0.0,0.0,0.0,0.0,0.0,1.6738,1.631,1.6252,1.6669,1.6704,1.6994,1.7565,0.0,0.0,1.888,1.819,1.7867,1.7936,1.7936,1.7936,1.7963,1.8586,1.8773,1.8638,1.8195,1.7676,1.7135,0.0,0.0,0.0,0.0,0.0,0.0,0.0,1.9117,1.9243,2.0466,2.1466,2.2295,2.3139,2.4199,2.5264,2.5771,2.6494,2.7002,2.6572,2.6143,2.5449,2.4033,2.3047,2.2021,2.0596,0.0,1.9531,1.9111,2.0098,2.1395,2.2789,0.0,2.6201,2.8037,2.8652,2.9101,2.96,2.9707,2.9746,2.9746,2.9746,2.9893,3.0264,3.0293,3.0293,3.0293,3.0674,3.0889,3.0889,3.0889,3.0693,3.0293,2.9492,2.9062,2.9004,2.8584,2.834,2.8291,2.8291,2.8291,2.8344,2.8291,2.8291,2.8344,2.8291,2.81,2.7826,2.7792,2.7542,2.7188,2.7284,2.7309,2.7309,0.0,0.0,0.0,0.0,0.0,0.0,0.0,0.0,0.0,0.0,1.4972,1.4979,0.0,0.0,0.0,0.0,0.0,0.0,0.0,0.0,0.0,1.6464,1.6377,1.6278,1.6134,0.0,0.0,0.0,0.0,0.0,1.7382,1.7122,1.7231,1.7676,1.7676,1.7601,1.7528,1.7861,1.7606,1.7027,1.7036,1.6662,1.6078,0.0,0.0,0.0,0.0,0.0,0.0,0.0,2.0755,2.0918,2.1855,2.2764,2.3555,2.4053,2.4873,2.5791,2.6582,2.7168,2.7451,2.7012,2.6582,2.5752,2.3775,2.2607,0.0,0.0,0.0,1.8213,1.7793,1.876,2.0283,2.2295,0.0,0.0,0.0,0.0,2.9209,0.0,0.0,0.0,0.0,0.0,0.0,0.0,3.0771,3.0771,3.0771,3.085,3.0889,3.0889,3.0889,3.085,3.0771,3.0244,2.9805,2.9453,2.9014,2.8633,2.8291,2.8291,2.8408,2.8621,2.8408,0.0,2.8621,2.8398,2.8301,2.8334,2.7944,2.7782,2.7726,2.7417,2.7309,2.7309,0.0,0.0,0.0,0.0,0.0,0.0,0.0,1.4765,1.5324,1.6455,1.6606,1.6484,1.6158,1.5869,1.5919,0.0,0.0,0.0,0.0,0.0,0.0,0.0,0.0,1.6318,0.0,0.0,0.0,0.0,0.0,0.0,0.0,0.0,0.0,0.0,0.0,0.0,0.0,0.0,0.0,0.0,0.0,0.0,0.0,0.0,0.0,0.0,0.0,0.0,0.0,0.0,1.9877,2.081,2.2617,2.3457,2.3916,2.456,2.5381,2.6211,2.6846,2.749,2.7832,2.7178,2.6533,2.543,2.3047,0.0,0.0,0.0,0.0,1.7139,1.6475,0.0,0.0,0.0,0.0,0.0,0.0,0.0,0.0,0.0,0.0,0.0,0.0,0.0,0.0,0.0,3.0889,3.0889,3.0889,3.0889,3.0889,3.0889,3.0889,3.0889,3.0889,3.0215,2.9766,2.956,2.8906,2.855,2.8514,2.8514,2.8664,2.8877,2.8761,2.8771,2.8877,2.8761,2.8747,2.875,2.8238,2.8044,2.8017,2.7472,2.7309,2.7309,0.0,0.0,0.0,0.0,0.0,0.0,0.0,1.5537,1.6321,1.7564,1.8003,1.7865,1.6951,1.6384,1.6183,0.0,0.0,0.0,0.0,0.0,0.0,0.0,0.0,0.0,0.0,0.0,0.0,0.0,0.0,0.0,0.0,0.0,0.0,0.0,0.0,0.0,0.0,0.0,0.0,0.0,0.0,0.0,0.0,0.0,0.0,0.0,0.0,0.0,0.0,0.0,1.8409,1.9541,2.2139,2.3281,2.3779,2.4509,2.541,2.6348,2.6768,2.7441,2.7861,2.7187,2.6299,2.4922,2.2334,2.0723,0.0,0.0,1.6482,1.6239,1.5664,0.0,0.0,0.0,0.0,0.0,0.0,0.0,0.0,0.0,0.0,0.0,0.0,0.0,0.0,0.0,3.0889,3.0889,3.0889,3.0889,3.0889,3.0889,3.0889,3.0889,3.0889,3.0107,2.9658,2.9616,2.8789,2.8486,2.8621,2.8674,2.8834,2.9079,2.9079,2.9132,2.9185,2.9132,2.9132,2.9147,2.8482,2.8237,2.8225,2.7545,2.7309,2.7309,0.0,0.0,0.0,0.0,0.0,0.0,0.0,1.6082,1.7002,1.8644,1.8456,1.8166,1.8066,1.7564,1.7036,0.0,0.0,0.0,0.0,0.0,0.0,0.0,0.0,0.0,0.0,0.0,0.0,0.0,0.0,0.0,0.0,0.0,0.0,0.0,0.0,0.0,0.0,0.0,0.0,0.0,0.0,0.0,0.0,0.0,0.0,0.0,0.0,0.0,0.0,0.0,0.0,1.6897,1.9453,2.158,2.3169,2.331,0.0,0.0,2.6328,2.6787,2.7109,2.7031,2.6064,2.4453,2.1885,0.0,0.0,1.6604,1.5811,1.5625,1.5977,1.6504,0.0,0.0,0.0,2.2246,0.0,0.0,0.0,0.0,0.0,0.0,0.0,0.0,0.0,0.0,3.0889,3.0889,3.0889,3.0889,3.0889,3.0889,3.0889,3.0889,3.0889,3.0391,2.9941,2.956,2.9092,2.8662,2.8354,2.8568,2.8834,2.9079,2.9079,2.929,0.0,2.9237,2.929,2.9462,2.8533,2.8328,2.8454,2.7593,2.7309,2.7309,0.0,0.0,0.0,0.0,0.0,0.0,1.553,1.617,1.7102,1.8782,1.8807,1.8669,1.8669,1.8204,1.7513,1.6575,0.0,0.0,0.0,0.0,0.0,0.0,0.0,0.0,0.0,0.0,0.0,0.0,0.0,0.0,0.0,0.0,0.0,0.0,0.0,0.0,0.0,0.0,0.0,0.0,0.0,0.0,0.0,0.0,0.0,0.0,0.0,0.0,0.0,0.0,0.0,0.0,1.7484,1.9082,0.0,0.0,2.3799,2.505,2.581,2.6494,2.6894,2.6327,2.5459,2.4004,2.1426,0.0,1.8359,1.6486,1.5743,1.5469,1.5635,1.6035,1.6777,1.8164,1.8896,2.0195,2.2793,0.0,0.0,0.0,0.0,0.0,0.0,0.0,0.0,3.0889,3.0889,3.0889,3.0889,3.0889,3.0889,3.0889,3.0889,3.0889,3.0889,3.0176,2.9736,2.956,2.8867,2.8564,2.8568,2.8824,2.9089,2.9396,2.9564,3.0068,0.0,3.066,3.066,3.073,2.9782,2.9084,2.8504,2.7641,2.7668,2.8128,0.0,0.0,0.0,0.0,0.0,1.4462,1.553,1.617,1.7039,1.8556,1.8757,1.8757,1.8757,1.8268,1.7639,1.6848,1.6588,0.0,0.0,0.0,0.0,0.0,0.0,0.0,0.0,0.0,0.0,0.0,0.0,0.0,0.0,0.0,0.0,0.0,0.0,0.0,0.0,0.0,0.0,0.0,0.0,0.0,0.0,0.0,0.0,0.0,0.0,0.0,0.0,0.0,0.0,0.0,0.0,0.0,0.0,0.0,2.2744,2.4043,2.4922,2.5693,2.6133,2.5654,2.4738,2.3398,0.0,0.0,1.8081,1.6281,1.5625,1.541,1.541,1.5664,1.6232,1.7249,1.7842,1.9062,2.1543,0.0,0.0,0.0,0.0,0.0,0.0,0.0,3.0889,3.0889,3.0889,3.0889,3.0889,3.0889,3.0889,3.0889,3.0889,3.0889,3.0889,3.001,2.9626,2.9616,2.8701,2.8461,2.8727,2.8983,2.929,2.9606,2.9879,3.0588,0.0,3.1575,3.1779,3.1984,3.1045,3.0182,2.9362,2.8148,2.8315,2.9084,0.0,0.0,0.0,0.0,0.0,0.0,1.553,1.617,1.6901,1.8066,1.8216,1.8216,1.8216,1.7714,1.741,1.7398,1.6848,0.0,0.0,0.0,0.0,0.0,0.0,0.0,0.0,0.0,0.0,0.0,0.0,0.0,0.0,0.0,0.0,0.0,0.0,0.0,0.0,0.0,0.0,0.0,0.0,0.0,0.0,0.0,0.0,0.0,0.0,0.0,0.0,0.0,0.0,0.0,0.0,0.0,0.0,0.0,2.1172,2.2725,2.3574,2.4121,2.4551,2.4971,2.4102,2.2545,0.0,1.9212,1.7993,1.5859,1.5391,1.541,1.541,1.5391,1.585,1.7168,1.8086,1.9358,2.1582,0.0,0.0,0.0,0.0,0.0,0.0,0.0,3.0889,3.0889,3.0889,0.0,3.0889,3.0889,3.0889,3.0889,3.0889,3.0889,3.0889,3.001,2.9626,2.9616,2.8701,2.8461,2.8727,2.8983,2.929,2.9606,2.9879,3.0588,0.0,3.1575,3.2235,3.3097,3.2087,3.1685,3.1417,2.9402,2.9303,3.0034,0.0,0.0,0.0,0.0,0.0,0.0,0.0,1.5605,1.6358,1.7488,1.7639,1.779,1.8166,1.7714,1.741,1.741,1.6861,0.0,0.0,0.0,0.0,0.0,0.0,0.0,0.0,0.0,1.7541,1.7823,1.8396,1.8659,0.0,0.0,0.0,0.0,0.0,0.0,0.0,0.0,0.0,0.0,0.0,0.0,0.0,0.0,0.0,0.0,0.0,0.0,0.0,0.0,0.0,0.0,0.0,0.0,0.0,1.7081,0.0,0.0,2.1554,2.2334,2.2939,2.222,2.1721,2.0898,1.9043,1.8184,1.7334,1.5742,1.541,1.541,1.541,1.541,1.5937,1.7549,1.8037,0.0,0.0,0.0,0.0,0.0,0.0,0.0,0.0,0.0,3.0889,3.0889,3.0889,3.0889,3.0889,3.0889,3.0889,3.0889,3.0889,3.0742,3.042,3.0089,2.9711,2.948,2.9049,2.927,3.0068,3.0401,3.1011,3.1807,3.2095,3.2789,3.3784,3.3784,3.3981,3.4181,3.3185,3.2348,3.1559,3.0227,3.0351,3.1125,0.0,0.0,0.0,0.0,0.0,0.0,0.0,1.5047,1.5739,1.6644,1.6923,1.7275,1.784,1.7388,1.7137,1.7385,1.6861,0.0,0.0,0.0,0.0,0.0,0.0,0.0,0.0,1.7087,1.7829,1.8746,1.9296,1.9758,2.017,1.9957,0.0,0.0,0.0,0.0,0.0,0.0,0.0,0.0,0.0,0.0,0.0,0.0,0.0,0.0,0.0,0.0,0.0,0.0,0.0,0.0,0.0,0.0,0.0,0.0,1.7355,1.9079,0.0,2.0791,2.1377,2.0772,2.0361,1.9754,1.833,1.7559,1.687,1.5939,1.5546,1.5468,1.569,1.5555,1.5849,1.7262,1.7803,1.8711,0.0,0.0,0.0,0.0,0.0,0.0,0.0,3.0596,3.0889,3.0889,3.0889,3.0889,3.0889,3.0723,3.0635,3.0635,3.0635,3.0546,3.0376,2.9964,2.9714,2.9545,2.9246,2.9733,3.0886,3.1124,3.183,3.2978,3.3151,3.3796,0.0,3.4775,3.503,3.5317,3.4228,3.3431,3.2651,3.1233,3.1347,3.212,0.0,0.0,0.0,0.0,0.0,0.0,0.0,1.4563,1.5085,1.5618,1.617,1.6701,1.7262,1.6835,1.6735,1.7297,0.0,0.0,0.0,0.0,0.0,0.0,0.0,0.0,0.0,1.7124,1.8169,1.9617,2.0289,2.1148,2.2168,2.1707,2.0642,1.9096,0.0,0.0,0.0,0.0,0.0,0.0,0.0,0.0,0.0,0.0,0.0,0.0,0.0,0.0,0.0,0.0,0.0,0.0,0.0,0.0,0.0,0.0,0.0,0.0,0.0,1.9438,0.0,0.0,1.9705,1.8922,1.8091,1.7288,0.0,1.6411,1.5882,1.5662,1.6321,1.5896,1.5801,1.6804,1.7613,0.0,0.0,0.0,0.0,0.0,0.0,0.0,2.9062,3.0176,3.0889,3.0889,3.0889,3.0889,3.0889,3.0449,3.0252,3.0309,3.0307,3.0391,3.0628,2.9898,2.9687,3.0005,2.9589,3.0099,3.1432,3.1432,3.2196,0.0,3.3449,3.3993,3.4921,3.4921,3.5511,3.6304,3.5152,3.468,3.4452,3.2435,3.2307,3.2982,0.0,0.0,0.0,0.0,0.0,0.0,0.0,0.0,0.0,0.0,1.617,1.655,1.671,1.6575,1.655,0.0,0.0,0.0,0.0,0.0,0.0,0.0,0.0,0.0,0.0,1.7501,1.8569,1.9759,2.1174,2.2226,2.286,2.3203,2.2268,2.0277,1.9685,1.8342,0.0,0.0,0.0,0.0,0.0,0.0,0.0,0.0,0.0,0.0,0.0,1.676,0.0,0.0,0.0,0.0,0.0,0.0,0.0,0.0,1.5523,1.5611,1.7201,0.0,1.7967,1.7861,1.7573,1.7317,0.0,1.7083,1.6946,1.6984,0.0,1.6458,1.7616,1.6788,1.677,1.9258,1.9551,2.0068,0.0,0.0,0.0,0.0,0.0,3.043,3.043,3.0713,3.0889,3.0889,3.0889,3.0889,3.0889,3.0449,3.0584,3.1467,3.1069,3.0861,3.0926,3.0943,3.1337,3.2075,3.2179,3.2828,3.3932,3.3932,3.4569,3.5667,3.5667,3.5763,3.6013,3.6013,3.6156,3.6304,3.5152,3.468,3.4542,3.3208,3.2896,3.3068,0.0,0.0,0.0,0.0,0.0,0.0,0.0,0.0,0.0,0.0,0.0,0.0,0.0,0.0,0.0,0.0,0.0,0.0,0.0,0.0,0.0,0.0,0.0,0.0,1.65,1.7375,1.8731,2.0577,2.1744,2.2987,2.4268,2.4343,2.3188,2.1006,1.9422,1.8028,0.0,0.0,0.0,0.0,0.0,0.0,0.0,0.0,0.0,0.0,1.6022,1.6478,0.0,1.7279,1.8085,1.8864,0.0,0.0,0.0,0.0,1.5452,1.529,1.6558,1.7445,1.8061,1.8363,1.8187,1.7968,1.8077,1.7575,0.0,0.0,0.0,0.0,0.0,0.0,0.0,0.0,2.1182,0.0,0.0,0.0,0.0,0.0,0.0,3.0889,0.0,3.0889,3.1122,3.1682,3.174,3.1639,3.1418,3.1462,3.1447,3.1295,3.1392,3.1639,3.1897,3.2003,3.2379,3.2978,3.3139,3.3747,3.4775,3.4775,3.5367,3.6405,3.6405,3.6405,3.6405,3.6405,3.6267,3.5906,3.5052,3.4562,3.4248,3.3382,3.3124,3.3124,0.0,0.0,0.0,0.0,0.0,0.0,0.0,0.0,0.0,0.0,0.0,0.0,0.0,0.0,0.0,0.0,0.0,0.0,0.0,0.0,0.0,0.0,0.0,1.6575,1.6751,1.725,1.8793,2.1395,2.2171,2.3565,2.5473,2.5285,2.3916,2.1506,1.8932,1.7637,0.0,0.0,0.0,0.0,0.0,0.0,0.0,0.0,0.0,0.0,0.0,0.0,0.0,1.7605,1.8327,1.8843,1.8686,0.0,0.0,0.0,0.0,0.0,1.6802,1.8129,1.9224,1.9794,1.9667,1.9416,1.9432,0.0,0.0,0.0,0.0,0.0,0.0,1.9699,0.0,0.0,0.0,0.0,0.0,0.0,0.0,0.0,3.0789,0.0,3.117,3.1344,3.1845,3.2903,3.2886,3.2667,3.2295,3.2696,3.2424,3.1243,3.1969,3.2718,3.343,3.3172,3.3277,3.3697,3.3697,3.4141,3.503,3.503,3.5523,3.6405,0.0,0.0,3.6405,3.6405,3.6031,3.5445,3.4893,3.4387,3.3834,3.3282,3.3124,3.3124,0.0,0.0,0.0,0.0,0.0,0.0,0.0,0.0,0.0,0.0,0.0,0.0,0.0,0.0,0.0,0.0,0.0,0.0,0.0,0.0,0.0,0.0,1.65,1.6939,1.7928,1.8028,1.897,2.0817,2.2774,2.4155,2.4938,2.6289,2.5222,2.2108,2.025,1.8668,1.7373,0.0,0.0,0.0,0.0,0.0,0.0,0.0,0.0,0.0,0.0,0.0,0.0,1.6395,1.7207,1.8169,1.7243,0.0,0.0,0.0,0.0,0.0,1.8651,2.0151,2.0665,1.9408,1.9343,1.9587,1.964,1.9485,0.0,0.0,0.0,0.0,0.0,2.1576,2.1779,0.0,0.0,2.758,0.0,0.0,3.106,3.0946,0.0,3.3448,3.2514,3.3289,3.3944,3.4112,3.3723,3.3551,3.3683,3.3065,3.3068,3.3963,3.4041,3.4531,3.5526,3.4628,3.4727,3.5918,3.5918,3.6013,3.6156,3.6156,3.6263,3.6405,0.0,3.6405,3.6405,3.6405,3.6031,3.5445,3.4893,3.4387,3.3834,3.3282,3.3124,3.3124,0.0,0.0,0.0,0.0,0.0,0.0,0.0,0.0,0.0,0.0,0.0,0.0,0.0,0.0,0.0,0.0,0.0,0.0,0.0,0.0,0.0,1.7378,1.7426,1.7654,1.8191,1.9083,2.0515,2.2489,2.4079,2.546,2.6578,2.585,2.4336,2.2118,2.021,1.892,1.8122,1.7641,0.0,0.0,0.0,0.0,0.0,0.0,0.0,0.0,0.0,0.0,0.0,0.0,1.746,1.8109,1.7603,0.0,0.0,0.0,0.0,0.0,1.8013,1.9492,2.0553,2.0647,2.1686,2.2616,2.2342,2.2087,0.0,0.0,0.0,0.0,0.0,0.0,2.5173,2.8159,0.0,2.9816,3.0858,3.1374,3.1769,0.0,0.0,3.3767,3.3223,3.3657,3.4098,3.4495,3.4398,3.4309,3.4207,3.4484,3.4527,3.4296,3.4919,3.55,3.6015,3.5631,3.5763,3.6405,3.6405,3.6405,3.6405,3.6405,3.6405,3.6405,0.0,3.6405,3.638,3.6044,3.5604,3.4994,3.45,3.3935,3.342,3.3212,3.3124,3.3124,0.0,0.0,0.0,0.0,0.0,0.0,0.0,0.0,0.0,0.0,0.0,0.0,0.0,0.0,0.0,0.0,0.0,0.0,0.0,0.0,1.6939,1.7965,1.8254,1.8643,1.9158,2.0413,2.2083,2.4192,2.5398,2.6716,2.8047,2.5536,2.3641,2.2247,2.0285,1.9183,1.8821,1.8382,1.7953,0.0,0.0,0.0,0.0,0.0,0.0,0.0,0.0,0.0,0.0,0.0,0.0,0.0,0.0,0.0,0.0,1.7063,1.6415,1.6283,1.7616,1.8951,2.0358,2.1981,2.358,2.4783,2.4867,2.4398,2.4083,0.0,0.0,0.0,0.0,2.6549,0.0,3.0687,3.1354,3.1739,3.226,3.2464,3.2681,3.3155,3.3824,3.4113,3.3843,3.4113,3.4501,3.5091,3.521,3.5129,3.4943,3.5843,3.5783,3.4593,3.5548,3.6098,3.6098,3.6323,3.6405,3.6405,3.6405,3.6405,3.6405,3.6405,3.6405,3.6405,3.6405,3.6329,3.6132,3.5671,3.5094,3.4487,3.406,3.3558,3.3124,3.3124,3.3124,3.3124,0.0,0.0,0.0,0.0,0.0,0.0,0.0,0.0,0.0,0.0,0.0,0.0,0.0,0.0,0.0,0.0,0.0,0.0,0.0,0.0,1.6798,1.7436,1.8417,1.9898,2.197,2.2133,2.3007,2.4725,2.6377,2.7482,2.8059,2.6302,2.4619,2.297,2.1305,1.9974,1.8933,1.8418,1.8179,0.0,0.0,0.0,0.0,0.0,0.0,0.0,0.0,0.0,0.0,0.0,0.0,0.0,0.0,0.0,1.8097,1.7495,1.6955,1.6991,1.9086,2.0069,2.0935,2.2522,2.3039,2.3652,2.5552,2.5204,0.0,2.6357,0.0,0.0,0.0,2.8787,3.0242,3.1464,3.2469,3.3479,3.4426,0.0,3.4908,3.3879,3.5184,3.5758,3.4635,3.554,3.6333,3.6614,3.6204,3.6111,3.6579,3.6254,3.6088,3.6216,3.631,3.6358,3.6358,3.6405,3.6405,3.6405,3.6405,3.6405,3.6405,3.6405,3.6405,3.6405,3.6405,3.6069,3.5558,3.552,3.4868,3.396,3.3922,3.3558,3.3124,3.3124,3.3124,3.3124,0.0,0.0,0.0,0.0,0.0,0.0,0.0,0.0,0.0,0.0,0.0,0.0,0.0,0.0,0.0,0.0,0.0,0.0,0.0,0.0,1.6914,1.7852,1.8607,1.9873,2.1757,2.3163,2.4858,2.6866,2.7833,2.8059,2.7557,2.5548,2.3841,2.2413,2.0851,2.0047,1.9894,1.9384,1.9196,1.912,0.0,0.0,0.0,0.0,0.0,0.0,0.0,0.0,0.0,0.0,1.7039,1.7472,1.7133,1.7581,1.8097,1.7568,1.7015,1.6847,1.8001,1.9444,2.0923,2.2173,2.346,0.0,0.0,2.7067,2.7849,2.9124,2.922,0.0,0.0,0.0,3.1356,3.207,3.3068,3.4006,3.4679,3.4955,3.5047,3.4946,3.5473,3.5705,3.5277,3.5805,3.6035,3.5794,3.5941,3.6073,3.6278,3.6258,3.6323,3.6405,3.6405,3.6405,3.6405,3.6405,3.6405,3.6405,3.6405,3.6405,3.6405,3.6405,3.6405,3.6392,3.5994,3.5683,3.5445,3.4756,3.4274,3.3872,3.352,3.3257,3.3124,3.3124,3.3124,3.3124,0.0,0.0,0.0,0.0,0.0,0.0,0.0,0.0,0.0,0.0,0.0,0.0,0.0,0.0,0.0,0.0,0.0,0.0,1.65,1.65,1.6914,1.7903,1.8456,1.9623,2.1443,2.3502,2.5473,2.7306,2.8047,2.7934,2.7014,2.4946,2.3528,2.2638,2.1037,2.0598,2.1031,2.0362,2.0075,1.9974,1.8894,1.8129,0.0,0.0,0.0,0.0,0.0,0.0,0.0,0.0,1.6938,1.7338,1.7266,1.769,1.8133,1.7772,1.764,1.7639,1.7857,1.936,2.1115,2.2173,0.0,0.0,2.7066,2.8402,2.9701,3.1096,3.1163,3.0814,3.0398,0.0,0.0,0.0,3.3322,3.4174,3.4703,3.4775,3.4968,3.5328,3.5364,3.5364,3.5475,3.5623,3.5673,3.5453,3.5764,3.6063,3.6098,3.6323,3.6405,3.6405,3.6405,3.6405,3.6405,3.6405,3.6405,3.6405,3.6405,3.6405,3.6405,3.6405,3.6317,3.6081,3.5658,3.5307,3.4919,3.4211,3.3796,3.3608,3.3219,3.3124,3.3124,3.3124,3.3124,3.3124,0.0,0.0,0.0,0.0,0.0,0.0,0.0,0.0,0.0,0.0,0.0,0.0,0.0,0.0,0.0,0.0,0.0,0.0,1.65,1.65,1.6773,1.7373,1.7903,1.9221,2.1405,2.3113,2.4506,2.5598,2.6716,2.7014,2.6436,2.4757,2.3991,2.3904,2.2246,2.1794,2.2234,2.1157,2.0691,2.0591,1.9472,1.8669,0.0,0.0,0.0,0.0,0.0,0.0,0.0,0.0,1.6918,1.695,1.7906,1.8205,1.8217,1.8205,1.8977,1.9688,1.9158,2.0177,2.1668,2.2714,0.0,0.0,2.8041,2.8931,2.9929,3.207,3.1661,3.0946,3.0934,3.0946,0.0,3.2334,3.3368,3.4174,3.4751,3.4775,3.4775,3.4775,3.4775,3.4932,3.5175,3.5223,3.5428,3.5968,3.6015,3.6098,3.6405,3.6405,3.6405,3.6405,3.6405,3.6405,3.6405,3.6405,3.6405,3.6392,3.6392,3.6405,3.6405,3.6405,3.6056,3.5495,3.5495,3.4868,3.3897,3.3884,3.3571,3.3124,3.3124,3.3124,3.3124,3.3124,3.3124,3.3124,0.0,0.0,0.0,0.0,0.0,0.0,0.0,0.0,0.0,0.0,0.0,0.0,0.0,0.0,0.0,0.0,0.0,0.0,1.65,1.65,1.6575,1.6773,1.7689,1.8505,1.9158,2.1179,2.354,2.6235,2.6138,2.5624,2.4707,2.3816,2.3188,2.2786,2.2284,2.1945,2.1681,2.0993,2.0691,2.0591,1.9472,1.8907,0.0,0.0,0.0,0.0,0.0,0.0,0.0,0.0,0.0,0.0,1.7286,1.826,1.9095,1.7977,1.8662,1.9615,1.8686,2.0153,0.0,2.2843,0.0,0.0,0.0,3.0314,0.0,0.0,3.3274,3.2875,3.2154,3.2322,0.0,3.3008,3.3609,3.427,3.4993,3.4932,3.4884,3.5078,3.492,3.4932,3.5175,3.5368,3.562,3.5968,3.6193,3.6323,3.6405,3.6405,3.6405,3.6405,3.6405,3.6182,3.5793,3.5793,3.5592,3.5203,3.5203,3.5604,3.6405,3.5968,3.5658,3.5458,3.468,3.4198,3.3872,3.3483,3.3219,3.3124,3.3124,3.3124,3.3124,3.3124,3.3124,3.3124,0.0,0.0,0.0,0.0,0.0,0.0,0.0,0.0,0.0,0.0,1.65,0.0,0.0,0.0,0.0,0.0,0.0,0.0,0.0,1.65,1.66,1.6861,1.7513,1.8292,1.9158,2.0916,2.2686,2.4513,2.4518,2.423,2.3653,2.3466,2.3353,2.3271,2.3271,2.3,2.2435,2.1644,2.1219,2.0943,2.0037,1.9547,1.9208,0.0,0.0,0.0,0.0,0.0,0.0,0.0,0.0,0.0,1.6811,1.7642,1.8535,1.8158,1.9023,2.0153,2.0358,2.174,0.0,2.4831,2.6863,2.9015,3.0915,0.0,0.0,0.0,3.4065,3.369,3.3188,3.3293,0.0,3.3549,3.4065,3.4667,3.5126,3.5078,3.5078,3.532,3.5126,3.5126,3.5476,3.5668,3.586,3.6146,3.6323,3.6405,3.6405,3.6405,3.6304,3.6044,3.6031,3.578,3.5182,3.5169,3.5006,3.468,3.468,3.5064,3.5692,3.5366,3.5056,3.4806,3.396,3.3571,3.3545,3.3219,3.3124,3.3124,3.3124,3.3124,3.3124,3.3124,3.3124,3.3124,0.0,0.0,0.0,0.0,0.0,0.0,0.0,0.0,0.0,0.0,1.65,0.0,0.0,0.0,0.0,0.0,0.0,0.0,0.0,0.0,1.6773,1.7373,1.7549,1.8605,2.0729,2.1681,2.192,2.1446,2.2326,2.285,2.297,2.3479,2.411,2.4713,2.4713,2.4406,2.3766,2.2585,2.1769,2.1217,2.0742,2.0201,1.961,1.9108,0.0,0.0,0.0,0.0,0.0,0.0,0.0,0.0,1.6599,1.6794,1.7204,1.8425,1.9648,2.1031,2.2987,2.3953,0.0,2.7765,2.8655,0.0,3.2611,3.3717,3.4246,3.4679,0.0,3.3829,3.4018,3.3905,3.3841,3.4077,3.4763,3.5223,3.5271,3.5271,3.532,3.562,3.5416,3.5416,3.5968,3.6015,3.6098,3.6358,3.6405,3.6392,3.6329,3.6329,3.6031,3.5445,3.542,3.5157,3.4605,3.465,3.4625,3.4575,3.4575,3.4575,3.4575,3.4625,3.4349,3.3796,3.3294,3.3124,3.3124,3.3124,3.3124,3.3124,3.3124,3.3124,3.3124,3.3124,3.3124,3.3124,0.0,0.0,0.0,0.0,0.0,0.0,0.0,0.0,0.0,0.0,0.0,0.0,0.0,0.0,0.0,0.0,0.0,0.0,0.0,0.0,1.6773,1.7373,1.8606,1.9924,2.1307,2.1144,2.0993,2.0867,2.149,2.1816,2.187,2.2819,2.3597,2.418,2.418,2.3615,2.2573,2.1004,2.0037,1.9522,1.9409,1.9045,1.853,1.843,1.7965,0.0,0.0,0.0,0.0,0.0,0.0,0.0,1.6804,1.7506,1.8069,1.7328,1.8835,2.0839,2.1193,2.2582,0.0,0.0,2.9785,3.1925,3.3044,3.4148,3.4884,3.4811,3.4848,3.4823,3.4643,3.4908,3.511,3.498,3.5246,3.5572,3.5812,3.5668,3.562,3.5872,3.5668,3.562,3.5968,3.6015,3.6098,3.6358,3.6405,3.6169,3.5696,3.5671,3.542,3.4868,3.4856,3.4625,3.4085,3.4073,3.3859,3.3432,3.3432,3.3432,3.3445,3.3884,3.3771,3.3257,3.3174,3.3124,3.3124,3.3124,3.3124,3.3124,3.3124,3.3124,3.3124,3.3124,3.3124,3.3124,0.0,0.0,0.0,0.0,0.0,0.0,0.0,0.0,0.0,0.0,0.0,0.0,0.0,0.0,0.0,0.0,0.0,0.0,0.0,1.65,1.6864,1.7739,1.9371,2.0238,2.0313,2.0275,2.0125,1.9886,2.0175,2.0853,2.192,2.3228,2.4167,2.477,2.477,2.3853,2.2221,2.0815,1.9899,1.9371,1.9296,1.9146,1.8871,1.8523,1.7937,1.722,1.6657,0.0,0.0,0.0,0.0,0.0,0.0,0.0,1.7561,1.7568,1.8553,2.0019,2.1723,0.0,0.0,2.8351,0.0,3.262,3.2977,3.3987,3.4798,3.4655,3.5041,3.5368,3.5223,3.5416,3.556,3.5416,3.562,3.5812,3.5968,3.5872,3.5908,3.6146,3.5955,3.5908,3.6193,3.6193,3.6128,3.5994,3.5968,3.573,3.5144,3.5107,3.4856,3.4349,3.4324,3.406,3.3508,3.3508,3.337,3.3124,3.3124,3.3124,3.3124,3.337,3.3345,3.3124,3.3124,3.3124,3.3124,3.3124,3.3124,3.3124,3.3124,3.3124,3.3124,3.3124,3.3124,3.3124,0.0,0.0,0.0,0.0,0.0,0.0,0.0,0.0,0.0,0.0,0.0,0.0,0.0,0.0,0.0,0.0,0.0,0.0,0.0,1.6588,1.7124,1.8154,1.9635,1.9999,1.9158,1.9497,1.9497,1.9146,1.9146,2.0312,2.2636,2.3779,2.4798,2.5586,2.5398,2.4205,2.2234,2.0955,2.0025,1.9384,1.927,1.9207,1.9095,1.8573,1.7855,1.7015,1.6576,1.6414,1.6414,1.6414,0.0,0.0,0.0,0.0,1.6644,1.7846,1.824,1.9004,2.2207,0.0,2.6006,2.984,3.1588,0.0,3.2726,3.3582,3.4334,3.4334,3.5036,3.562,3.562,3.562,3.5668,3.5668,3.5908,3.6051,3.6051,3.6051,3.6108,3.6232,3.6131,3.6071,3.6094,3.6216,3.5994,3.5395,3.5357,3.5119,3.4613,3.4575,3.4324,3.3771,3.3759,3.3533,3.3081,3.3124,3.3124,3.3124,3.3124,3.3124,3.3124,3.3124,3.3124,3.3124,3.3124,3.3124,3.3124,3.3124,3.3124,3.3124,3.3124,3.3124,3.3124,3.3124,3.3124,3.3124,0.0,0.0,0.0,0.0,0.0,0.0,0.0,0.0,0.0,0.0,0.0,1.65,1.65,1.65,0.0,0.0,0.0,0.0,1.65,0.0,0.0,1.8179,1.8857,1.9359,1.9698,1.9309,1.9296,1.9698,1.9698,2.1091,2.3766,2.3459,2.4123,2.5548,2.4632,2.3502,2.2184,2.0086,1.8643,1.7725,1.7702,1.739,1.6967,1.7393,1.7155,1.6579,1.6504,1.65,1.65,1.65,1.65,0.0,0.0,0.0,0.0,1.6525,1.7206,1.8228,0.0,0.0,2.6723,0.0,3.1296,3.199,0.0,0.0,3.4063,0.0,3.4873,3.562,3.562,3.5764,3.5968,3.5968,3.6181,3.637,3.637,3.637,3.6194,3.5671,3.6069,3.5994,3.5027,3.5332,3.5382,3.4831,3.4826,3.4587,3.4035,3.401,3.3759,3.3206,3.3224,3.3156,3.3124,3.3124,3.3124,3.3124,3.3124,3.3124,3.3124,3.3124,3.3124,3.3124,3.3124,3.3124,3.3124,3.3124,3.3124,3.3124,3.3124,3.3124,3.3124,3.3124,3.3124,3.3124,0.0,0.0,0.0,0.0,0.0,0.0,0.0,0.0,0.0,0.0,0.0,1.65,1.65,1.65,0.0,0.0,0.0,0.0,1.65,1.7061,0.0,0.0,1.8279,1.853,1.8455,1.8229,1.8367,1.8907,1.8593,2.0351,2.3991,2.374,2.4833,2.6942,2.5523,2.4104,2.2581,0.0,1.8544,1.7815,1.7445,1.7884,1.8622,1.759,1.764,1.8134,1.6885,1.6436,1.6457,1.65,1.6479,1.6457,1.6457,0.0,0.0,0.0,1.6911,0.0,2.0992,2.381,2.67,0.0,3.105,3.1549,3.1955,0.0,3.3555,3.3555,3.4262,3.4932,3.5084,3.5084,3.5183,3.5634,3.5562,3.5554,3.5855,3.5642,3.5353,3.5069,3.529,3.5253,3.4763,3.4893,3.4806,3.4299,3.4261,3.4022,3.347,3.3432,3.3319,3.3124,3.3124,3.3124,3.3124,3.3124,3.3124,3.3124,3.3124,3.3124,3.3124,3.3124,3.3124,3.3124,3.3124,3.3124,3.3124,3.3124,3.3124,3.3124,3.3124,3.3124,3.3124,3.3124,3.3124,3.3124,0.0,0.0,0.0,0.0,0.0,0.0,0.0,0.0,0.0,0.0,0.0,0.0,1.65,0.0,0.0,0.0,0.0,0.0,1.65,0.0,0.0,0.0,0.0,1.7589,1.7174,1.7162,1.7438,1.8003,1.7727,1.9786,2.4004,2.4142,2.5762,2.8461,2.6917,2.5084,2.2957,0.0,0.0,1.8569,1.8186,1.8958,2.0179,1.8995,1.938,2.0268,1.8072,1.7272,0.0,0.0,0.0,0.0,0.0,0.0,0.0,0.0,0.0,0.0,0.0,0.0,2.5404,2.885,3.0075,3.0655,0.0,0.0,3.2869,0.0,3.3479,3.4075,3.4254,3.43,3.4533,3.5174,3.4944,3.4818,3.5232,3.4944,3.4675,3.4525,3.4638,3.4568,3.4324,3.4437,3.4286,3.3734,3.3696,3.3508,3.3106,3.3124,3.3124,3.3124,3.3124,3.3124,3.3124,3.3124,3.3124,3.3124,3.3124,3.3124,3.3124,3.3124,3.3124,3.3124,3.3124,3.3124,3.3124,3.3124,3.3124,3.3124,3.3124,3.3124,3.3124,3.3124,3.3124,3.3124,0.0,0.0,0.0,0.0,0.0,0.0,0.0,0.0,0.0,0.0,0.0,0.0,1.65,1.65,1.65,1.65,0.0,0.0,0.0,0.0,0.0,0.0,0.0,0.0,1.6538,1.6538,1.6848,1.7448,1.7915,2.0162,2.4004,2.4531,2.654,2.9654,2.8499,2.6176,2.307,0.0,0.0,0.0,0.0,2.0132,2.0036,2.2042,2.2827,2.2644,2.0426,0.0,0.0,0.0,0.0,0.0,0.0,0.0,1.65,0.0,0.0,0.0,0.0,2.0563,0.0,2.626,0.0,0.0,0.0,0.0,0.0,3.199,3.2596,3.3169,3.3169,3.3788,3.4409,3.4673,3.4738,3.4726,3.4718,3.4738,3.4525,3.401,3.4399,3.4311,3.3269,3.3633,3.3709,3.3156,3.3162,3.3106,3.3124,3.3124,3.3124,3.3124,3.3124,3.3124,3.3124,3.3124,3.3124,3.3124,3.3124,3.3124,3.3124,3.3124,3.3124,3.3124,3.3124,3.3124,3.3124,3.3124,3.3124,3.3124,3.3124,3.3124,3.3124,3.3124,3.3124,3.3124,0.0,0.0,0.0,0.0,0.0,0.0,0.0,0.0,0.0,0.0,0.0,0.0,0.0,1.65,1.65,1.65,1.65,0.0,0.0,0.0,0.0,0.0,0.0,0.0,0.0,1.65,1.681,1.741,1.72,1.8932,2.241,2.3283,2.4725,2.6615,2.6917,2.6321,2.4937,2.2668,0.0,0.0,0.0,2.1847,2.2887,2.304,2.4017,2.4983,0.0,0.0,0.0,0.0,0.0,0.0,1.7187,1.6823,1.65,1.65,1.6763,0.0,0.0,0.0,0.0,2.4386,2.6251,2.7681,2.8747,3.0238,3.1481,3.1829,3.2222,3.2641,3.3048,3.3351,3.3683,3.4091,3.3897,3.3796,3.4148,3.3884,3.3596,3.3395,3.3545,3.3508,3.3162,3.3257,3.3294,3.3093,3.3124,3.3124,3.3124,3.3124,3.3124,3.3124,3.3124,3.3124,3.3124,3.3124,3.3124,3.3124,3.3124,3.3124,3.3124,3.3124,3.3124,3.3124,3.3124,3.3124,3.3124,3.3124,3.3124,3.3124,3.3124,3.3124,3.3124,3.3124,3.3124,3.3018,0.0,0.0,0.0,0.0,0.0,0.0,0.0,0.0,0.0,1.6785,0.0,0.0,0.0,0.0,1.7011,1.6823,1.681,1.6722,1.65,0.0,0.0,0.0,0.0,0.0,0.0,1.671,1.6898,1.7087,1.7087,1.8392,2.0941,2.2058,2.3246,2.448,2.4908,2.5519,0.0,0.0,0.0,2.2221,0.0,0.0,2.4884,2.5411,2.6452,2.7354,0.0,0.0,0.0,0.0,0.0,0.0,0.0,1.7426,1.65,1.65,1.6923,0.0,1.8444,0.0,0.0,0.0,0.0,2.585,2.7752,0.0,3.0308,3.1057,3.1576,3.2051,3.2441,3.2516,3.2754,3.3508,3.3319,3.3206,3.3571,3.3307,3.3124,3.3124,3.3124,3.3124,3.3124,3.3124,3.3124,3.3124,3.3124,0.0,3.3124,3.3124,3.3124,3.3124,3.288,3.278,3.278,3.2604,3.2516,3.2516,3.2516,3.2516,3.2516,3.2516,3.2616,3.278,3.278,3.2893,3.3124,3.3124,3.3124,3.3124,3.3124,3.3124,3.3124,3.3124,3.2955,3.2729,0.0,0.0,0.0,0.0,0.0,0.0,0.0,0.0,1.6773,1.736,0.0,0.0,0.0,0.0,0.0,1.7524,1.7461,1.7187,1.6563,1.65,0.0,0.0,0.0,0.0,1.6525,1.7074,1.7087,1.6525,1.7626,1.8694,1.9748,2.0891,2.2239,2.3673,2.2714,2.3816,2.6399,0.0,2.5443,2.4615,0.0,2.5841,2.5769,0.0,0.0,0.0,2.7996,2.7077,0.0,2.3985,0.0,0.0,0.0,1.8292,1.6525,1.65,1.6936,0.0,0.0,0.0,0.0,0.0,0.0,0.0,2.7684,0.0,2.8298,2.9503,3.0557,3.1298,3.1373,3.1386,3.175,3.2855,3.3043,3.3056,3.3124,3.3124,3.3124,3.3124,3.3124,3.3124,3.3124,3.3124,3.3124,3.3124,3.3124,3.3124,3.3124,3.3056,3.3086,3.3074,3.2478,3.219,3.219,3.1662,3.1386,3.1386,3.1386,3.1386,3.1386,3.1386,3.1687,3.219,3.219,3.2516,3.3056,3.3111,3.3124,3.3124,3.3124,3.3124,3.3124,3.3124,3.2717,3.2215,0.0,0.0,0.0,0.0,0.0,1.7739,1.7739,1.7739,1.779,0.0,0.0,0.0,1.8229,1.8894,1.9296,1.9145,1.8794,1.8166,1.72,1.6748,1.65,1.65,1.65,1.6688,1.7137,1.6886,1.6886,1.7137,1.7036,1.735,1.8102,1.9183,2.0349,2.1578,2.2096,2.2902,2.3835,2.2608,0.0,2.4932,2.5021,2.6124,0.0,0.0,0.0,0.0,0.0,2.9654,2.8649,0.0,2.5473,2.3351,0.0,0.0,0.0,1.6635,0.0,0.0,1.7277,0.0,0.0,0.0,0.0,0.0,0.0,0.0,0.0,2.8009,2.8499,2.9026,3.1022,3.1386,3.1486,3.18,3.219,3.2604,3.3061,3.3124,3.3124,3.3124,3.3124,3.3124,3.3124,3.3124,3.3124,0.0,3.3124,3.3124,3.3124,3.2679,3.2265,3.1863,3.17,3.1625,3.1625,3.1461,3.1386,3.1386,3.1386,3.1386,3.1386,3.1386,3.1474,3.1625,3.1625,3.1938,3.2478,3.2905,3.3124,3.3124,3.3124,3.3124,3.3124,3.3124,3.2717,3.2152,0.0,0.0,0.0,0.0,0.0,1.8957,1.9196,1.9233,1.9309,0.0,0.0,0.0,1.9911,2.0903,2.1267,2.0564,2.0024,1.9145,1.7815,1.72,1.6773,1.65,1.6748,1.7036,1.7398,1.7478,1.7501,1.741,1.7275,1.7149,1.7036,1.7928,1.8657,1.9283,1.9936,2.0734,2.1443,2.0053,0.0,0.0,2.5903,0.0,0.0,3.0253,3.1047,0.0,0.0,0.0,3.0357,2.9691,2.7708,0.0,0.0,0.0,0.0,0.0,0.0,0.0,0.0,0.0,0.0,0.0,0.0,0.0,0.0,2.2836,0.0,0.0,2.7344,2.7846,2.9679,3.0206,3.0444,3.0683,3.1185,3.1738,3.2303,3.2378,3.2378,3.2378,3.2378,3.2378,3.2378,3.2378,3.2378,3.2378,3.2378,3.2378,3.2378,3.2051,3.1725,3.1399,3.1185,3.1072,3.1072,3.0834,3.0721,3.0721,3.0721,3.0721,3.0721,3.0721,3.0846,3.1072,3.1072,3.1373,3.1888,3.2227,3.2654,3.3056,3.2805,3.2867,3.3124,3.3124,3.2566,3.1825,0.0,0.0,1.8581,1.9171,1.971,2.0288,2.0968,2.1006,2.1182,0.0,2.1458,2.1597,2.2736,2.3653,2.3577,2.2083,2.1295,2.0176,1.8493,1.7752,1.7124,1.6525,1.7074,1.7436,1.7498,1.8406,1.8455,1.7498,1.7903,1.7564,1.65,1.7049,1.7242,1.7119,1.7242,1.8083,1.938,1.8647,0.0,2.4201,2.717,2.8462,0.0,0.0,3.1847,3.1637,3.2139,3.1989,3.1562,3.1436,2.9315,0.0,0.0,0.0,0.0,0.0,2.0037,0.0,0.0,0.0,0.0,0.0,0.0,0.0,2.3358,2.3075,2.2849,0.0,2.6336,2.6866,2.7607,2.8148,2.8675,2.9164,2.9854,3.0583,3.1286,3.1386,3.1386,3.1386,3.1386,3.1386,3.1386,3.1386,3.1386,3.1386,3.1386,3.1361,3.1298,3.1298,3.1273,3.121,3.0771,3.052,3.052,3.0043,2.9792,2.9792,2.9792,2.9792,2.9792,2.9792,3.0068,3.052,3.052,3.0821,3.1298,3.1235,3.1876,3.2842,3.239,3.2491,3.2905,3.2998,3.2265,3.1298,0.0,1.9133,1.9811,2.0828,2.1468,2.2171,2.3188,2.2949,2.2995,2.401,2.4079,2.4594,2.6138,2.5699,2.5159,2.482,2.3075,2.128,1.9597,1.819,1.7124,1.6525,1.7074,1.7612,1.8028,1.8254,1.8254,1.8041,1.7714,1.7187,1.65,1.6613,1.6663,1.6641,1.6663,1.7295,1.8399,1.9926,0.0,2.369,2.4702,0.0,3.004,3.095,3.1926,3.2767,3.2867,3.2842,3.2646,3.17,2.9779,2.7457,0.0,0.0,0.0,0.0,0.0,2.2619,2.1854,0.0,0.0,0.0,0.0,0.0,1.9924,2.0275,2.1295,0.0,2.2548,2.3201,2.5109,2.5887,2.6138,2.5837,2.7369,2.9252,3.1122,3.1386,3.1386,3.1386,3.1386,3.1386,3.1386,3.1386,3.1386,3.1386,3.1386,3.121,3.0783,3.0771,3.057,3.0118,3.0005,2.9955,2.9955,2.9842,2.9792,2.9792,2.9792,2.9792,2.9792,2.9792,2.9854,2.9955,2.9955,3.0269,3.0733,3.0281,3.0746,3.175,3.2089,3.2014,3.1775,3.2215,3.17,3.0771,0.0,1.9899,2.0903,2.1744,2.2598,2.3615,2.5021,2.4983,2.5197,2.6314,2.6669,2.6979,2.7256,2.703,2.6628,2.6109,2.4268,2.2435,2.0752,1.9108,1.7827,1.6986,1.7488,1.8053,1.8581,1.8869,1.8882,1.8594,1.8066,1.735,1.65,1.65,1.6951,1.7716,1.72,1.7992,1.9784,0.0,2.1589,2.3661,2.5928,0.0,3.0838,3.2017,3.2907,3.3483,3.3483,3.3307,3.2867,3.1474,3.0269,0.0,0.0,2.6251,2.5661,0.0,2.3929,2.4556,0.0,0.0,0.0,2.2949,0.0,0.0,0.0,2.0905,2.1169,2.2811,2.2259,2.2083,2.4054,0.0,2.4707,2.4456,2.6264,2.7883,2.8423,2.9716,3.0595,3.0595,3.0595,3.0595,3.0595,3.0595,3.0595,3.0595,3.0595,3.0482,3.0218,3.0206,3.008,2.9804,2.9792,2.9792,2.9792,2.9792,2.9792,2.9792,2.9792,2.9792,2.9792,2.9792,2.9792,2.9792,2.9792,2.9942,3.0181,2.9905,3.0118,3.0645,3.1198,3.1399,3.1424,3.17,3.1298,3.062,0.0,2.0426,2.1631,2.2071,2.3263,2.4644,2.6109,2.6424,2.6927,2.8109,2.88,2.895,2.816,2.8285,2.816,2.7505,2.5644,2.3853,2.2385,2.0539,1.9058,1.8077,1.8242,1.8618,1.9146,1.9497,1.9346,1.8682,1.8267,1.7526,1.65,1.6613,1.744,1.882,1.8154,1.9233,0.0,0.0,0.0,2.4554,0.0,2.9866,3.0673,3.2684,3.3483,3.3608,3.3822,3.3608,3.2993,3.1449,3.0859,3.0419,2.8398,2.8072,0.0,0.0,0.0,0.0,0.0,0.0,0.0,0.0,0.0,2.354,0.0,0.0,0.0,2.3653,0.0,0.0,0.0,0.0,0.0,0.0,0.0,0.0,0.0,2.7281,0.0,2.8988,2.9277,2.9465,2.9465,2.9377,2.944,2.9767,2.949,2.9453,2.9779,2.9792,2.9792,2.9792,2.9792,2.9792,2.9792,2.9792,2.9792,2.9792,2.9792,2.9792,2.9792,2.9792,2.9792,2.9792,2.9792,2.9792,2.9792,2.9792,2.9792,2.9842,3.0407,3.0809,3.1097,3.1198,3.0909,3.0457,1.9823,2.0677,2.1506,2.1568,2.3326,2.4946,2.5598,2.6172,2.7065,2.8624,2.9728,3.0557,3.0884,3.0131,0.0,0.0,0.0,0.0,2.5172,0.0,2.0941,2.0352,1.9422,1.9158,1.9698,1.9296,1.8606,1.7564,1.7524,1.7149,1.65,1.7049,1.7652,1.8342,1.9158,0.0,0.0,0.0,2.4367,0.0,2.8897,2.8882,0.0,3.0877,3.2065,3.2541,3.3545,3.3859,3.3621,0.0,3.17,3.1097,0.0,2.9553,2.9352,0.0,0.0,0.0,0.0,0.0,0.0,0.0,2.648,0.0,0.0,0.0,2.315,2.1509,0.0,0.0,0.0,0.0,0.0,0.0,0.0,0.0,2.2774,2.4644,2.6076,2.6076,2.7394,2.8298,2.8298,2.7858,2.8185,2.9679,2.8411,2.8222,2.9716,2.9792,2.9792,2.9792,2.9792,2.9792,2.9792,2.9792,2.9792,2.9792,2.9792,2.9792,2.9792,2.9792,2.9792,2.9792,2.9792,2.9792,2.9792,2.9792,2.9792,2.9842,3.0407,3.0357,3.003,3.052,3.0357,2.988,1.9849,2.0966,2.187,2.1543,2.3075,2.4619,2.5473,2.772,2.9465,2.9854,3.1148,3.2127,0.0,0.0,0.0,0.0,0.0,2.836,0.0,0.0,0.0,2.2652,2.1217,2.0702,2.1255,2.0087,1.9095,1.8342,1.7689,1.7087,1.65,1.7112,1.8355,2.0125,2.0577,0.0,2.504,0.0,2.5319,0.0,0.0,0.0,0.0,3.2306,3.397,3.4116,3.4324,3.4374,3.4161,0.0,3.2051,0.0,0.0,0.0,0.0,0.0,0.0,0.0,0.0,0.0,0.0,0.0,0.0,0.0,2.3753,0.0,2.2937,0.0,0.0,0.0,0.0,0.0,0.0,0.0,2.1782,0.0,0.0,0.0,2.4054,0.0,0.0,0.0,2.7128,2.6977,2.7404,2.8712,2.7858,2.7871,2.9214,2.9616,2.9792,2.9792,2.9792,2.9792,2.9792,2.9792,2.9792,2.9792,2.9792,2.9792,2.9792,2.9792,2.9792,2.9792,2.9792,2.9792,2.9792,2.9792,2.9792,2.9817,3.0043,2.9993,2.9817,3.0055,2.9993,2.9792,2.0012,0.0,0.0,2.1358,2.2786,2.4469,2.585,2.8574,3.052,3.0608,3.1788,0.0,3.3458,3.3018,0.0,0.0,3.2554,3.0934,0.0,0.0,2.5665,2.5146,2.3376,0.0,0.0,2.1129,1.9861,1.9008,1.8078,1.7476,1.719,1.7639,1.9058,2.132,2.1895,2.396,2.6959,0.0,2.6993,2.8102,2.9231,2.9866,3.0496,3.3796,3.5332,3.5646,3.5107,3.4906,3.4668,3.3194,3.2579,0.0,3.1788,0.0,0.0,0.0,0.0,0.0,2.8762,0.0,0.0,0.0,0.0,0.0,0.0,0.0,0.0,0.0,0.0,0.0,0.0,0.0,0.0,0.0,0.0,2.1556,0.0,0.0,0.0,0.0,0.0,0.0,0.0,2.5531,2.59,2.7306,2.6628,2.6892,2.8574,2.9101,2.9478,2.9779,2.9792,2.9792,2.9792,2.9792,2.9792,2.9792,2.9792,2.9792,2.9792,2.9792,2.9792,2.9792,2.9792,2.9792,2.9792,2.9792,2.9934,3.0101,3.0101,3.0101,3.0101,3.0101,3.0101,3.0139,2.0553,2.0704,0.0,0.0,2.2552,2.4732,2.6892,2.7783,2.8787,3.0407,3.1097,0.0,0.0,0.0,0.0,0.0,0.0,3.3545,3.2998,0.0,2.8512,2.7996,2.5887,2.4469,0.0,0.0,2.0639,1.9008,1.8455,1.8418,1.892,1.8945,1.9585,2.0817,2.2949,2.4741,2.6253,2.8037,3.0276,3.2592,3.2845,3.4211,3.599,0.0,3.4939,3.6304,3.5671,0.0,0.0,3.4223,3.3483,0.0,0.0,0.0,0.0,0.0,0.0,0.0,0.0,0.0,0.0,2.7329,0.0,0.0,0.0,0.0,2.4562,0.0,0.0,0.0,0.0,0.0,0.0,0.0,0.0,0.0,0.0,0.0,0.0,0.0,0.0,0.0,0.0,2.3088,2.3339,0.0,2.4148,2.4662,2.7959,2.8147,2.8662,2.9767,2.9792,2.9792,2.9792,2.9792,2.9792,2.9792,2.9792,2.9792,2.9792,2.9792,2.9792,2.9792,2.9792,2.9792,2.9792,2.9792,3.0203,3.0857,3.0857,3.0857,3.0857,3.0857,3.0857,3.097,0.0,0.0,0.0,0.0,0.0,2.487,2.7431,2.8925,3.0495,0.0,3.3257,0.0,0.0,3.6734,3.7073,0.0,0.0,3.6232,3.5349,3.3006,0.0,0.0,0.0,2.708,0.0,0.0,2.251,2.1177,2.0275,1.9736,1.9547,1.9547,2.0338,2.1832,0.0,2.5795,0.0,0.0,0.0,0.0,0.0,3.4444,3.6355,0.0,3.5927,3.638,3.6157,3.6094,0.0,3.524,3.4625,3.4073,3.3508,3.2692,3.1901,3.1725,3.1537,3.1311,0.0,0.0,3.1323,2.8737,0.0,0.0,0.0,0.0,0.0,0.0,0.0,0.0,0.0,0.0,0.0,0.0,0.0,0.0,0.0,0.0,0.0,0.0,0.0,0.0,0.0,0.0,0.0,0.0,2.3803,0.0,2.6939,2.8059,2.8825,2.9202,2.9591,2.9792,2.9792,2.9792,2.9792,2.9792,2.9792,2.9792,2.9792,2.9792,2.9792,2.9792,2.9792,2.9792,2.9792,2.9792,3.0241,3.0895,3.0895,3.123,3.1709,3.1709,3.1378,3.1007,2.2874,0.0,0.0,0.0,0.0,2.5737,2.831,3.0118,3.1838,0.0,3.455,0.0,3.7789,0.0,3.8316,0.0,3.8642,3.7764,3.6493,3.5085,0.0,3.3909,3.1499,0.0,0.0,2.7143,2.4908,2.317,0.0,2.1455,2.0702,2.0702,2.128,2.2397,0.0,2.6302,2.8499,3.0947,3.2215,0.0,0.0,3.5148,0.0,0.0,3.6405,3.6405,0.0,3.6405,3.6355,3.5956,3.5466,3.4997,3.4978,3.4002,3.2895,3.3338,3.2781,3.2066,3.2272,3.2255,0.0,3.0443,2.9387,0.0,2.6289,0.0,0.0,0.0,0.0,0.0,0.0,0.0,0.0,0.0,0.0,0.0,0.0,1.8129,0.0,0.0,0.0,0.0,0.0,0.0,2.0941,2.2406,2.2711,0.0,0.0,2.7356,2.8323,2.8875,2.949,2.9792,2.9792,2.9792,2.9792,2.9792,2.9792,2.9792,2.9792,3.0062,3.0203,3.0216,3.0508,3.0621,3.0621,3.0621,3.1071,3.1733,3.1733,3.2024,3.2506,3.2506,3.2349,3.2182,2.3979,2.3672,0.0,2.3384,2.5159,2.7329,0.0,0.0,3.2654,0.0,3.4906,3.621,3.7914,3.809,3.8517,3.9597,3.922,3.8278,3.6681,3.6518,0.0,0.0,3.4123,3.3318,3.1707,2.9995,2.7769,0.0,0.0,0.0,2.2406,2.2347,2.2293,0.0,2.4619,0.0,2.757,3.1411,3.3709,3.4864,3.5931,3.6405,3.6405,3.6405,3.6405,3.6405,3.6405,3.6405,3.6405,3.6405,3.6065,3.5764,3.6657,3.564,3.4328,3.5437,3.4562,3.3365,3.387,3.321,3.2373,3.231,3.1138,0.0,0.0,0.0,2.8409,0.0,0.0,0.0,0.0,0.0,0.0,0.0,0.0,0.0,0.0,0.0,0.0,0.0,0.0,0.0,0.0,0.0,1.9145,2.1242,2.0993,0.0,0.0,2.6122,2.7168,2.8762,2.9465,2.9792,2.9792,2.9792,2.9792,2.9792,2.9792,2.9792,2.983,3.0545,3.0895,3.0932,3.1746,3.211,3.211,3.211,3.2541,3.3178,3.3178,3.3213,3.3262,3.3213,3.3707,3.4298,2.5247,2.6076,2.6954,0.0,2.7582,2.8423,0.0,0.0,0.0,0.0,3.6332,3.74,3.9082,3.9258,3.9383,3.9672,3.9559,0.0,0.0,0.0,0.0,3.8683,3.7157,3.6085,3.5643,3.3219,0.0,2.8524,0.0,0.0,2.4123,0.0,0.0,0.0,0.0,0.0,2.8097,3.1148,3.3558,3.5345,3.6081,3.6405,3.6405,0.0,3.6405,3.6405,3.6405,3.6405,3.6405,3.6405,3.6773,3.7064,3.6162,3.6514,3.694,3.543,3.5296,3.5425,3.4237,3.4332,3.4337,3.2636,3.228,3.1953,0.0,0.0,0.0,0.0,0.0,0.0,0.0,0.0,0.0,0.0,0.0,0.0,0.0,0.0,0.0,0.0,0.0,0.0,0.0,0.0,1.9623,2.0188,2.0878,0.0,0.0,0.0,2.6402,2.767,2.9063,2.9792,2.9792,2.9792,2.9792,2.9792,2.9792,2.9792,2.983,3.0545,3.0895,3.0932,3.1746,3.211,3.211,3.211,3.2541,3.3178,3.3178,3.3555,3.4011,3.3402,3.3707,3.438,2.6753,2.8423,0.0,3.0267,0.0,0.0,3.234,3.2955,0.0,3.6141,3.7322,0.0,3.9233,3.9986,4.0413,4.0413,4.0199,0.0,3.9371,0.0,0.0,4.0004,3.9092,3.8293,3.7841,3.5621,0.0,3.0156,0.0,0.0,2.5154,0.0,0.0,0.0,0.0,2.6537,2.7632,3.1373,3.3947,3.5545,3.6144,3.6405,0.0,3.6405,3.6405,3.6452,3.6862,3.6769,3.6452,3.6862,3.7361,3.7789,3.7751,3.805,3.829,3.7663,3.7279,3.6972,3.6708,3.6318,3.59,3.5413,3.4749,3.4009,3.3152,3.3244,3.3485,0.0,3.2918,3.255,0.0,0.0,0.0,0.0,0.0,0.0,0.0,0.0,0.0,0.0,0.0,0.0,0.0,0.0,1.8945,1.9422,0.0,0.0,0.0,0.0,2.6113,2.7243,2.8674,2.9528,2.9792,3.0101,3.0279,3.0279,3.0646,3.0797,3.0835,3.1563,3.1915,3.1951,3.2769,3.3101,3.3101,3.3101,3.3346,3.3707,3.3707,3.4011,3.4346,3.3894,3.4011,3.4414,2.8423,0.0,0.0,0.0,0.0,0.0,3.4487,3.4851,0.0,3.6707,0.0,3.9195,3.9195,4.0475,4.1288,4.1288,0.0,4.0187,3.9208,3.9688,3.9968,3.983,4.0505,4.0399,3.9222,3.7519,0.0,0.0,0.0,2.7853,2.579,0.0,0.0,0.0,0.0,0.0,0.0,3.1964,3.4575,3.5658,3.6245,3.665,3.6808,3.6808,3.6852,3.7011,3.7834,3.7459,3.6722,3.7671,3.8069,3.8419,3.9942,3.9712,3.9139,4.0483,3.9519,3.8297,3.9553,3.848,3.7343,3.8553,3.7442,3.5969,3.5602,3.5008,3.4782,3.552,3.4226,3.3379,3.4812,0.0,0.0,0.0,0.0,0.0,0.0,0.0,0.0,0.0,0.0,0.0,0.0,0.0,0.0,0.0,0.0,0.0,0.0,0.0,2.5787,2.7165,2.831,2.9202,2.9779,3.0507,3.0895,3.0932,3.1709,3.211,3.211,3.2861,3.3178,3.3248,3.4045,3.4414,3.4414,3.4414,3.4414,3.4414,3.4414,3.4414,3.4414,3.4414,3.4414,3.4414,3.0093,0.0,0.0,0.0,0.0,3.6383,3.7161,3.7362,3.7839,3.8969,4.0162,4.0902,4.0902,4.1112,4.1288,4.1288,4.12,0.0,0.0,0.0,0.0,4.0945,4.2644,4.2907,4.1457,3.9301,3.7049,0.0,3.0437,2.7683,2.6428,0.0,0.0,0.0,0.0,0.0,3.067,3.2943,0.0,3.6317,3.6822,3.7865,3.9029,3.9029,3.9248,3.9575,3.9698,3.8798,3.7717,3.8644,3.9461,4.0029,3.9593,4.039,4.121,3.9891,3.9985,4.0239,3.9018,3.9072,3.9099,3.7452,3.7833,3.8221,3.6936,3.7073,3.7517,3.7667,3.703,3.6036,3.4773,0.0,0.0,0.0,0.0,0.0,0.0,0.0,0.0,0.0,0.0,0.0,0.0,0.0,0.0,0.0,0.0,0.0,0.0,0.0,2.4029,0.0,2.8109,2.9202,0.0,0.0,3.0895,3.0932,3.1709,3.211,3.211,3.2861,3.3178,3.3248,3.4045,3.4414,3.4414,3.4414,3.4414,3.4414,3.4414,3.4414,3.4414,3.4414,3.4414,3.4414,0.0,0.0,0.0,0.0,0.0,0.0,3.9145,3.9798,4.0049,3.9735,4.04,4.0915,4.0915,4.1681,4.2195,4.2195,4.1932,4.1656,4.1392,4.184,4.199,4.1703,4.2858,0.0,4.2005,4.0296,3.8349,3.6103,3.2165,2.9308,2.7547,0.0,0.0,0.0,0.0,2.8756,0.0,0.0,3.5936,3.7286,3.8689,3.9706,4.0381,4.0381,4.0487,4.0704,4.1217,4.0889,4.0232,3.9988,4.0246,4.0603,4.0674,4.1367,4.1912,4.0958,4.1153,4.1435,4.0561,4.048,4.0238,3.8764,3.8807,3.89,3.784,3.7886,3.8202,3.8202,3.797,3.6961,3.4393,3.1879,0.0,0.0,0.0,0.0,0.0,0.0,0.0,0.0,0.0,0.0,0.0,0.0,0.0,0.0,0.0,0.0,0.0,0.0,2.4099,0.0,0.0,0.0,3.0996,0.0,3.2096,3.2096,3.2911,3.3276,3.3325,3.3673,3.3811,3.3845,3.423,3.4414,3.4414,3.4414,3.4414,3.4443,3.4777,3.4907,3.4951,3.527,3.5183,3.4864,0.0,3.6847,0.0,0.0,3.8856,3.9685,4.0563,4.1618,4.1923,4.0563,4.0777,4.104,4.104,4.2195,4.2974,4.2974,4.264,4.2338,4.2213,4.2368,4.2228,4.1776,4.2749,4.2937,4.2195,4.1196,3.9626,0.0,3.4245,3.1411,2.8911,0.0,0.0,0.0,0.0,0.0,0.0,0.0,3.7555,3.8932,4.0613,4.1478,4.1772,4.1772,4.1828,4.1993,4.2758,4.2911,4.2656,4.1652,4.1227,4.1227,4.1899,4.2092,4.2092,4.2092,4.2092,4.2092,4.2092,4.17,4.1149,4.0481,3.9842,3.9218,3.8565,3.8304,3.8202,3.8202,3.7984,3.691,3.4047,3.2353,0.0,0.0,0.0,0.0,0.0,0.0,0.0,0.0,0.0,0.0,0.0,0.0,0.0,0.0,0.0,0.0,2.0776,2.2233,2.4353,0.0,0.0,3.0031,3.1478,0.0,3.3178,3.3213,3.4011,3.4414,3.4414,3.4414,3.4414,3.4414,3.4414,3.4414,3.4428,3.4559,3.4617,3.4675,3.5314,3.5595,3.5654,3.6112,3.5996,3.5523,0.0,0.0,0.0,0.0,0.0,4.1087,4.12,4.2195,4.2848,4.2685,4.271,4.2748,4.2748,4.2886,4.2974,4.2974,4.2924,4.274,4.2238,4.3048,4.2693,4.0709,4.3436,4.4255,4.2772,4.255,4.1568,0.0,0.0,3.3232,3.0403,3.0169,0.0,0.0,0.0,0.0,3.6373,3.7704,3.9608,4.1619,4.1822,4.2741,4.399,4.399,4.422,4.4557,4.466,4.4312,4.3835,4.3704,4.327,4.2719,4.2225,4.2092,4.2092,4.2092,4.2092,4.2092,4.2092,4.2049,4.1845,4.1163,4.051,3.9857,3.9247,3.8638,3.8202,3.8202,3.7288,3.588,3.3887,3.38,3.3249,0.0,0.0,0.0,0.0,0.0,0.0,0.0,0.0,0.0,0.0,1.999,0.0,0.0,1.8596,0.0,2.197,2.2231,2.3659,2.6692,2.8411,2.9368,2.9556,3.1969,3.3178,3.3213,3.4011,3.4414,3.4414,3.4414,3.4414,3.4414,3.4414,3.4414,3.4457,3.5072,3.5319,3.5378,3.5967,3.6228,3.6228,3.6286,3.6272,3.6214,0.0,3.9685,3.9936,4.0754,4.084,4.1178,4.217,4.2698,4.2974,4.2974,4.2974,4.2974,4.2974,4.2974,4.2974,4.2974,4.2974,4.2886,4.266,4.395,4.4058,4.2575,4.4266,4.4663,4.337,4.319,4.2398,0.0,0.0,3.573,3.3459,3.1871,3.1872,3.324,3.4503,3.6319,3.8505,4.0265,4.1747,4.2953,4.3959,4.4684,4.5247,4.5247,4.5376,4.5488,4.5488,4.5329,4.5068,4.4661,4.411,4.3485,4.2832,4.2629,4.2571,4.2208,4.2092,4.2092,4.2092,4.2092,4.1932,4.1265,4.0597,3.9944,3.9334,3.8681,3.8202,3.8202,3.7186,3.5967,3.4854,3.3877,3.3195,3.2919,0.0,0.0,0.0,0.0,0.0,0.0,0.0,0.0,0.0,0.0,0.0,0.0,0.0,0.0,2.0868,2.2128,2.3863,2.6144,0.0,3.0801,3.1216,3.3027,3.3928,3.3928,3.4264,3.4414,3.4414,3.4414,3.4414,3.4414,3.4414,3.4632,3.5009,3.529,3.5625,3.5996,3.6649,3.691,3.6954,3.7317,3.7274,3.7062,4.1543,4.0953,4.089,4.2439,4.1995,4.1932,4.3263,4.3463,4.3463,4.3463,4.3463,4.3338,4.3011,4.2974,4.2974,4.2974,4.2974,4.2974,4.2974,4.4063,4.4428,4.3834,4.4788,0.0,4.4178,4.4303,4.3681,4.2248,4.0472,3.8628,3.673,3.4719,3.4659,3.6375,3.7777,3.9326,4.0914,4.2628,4.3659,4.4271,4.5452,4.588,4.588,4.588,4.588,4.588,4.588,4.588,4.5808,4.5343,4.4893,4.44,4.3544,4.3152,4.2919,4.2484,4.2237,4.2092,4.2092,4.2092,4.199,4.1512,4.0742,3.9987,3.9567,3.8812,3.8159,3.797,3.707,3.6112,3.5508,3.4109,3.3238,3.3775,0.0,0.0,0.0,0.0,0.0,0.0,2.7186,2.4979,2.3621,0.0,0.0,0.0,0.0,0.0,0.0,2.2809,0.0,0.0,0.0,0.0,3.2227,3.3661,3.4414,3.4414,3.4414,3.4414,3.4414,3.4414,3.4516,3.469,3.469,3.5053,3.5697,3.5886,3.6199,3.6664,3.7317,3.7564,3.7622,3.8043,3.8075,3.7843,4.2087,4.2187,4.2527,4.3589,4.3765,4.3953,4.4518,4.4606,4.4606,4.4606,4.4606,4.4192,4.3099,4.2974,4.2974,4.2974,4.2974,4.2974,4.2974,4.303,4.3237,0.0,0.0,4.5335,4.5296,4.6239,4.5835,4.3979,0.0,0.0,4.0031,3.9421,3.9774,4.1076,4.1717,4.2774,4.4008,4.4618,4.5256,4.588,4.588,4.588,4.588,4.588,4.588,4.588,4.588,4.588,4.588,4.588,4.5866,4.5648,4.4385,4.3529,4.2992,4.2977,4.2571,4.2092,4.2092,4.2092,4.2092,4.2092,4.1091,4.0104,4.0089,3.9102,3.8028,3.7433,3.678,3.6112,3.5508,3.4835,3.3993,3.2745,0.0,0.0,0.0,0.0,0.0,0.0,2.6767,2.4824,2.4863,0.0,0.0,0.0,0.0,0.0,0.0,0.0,0.0,2.8552,3.0524,0.0,3.1617,3.348,3.4414,3.4414,3.4414,3.4414,3.4414,3.4414,3.4762,3.5392,3.5392,3.5741,3.6344,3.7012,3.7288,3.736,3.7955,3.8188,3.8188,3.8202,3.8315,3.8516,4.3237,4.3576,4.3953,4.4305,4.4367,4.4418,4.4593,4.4618,4.4618,4.4618,4.4618,4.4493,4.4141,4.3765,4.3388,0.0,4.3725,4.4152,0.0,4.4819,4.5356,4.5473,4.6181,4.62,4.545,4.6325,4.6198,4.489,0.0,4.2919,4.1468,4.1686,4.2237,4.3094,4.3718,4.4472,4.53,4.5488,4.5692,4.588,4.588,4.588,4.588,4.588,4.588,4.588,4.588,4.588,4.588,4.588,4.588,4.5822,4.5401,4.4821,4.4197,4.379,4.321,4.2702,4.2702,4.2411,4.2092,4.2092,4.1439,4.0655,4.0191,3.9117,3.8028,3.7433,3.678,3.6112,3.5508,3.4835,3.4283,3.3877,3.4153,0.0,3.2991,0.0,0.0,0.0,2.8203,2.6608,2.6228,2.5807,0.0,0.0,0.0,0.0,0.0,0.0,0.0,0.0,3.094,0.0,3.2227,3.3676,3.4414,3.4414,3.4414,3.4646,3.5116,3.5503,3.5807,3.5996,3.5996,3.6388,3.7012,3.7215,3.7549,3.7941,3.813,3.8202,3.8202,3.8202,3.8427,3.8686,4.4116,4.438,4.4694,4.4907,4.4945,4.502,4.5221,4.5259,4.5259,4.5259,4.5259,4.5183,4.497,4.4644,4.4129,4.3363,4.4351,4.4905,4.4696,4.5714,4.649,4.6919,4.7239,4.7183,4.6732,4.7248,4.7077,4.6253,4.5419,4.4531,4.3529,4.3906,4.4298,4.4719,4.5097,4.5503,4.588,4.588,4.588,4.588,4.588,4.588,4.588,4.588,4.588,4.588,4.588,4.588,4.588,4.588,4.588,4.588,4.588,4.559,4.514,4.4516,4.3863,4.3311,4.3065,4.2716,4.2382,4.215,4.1599,4.0858,3.9958,3.9146,3.8405,3.7781,3.7128,3.6475,3.5836,3.5198,3.469,3.4443,3.4414,3.4109,3.3224,0.0,0.0,0.0,0.0,0.0,0.0,2.7953,2.791,0.0,0.0,0.0,0.0,0.0,2.8405,2.855,3.1789,3.3398,3.3238,3.4008,3.4414,3.4414,3.4661,3.5096,3.577,3.6127,3.6446,3.6693,3.6693,3.7056,3.7651,3.7651,3.7906,3.8315,3.8315,3.8352,3.8427,3.8427,3.8634,3.8907,4.4681,4.4719,4.492,4.5447,4.5547,4.5711,4.6225,4.6313,4.6313,4.6313,4.6313,4.6112,4.5598,4.5653,4.5213,4.4118,4.4987,4.5461,4.5032,4.5887,4.6905,4.7971,4.8021,4.8219,4.8654,4.8692,4.8406,4.7782,4.7187,4.6577,4.5953,4.5953,4.5924,4.588,4.588,4.588,4.588,4.588,4.588,4.588,4.588,4.588,4.588,4.588,4.588,4.588,4.588,4.588,4.588,4.588,4.588,4.588,4.588,4.588,4.5764,4.514,4.4531,4.3921,4.3297,4.3065,4.2861,4.2295,4.1628,4.0771,3.9538,3.9233,3.9015,3.8333,3.7723,3.7114,3.6431,3.5793,3.5189,3.4516,3.437,3.392,3.2655,3.1944,0.0,0.0,0.0,0.0,2.8942,3.006,3.0728,0.0,0.0,0.0,0.0,0.0,2.9116,3.148,3.2861,3.3819,3.4399,3.4457,3.4501,3.4545,3.5198,3.5842,3.6373,3.6417,3.678,3.7375,3.7375,3.768,3.8202,3.8202,3.8315,3.8478,3.8478,3.8612,3.8782,3.8782,3.8943,3.9104,4.5284,4.5623,4.5949,4.61,4.6112,4.6163,4.6288,4.6313,4.6313,4.6313,4.6313,4.6263,4.6125,4.6941,4.7218,4.6505,4.6694,4.7134,4.7934,4.7749,4.7703,4.7971,4.8021,4.8052,4.8162,4.8522,4.8406,4.7782,4.7622,4.723,4.6606,4.6606,4.6345,4.588,4.588,4.588,4.588,4.588,4.588,4.588,4.588,4.588,4.588,4.588,4.588,4.588,4.588,4.588,4.588,4.588,4.588,4.588,4.588,4.588,4.5851,4.5692,4.5184,4.4632,4.4487,4.3732,4.2963,4.2818,4.1932,4.0887,4.0075,3.9523,3.9015,3.8333,3.7723,3.7114,3.6431,3.5793,3.5189,3.4516,3.4008,3.3427,3.2597,3.235,3.1944,0.0,3.1495,3.1553,3.0901,3.2019,3.1992,0.0,0.0,3.1845,3.0843,3.1163,3.1625,3.2234,3.3514,3.4269,3.4414,3.4893,3.5372,3.5865,3.6533,3.6925,3.7085,3.7549,3.7839,3.7984,3.7984,3.8072,3.8202,3.8202,3.8315,3.8478,3.8478,3.8612,3.8782,3.8782,3.8943,3.9104,4.5861,4.61,4.6313,4.6313,4.6313,4.6313,4.6313,4.6313,4.6313,4.6313,4.6755,4.7146,4.7146,4.821,4.9043,4.9272,4.9036,4.898,4.937,4.9319,4.9245,4.9245,4.8959,4.8802,4.8802,4.9029,4.8856,4.8217,4.8217,4.7883,4.7274,4.7274,4.7085,4.6737,4.6446,4.6316,4.6301,4.6011,4.588,4.588,4.588,4.588,4.588,4.588,4.588,4.588,4.588,4.588,4.588,4.588,4.588,4.588,4.588,4.588,4.588,4.588,4.5634,4.5271,4.4966,4.4385,4.3718,4.3137,4.2266,4.1381,4.0713,4.006,3.9421,3.8797,3.8159,3.7433,3.6475,3.6025,3.5488,3.4559,3.4124,3.3674,3.305,3.2962,3.2716,3.2063,3.2556,3.2803,3.244,3.3311,3.3325,3.1886,3.2756,0.0,3.2367,3.2991,3.3253,3.2962,3.4182,3.4849,3.4849,3.5473,3.6112,3.6765,3.7128,3.7447,3.7723,3.8057,3.8202,3.8202,3.8202,3.8202,3.8202,3.8202,3.8352,3.8664,3.8664,3.8811,3.9068,3.9068,3.9141,3.9228,4.6588,4.6708,4.6815,4.6815,4.6815,4.6755,4.6588,4.6708,4.6755,4.6588,4.7593,4.8371,4.8371,4.9448,5.0573,5.1634,5.1415,5.0957,5.036,5.0615,5.0786,5.072,5.0133,4.9819,4.9717,4.9717,4.9407,4.887,4.887,4.8551,4.7927,4.7927,4.7869,4.7753,4.7216,4.6969,4.694,4.6388,4.6113,4.6026,4.6026,4.5967,4.588,4.588,4.588,4.588,4.588,4.588,4.588,4.588,4.588,4.588,4.588,4.588,4.588,4.588,4.588,4.5764,4.5198,4.4893,4.4472,4.3282,4.2542,4.1918,4.125,4.0655,4.0075,3.9465,3.8812,3.7984,3.6809,3.6446,3.5894,3.4617,3.4327,3.4051,3.3445,0.0,3.33,3.273,3.3224,3.3649,3.3649,3.4095,3.4414,3.4414,3.4414,3.4457,3.4559,3.4559,3.4356,3.3954,3.4884,3.5494,3.5683,3.6185,3.678,3.7447,3.7447,3.7709,3.8202,3.8202,3.8202,3.8202,3.8202,3.8202,3.8202,3.8202,3.8464,3.8782,3.8782,3.9068,3.9388,3.9388,3.9388,3.9388,4.7815,4.866,4.9348,4.9348,4.9348,4.9005,4.799,4.8673,4.8961,4.7919,4.889,4.9632,4.9632,5.0685,5.1525,5.1688,5.2576,5.2818,5.2234,5.1715,5.1236,5.0699,5.0618,5.0299,4.9732,4.9717,4.9625,4.9524,4.9524,4.9204,4.858,4.858,4.829,4.7782,4.768,4.7637,4.7622,4.7521,4.7172,4.6633,4.6633,4.6359,4.588,4.588,4.588,4.588,4.588,4.588,4.588,4.588,4.588,4.588,4.588,4.588,4.588,4.588,4.588,4.5866,4.5764,4.4951,4.395,4.3181,4.2542,4.1918,4.125,4.1018,4.0757,4.0104,3.9465,3.8812,3.8043,3.7041,3.5894,3.4617,3.3964,3.3398,3.2759,0.0,3.346,3.3373,3.3877,3.4269,3.4269,3.4356,3.4414,3.4414,3.4414,3.4646,3.5218,3.5247,3.545,3.5851,3.5566,3.593,3.6997,3.7099,3.7462,3.8072,3.8072,3.8115,3.8202,3.8202,3.8202,3.8202,3.8202,3.8202,3.8202,3.8202,3.8464,3.8782,3.8782,3.9068,3.9388,3.9388,3.9388,3.9388,4.8094,4.8705,4.9392,4.9802,5.0252,5.0182,4.9234,4.9519,4.9689,4.912,5.0126,5.0851,5.0851,5.1934,5.2662,5.2662,5.317,5.3384,5.3094,5.2484,5.2006,5.1766,5.1098,5.0415,4.9732,4.9717,4.9717,4.9717,4.9717,4.9524,4.9233,4.9233,4.9074,4.8831,4.8449,4.829,4.8261,4.7927,4.7608,4.7346,4.7346,4.6969,4.6388,4.6388,4.6185,4.588,4.588,4.588,4.588,4.588,4.588,4.588,4.588,4.588,4.588,4.588,4.588,4.588,4.588,4.5198,4.4313,4.3689,4.305,4.2411,4.1773,4.1352,4.1004,4.0699,4.0133,3.9378,3.8376,3.7462,3.6533,3.559,3.4617,3.3993,3.4037,3.4008,3.4109,3.4477,3.4782,3.5067,3.5401,3.543,3.543,3.543,3.543,3.5561,3.5851,3.5865,3.617,3.6823,3.6562,3.6852,3.7781,3.7781,3.7926,3.8202,3.8202,3.8202,3.8202,3.8202,3.824,3.8366,3.8366,3.8427,3.8523,3.8523,3.8686,3.8943,3.8943,3.9141,3.9388,3.9388,3.9388,3.9388,4.8545,4.9221,5.0,5.0643,5.1265,5.1361,5.0476,5.0531,5.0643,5.0364,5.1361,5.2136,5.2136,5.2943,5.3515,5.3515,5.3515,5.3515,5.3515,5.3065,5.2731,5.2638,5.1483,5.0583,4.9964,4.9901,4.9877,4.9717,4.9717,4.9717,4.9717,4.9717,4.9717,4.9703,4.9161,4.8943,4.8914,4.842,4.813,4.7999,4.7999,4.7622,4.7056,4.7056,4.6664,4.6113,4.6113,4.6011,4.588,4.588,4.588,4.588,4.588,4.588,4.588,4.588,4.588,4.588,4.588,4.5401,4.4777,4.4313,4.3587,4.2876,4.2411,4.1802,4.1323,4.1323,4.08,4.0031,3.9059,3.813,3.7302,3.6649,0.0,3.4965,3.5348,3.5067,3.5038,3.5566,3.5625,3.5813,3.6272,3.6301,3.6301,3.6301,3.6301,3.6373,3.6533,3.6533,3.6838,3.7491,3.752,3.7738,3.8202,3.8202,3.8202,3.8202,3.8202,3.8202,3.8202,3.8202,3.8315,3.8478,3.8478,3.8612,3.8782,3.8782,3.8907,3.9104,3.9104,3.9228,3.9388,3.9388,3.9388,3.9388,4.9745,5.1593,5.317,5.3237,5.329,5.2943,5.1743,5.2502,5.2837,5.1688,5.2609,5.3343,5.3343,5.3462,5.3515,5.3515,5.3515,5.3515,5.3515,5.3471,5.3181,5.2638,5.1918,5.1251,5.0612,5.0647,5.0293,4.9717,4.9717,4.9717,4.9717,4.9717,4.9717,4.9717,4.9625,4.9611,4.9596,4.9601,4.919,4.8653,4.8653,4.8275,4.7709,4.7709,4.7317,4.6705,4.6705,4.6374,4.588,4.588,4.588,4.588,4.588,4.588,4.588,4.588,4.588,4.588,4.588,4.5401,4.4879,4.4821,4.3892,4.2977,4.2934,4.2455,4.202,4.202,4.1482,4.1004,4.0902,3.9378,3.7941,3.7331,0.0,0.0,3.5465,3.5836,3.6185,3.6228,3.6228,3.6257,3.6301,3.6301,3.6301,3.6301,3.6301,3.6577,3.7201,3.723,3.752,3.8115,3.813,3.8159,3.8202,3.8202,3.8202,3.8202,3.8202,3.8202,3.8202,3.8202,3.8315,3.8478,3.8478,3.8612,3.8782,3.8782,3.8907,3.9104,3.9104,3.9228,3.9388,3.9388,3.9388,3.9388,5.1017,5.238,5.3515,5.3515,5.3515,5.3343,5.289,5.3237,5.3343,5.289,5.3237,5.3515,5.3515,5.3515,5.3515,5.3515,5.3515,5.3515,5.3515,5.3515,5.3225,5.2652,5.2339,5.1904,5.128,5.0873,5.0604,5.0293,4.9921,4.9717,4.9717,4.9717,4.9717,4.9717,4.9717,4.9717,4.9717,4.9717,4.9538,4.932,4.932,4.8928,4.8362,4.8362,4.797,4.7419,4.7419,4.7013,4.6475,4.6475,4.6214,4.588,4.588,4.588,4.588,4.588,4.588,4.588,4.588,4.5692,4.5401,4.498,4.4516,4.3964,4.3166,4.2818,4.2542,4.2179,4.1903,4.1584,4.1178,4.0162,3.9175,3.858,0.0,3.6838,3.6606,3.6417,3.646,3.6881,3.6925,3.707,3.7447,3.7476,3.7476,3.7476,3.7476,3.7593,3.7839,3.7868,3.797,3.8188,3.8202,3.8202,3.8202,3.8202,3.8202,3.8202,3.8202,3.8202,3.8202,3.8202,3.8389,3.8686,3.8686,3.887,3.9177,3.9177,3.9228,3.9301,3.9301,3.9337,3.9388,3.9388,3.9388,3.9388,5.1688,5.2662,5.3515,5.3515,5.3515,5.3515,5.3515,5.3515,5.3515,5.3515,5.3515,5.3515,5.3515,5.3515,5.3515,5.3515,5.3515,5.3515,5.3515,5.3515,5.3326,5.2891,5.2862,5.2572,5.1933,5.1497,5.1164,5.0975,5.0307,4.9988,4.9988,4.9819,4.9717,4.9717,4.9717,4.9717,4.9717,4.9717,4.9717,4.9717,4.9717,4.9407,4.9016,4.9016,4.8638,4.8072,4.8072,4.7666,4.71,4.685,4.6534,4.6142,4.5953,4.588,4.588,4.588,4.588,4.588,4.588,4.588,4.5779,4.5314,4.5039,4.4661,4.379,4.3282,4.2876,4.2469,4.2223,4.1961,4.1497,4.0858,4.0278,3.9857,3.8739,3.7897,3.7897,3.7317,3.707,3.7535,3.7593,3.7752,3.8159,3.8202,3.8202,3.8202,3.8202,3.8202,3.8202,3.8202,3.8202,3.8202,3.8202,3.8202,3.8202,3.8202,3.8202,3.8202,3.8202,3.8202,3.8202,3.8202,3.8427,3.8782,3.8782,3.9017,3.9388,3.9388,3.9388,3.9388,3.9388,3.9388,3.9388,3.9388,3.9388,3.9388,5.1688,5.2662,5.3515,5.3515,5.3515,5.3515,5.3515,5.3515,5.3515,5.3515,5.3515,5.3515,5.3515,5.3515,5.3515,5.3515,5.3515,5.3515,5.3515,5.3515,5.3515,5.3515,5.3515,5.3225,5.2638,5.2623,5.2252,5.1628,5.0989,5.0685,5.072,5.0002,4.9732,4.9732,4.9717,4.9717,4.9717,4.9717,4.9717,4.9717,4.9717,4.9717,4.9717,4.9717,4.9291,4.8692,4.8692,4.8333,4.7695,4.7056,4.6792,4.6676,4.6098,4.588,4.588,4.588,4.588,4.588,4.588,4.588,4.588,4.588,4.5387,4.4893,4.4879,4.3906,4.3007,4.3007,4.2528,4.2107,4.2107,4.1555,4.1105,4.1091,4.0046,3.9218,3.9218,3.8638,3.8217,3.8217,3.8217,3.8217,3.8202,3.8202,3.8202,3.8202,3.8202,3.8202,3.8202,3.8202,3.8202,3.8202,3.8202,3.8202,3.8202,3.8202,3.8202,3.8202,3.8202,3.8202,3.8202,3.8202,3.8427,3.8782,3.8782,3.9017,3.9388,3.9388,3.9388,3.9388,3.9388,3.9388,3.9388,3.9388,3.9388,3.9388,5.2943,5.3223,5.3515,5.3515,5.3515,5.3515,5.3515,5.3515,5.3515,5.3515,5.3515,5.3515,5.3515,5.3515,5.3515,5.3515,5.3515,5.3515,5.3515,5.3515,5.3515,5.3515,5.3515,5.3428,5.3239,5.2804,5.247,5.2281,5.1643,5.1338,5.1323,5.067,5.0429,5.04,4.9886,4.9717,4.9717,4.9717,4.9717,4.9717,4.9717,4.9717,4.9717,4.9717,4.9553,4.9393,4.9393,4.8972,4.842,4.8184,4.7869,4.739,4.6751,4.6243,4.588,4.588,4.588,4.588,4.588,4.588,4.588,4.588,4.5735,4.5459,4.4995,4.4603,4.4197,4.3776,4.3181,4.2716,4.2716,4.2223,4.1642,4.1178,4.0771,4.0365,3.99,3.9654,3.9378,3.8957,3.8899,3.8725,3.8246,3.8202,3.8202,3.8202,3.8202,3.8202,3.8202,3.8202,3.8202,3.8202,3.8202,3.8202,3.8202,3.8202,3.8202,3.8202,3.8202,3.8202,3.8202,3.8202,3.8427,3.8782,3.8782,3.9017,3.9388,3.9388,3.9388,3.9388,3.9388,3.9388,3.9388,3.9388,3.9388,3.9388,5.3515,5.3515,5.3515,5.3515,5.3515,5.3515,5.3515,5.3515,5.3515,5.3515,5.3515,5.3515,5.3515,5.3515,5.3515,5.3515,5.3515,5.3515,5.3515,5.3515,5.3515,5.3515,5.3515,5.3515,5.3515,5.3138,5.2949,5.2949,5.231,5.2006,5.1976,5.1352,5.0917,5.0705,5.0299,4.9964,4.9717,4.9717,4.9717,4.9717,4.9717,4.9717,4.9717,4.9717,4.9717,4.9717,4.9717,4.9422,4.9059,4.8812,4.8304,4.7666,4.7027,4.6563,4.6214,4.5953,4.588,4.588,4.588,4.588,4.588,4.588,4.588,4.5779,4.5372,4.5082,4.4792,4.4414,4.3834,4.3297,4.3036,4.2702,4.2237,4.1599,4.1265,4.096,4.0554,4.0263,3.9958,3.9596,3.9567,3.9392,3.8986,3.8739,3.8492,3.8217,3.8202,3.8202,3.8202,3.8202,3.8202,3.8202,3.8202,3.8202,3.8202,3.8524,3.8524,3.8202,3.8202,3.824,3.8315,3.8315,3.8538,3.8907,3.8907,3.9104,3.9388,3.9388,3.9388,3.9388,3.9388,3.9388,3.9388,3.9388,3.9388,3.9388,5.3515,5.3515,5.3515,5.3515,5.3515,5.3515,5.3515,5.3515,5.3515,5.3515,5.3515,5.3515,5.3515,5.3515,5.3515,5.3515,5.3515,5.3515,5.3515,5.3515,5.3515,5.3515,5.3515,5.3515,5.3515,5.3515,5.3515,5.3515,5.2934,5.271,5.2696,5.2006,5.1396,5.0894,5.0786,5.0394,4.9819,4.9819,4.9727,4.9717,4.9717,4.9717,4.9717,4.9717,4.9717,4.9717,4.9717,4.9717,4.9596,4.9016,4.8377,4.7767,4.714,4.6908,4.6795,4.6156,4.5967,4.5953,4.5895,4.588,4.588,4.588,4.588,4.588,4.588,4.5416,4.498,4.498,4.4487,4.3877,4.3268,4.3065,4.2818,4.2266,4.1613,4.1192,4.1192,4.0655,4.0249,4.0191,4.0191,4.0162,4.0104,3.9596,3.903,3.842,3.8376,3.8376,3.8376,3.8376,3.8376,3.8376,3.8376,3.8376,3.8376,3.9186,3.9127,3.824,3.8298,3.841,3.8516,3.8516,3.8738,3.9104,3.9104,3.9228,3.9388,3.9388,3.9388,3.9388,3.9388,3.9388,3.9388,3.9388,3.9388,3.9388,5.3515,5.3515,5.3515,5.3515,5.3515,5.3515,5.3515,5.3515,5.3515,5.3515,5.3515,5.3515,5.3515,5.3515,5.3515,5.3515,5.3515,5.3515,5.3515,5.3515,5.3515,5.3515,5.3515,5.3515,5.3515,5.3515,5.3515,5.3515,5.3384,5.3297,5.3297,5.2659,5.2296,5.2187,5.1643,5.1062,5.0502,5.0502,5.0197,4.9717,4.9717,4.9717,4.9717,4.9717,4.9717,4.9717,4.9717,4.9717,4.9703,4.9524,4.9045,4.8493,4.8315,4.797,4.7448,4.6809,4.6621,4.6519,4.6026,4.588,4.588,4.588,4.588,4.588,4.588,4.5779,4.5663,4.5663,4.5155,4.4647,4.4501,4.366,4.2948,4.2818,4.2281,4.1874,4.1874,4.1758,4.1468,4.0945,4.0873,4.067,4.0147,3.9973,3.9842,3.9697,3.9683,3.9683,3.9683,3.9683,3.9683,3.9683,3.9683,3.9683,3.9683,4.0091,3.9671,3.8441,3.9117,3.9201,3.8723,3.8723,3.887,3.9104,3.9104,3.9228,3.9388,3.9388,3.9388,3.9388,3.9388,3.9388,3.9388,3.9388,3.9388,3.9388,5.3515,5.3515,5.3515,5.3515,5.3515,5.3515,5.3515,5.3515,5.3515,5.3515,5.3515,5.3515,5.3515,5.3515,5.3515,5.3515,5.3515,5.3515,5.3515,5.3515,5.3515,5.3515,5.3515,5.3515,5.3515,5.3515,5.3515,5.3515,5.3515,5.3515,5.35,5.3181,5.2862,5.2609,5.2223,5.1715,5.112,5.112,5.0931,5.0569,5.0278,5.0197,5.0119,4.9799,4.9717,4.9717,4.9717,4.9717,4.9717,4.9717,4.9451,4.9132,4.8827,4.8493,4.8043,4.7053,4.6778,4.6647,4.6055,4.588,4.588,4.588,4.588,4.588,4.588,4.588,4.588,4.588,4.5605,4.5271,4.4937,4.4342,4.3703,4.3094,4.2731,4.2426,4.2136,4.2092,4.1961,4.1613,4.157,4.1308,4.0641,4.0583,4.0437,4.0118,4.0104,4.0104,4.0104,4.0104,4.0104,4.0104,4.0104,4.0104,4.0104,4.0754,4.0588,3.9589,4.0056,4.0155,3.989,3.989,3.9839,3.9727,3.9727,3.9584,3.9388,3.9388,3.9388,3.9388,3.9388,3.9388,3.9388,3.9388,3.9388,3.9388,5.3515,5.3515,5.3515,5.3515,5.3515,5.3515,5.3515,5.3515,5.3515,5.3515,5.3515,5.3515,5.3515,5.3515,5.3515,5.3515,5.3515,5.3515,5.3515,5.3515,5.3515,5.3515,5.3515,5.3515,5.3515,5.3515,5.3515,5.3515,5.3515,5.3515,5.3515,5.3515,5.3225,5.2731,5.2731,5.2383,5.1788,5.1788,5.1715,5.1585,5.1048,5.0772,5.0612,5.011,4.9819,4.9717,4.9717,4.9717,4.9717,4.9717,4.9717,4.9582,4.9059,4.8885,4.8653,4.7445,4.7024,4.6853,4.6214,4.5967,4.588,4.588,4.588,4.588,4.588,4.588,4.588,4.588,4.588,4.5721,4.5155,4.4966,4.4545,4.3485,4.3224,4.2948,4.2339,4.2252,4.2208,4.2107,4.2092,4.1874,4.1323,4.1265,4.1033,4.0481,4.0437,4.0437,4.0437,4.0437,4.0437,4.0437,4.0437,4.0477,4.0477,4.1414,4.1627,4.1174,4.1213,4.1211,4.1133,4.1133,4.0949,4.0561,4.0561,4.0187,3.9553,3.9553,3.9514,3.9388,3.9388,3.9388,3.9388,3.9388,3.9388,3.9388,5.3515,5.3515,5.3515,5.3515,5.3515,5.3515,5.3515,5.3515,5.3515,5.3515,5.3515,5.3515,5.3515,5.3515,5.3515,5.3515,5.3515,5.3515,5.3515,5.3515,5.3515,5.3515,5.3515,5.3515,5.3515,5.3515,5.3515,5.3515,5.3515,5.3515,5.3515,5.3515,5.3471,5.3384,5.3384,5.3036,5.2441,5.2441,5.2122,5.1614,5.1527,5.1164,5.072,5.0618,5.0226,4.9717,4.9717,4.9717,4.9717,4.9717,4.9717,4.9654,4.9567,4.9538,4.9407,4.8682,4.8072,4.7506,4.6882,4.6301,4.588,4.588,4.588,4.588,4.588,4.588,4.588,4.588,4.588,4.5866,4.5764,4.5271,4.4821,4.4661,4.4197,4.3616,4.2963,4.2876,4.2673,4.2165,4.2092,4.2063,4.1976,4.1961,4.1918,4.1831,4.1831,4.1831,4.1831,4.1831,4.1831,4.1831,4.1831,4.1898,4.2088,4.2405,4.2632,4.2688,4.2862,4.2399,4.1346,4.1346,4.1324,4.125,4.125,4.0876,4.0262,4.0262,3.9933,3.9388,3.9388,3.9388,3.9388,3.9388,3.9388,3.9388,5.3515,5.3515,5.3515,5.3515,5.3515,5.3515,5.3515,5.3515,5.3515,5.3515,5.3515,5.3515,5.3515,5.3515,5.3515,5.3515,5.3515,5.3515,5.3515,5.3515,5.3515,5.3515,5.3515,5.3515,5.3515,5.3515,5.3515,5.3515,5.3515,5.3515,5.3515,5.3515,5.3515,5.3515,5.3515,5.3355,5.3094,5.3094,5.2934,5.2644,5.2296,5.1991,5.1701,5.1338,5.1019,5.0714,5.0365,5.0002,4.9717,4.9717,4.9717,4.9717,4.9717,4.9717,4.9553,4.8914,4.8522,4.8087,4.7053,4.6635,4.633,4.5967,4.588,4.588,4.588,4.588,4.588,4.588,4.588,4.588,4.588,4.5648,4.5329,4.4937,4.4661,4.4269,4.3645,4.3544,4.3311,4.2673,4.2295,4.2092,4.2092,4.2092,4.2092,4.2092,4.2092,4.2092,4.2092,4.2216,4.2284,4.2284,4.2392,4.2474,4.2581,4.2769,4.2915,4.2981,4.321,4.2991,4.2476,4.2476,4.2282,4.1976,4.1976,4.1587,4.092,4.0546,4.0232,3.9933,3.9574,3.9388,3.9388,3.9388,3.9388,3.9388]}]]